| time (UTC) | temp F | wind direction | speed knots | gust knots | rain 1hr in | rain 24hr in | rain mn in | humidity % | barometer mb |
| 20260831163629 | 88 | 360 | 5.2 | 9.6 | 0.00 | 0.00 | 0.00 | 66 | 1018.7 |
| 20260831163550 | 88 | 360 | 5.2 | 9.6 | 0.00 | 0.00 | 0.00 | 66 | 1018.6 |
| 20260831163430 | 88 | 360 | 4.3 | 8.7 | 0.00 | 0.00 | 0.00 | 65 | 1018.6 |
| 20260831163331 | 88 | 360 | 5.2 | 8.7 | 0.00 | 0.00 | 0.00 | 65 | 1018.6 |
| 20260831163231 | 88 | 360 | 5.2 | 8.7 | 0.00 | 0.00 | 0.00 | 65 | 1018.5 |
| 20260831163136 | 88 | 161 | 5.2 | 8.7 | 0.00 | 0.00 | 0.00 | 64 | 1018.6 |
| 20260831163056 | 88 | 360 | 5.2 | 13.0 | 0.00 | 0.00 | 0.00 | 65 | 1018.6 |
| 20260831162954 | 88 | 360 | 3.5 | 13.0 | 0.00 | 0.00 | 0.00 | 65 | 1018.6 |
| 20260831162834 | 88 | 360 | 2.6 | 13.0 | 0.00 | 0.00 | 0.00 | 65 | 1018.6 |
| 20260831162734 | 88 | 360 | 2.6 | 13.0 | 0.00 | 0.00 | 0.00 | 65 | 1018.6 |
| 20260831162635 | 88 | 360 | 4.3 | 13.0 | 0.00 | 0.00 | 0.00 | 65 | 1018.6 |
| 20260831162556 | 88 | 360 | 4.3 | 13.0 | 0.00 | 0.00 | 0.00 | 66 | 1018.7 |
| 20260831162434 | 88 | 360 | 3.5 | 13.0 | 0.00 | 0.00 | 0.00 | 66 | 1018.7 |
| 20260831162318 | 88 | 360 | 3.5 | 13.0 | 0.00 | 0.00 | 0.00 | 66 | 1018.7 |
| 20260831162218 | 87 | 360 | 5.2 | 13.0 | 0.00 | 0.00 | 0.00 | 68 | 1018.6 |
| 20260831162120 | 87 | 360 | 7.0 | 13.0 | 0.00 | 0.00 | 0.00 | 67 | 1018.7 |
| 20260831162020 | 88 | 360 | 6.1 | 9.6 | 0.00 | 0.00 | 0.00 | 66 | 1018.6 |
| 20260831161919 | 88 | 360 | 5.2 | 12.2 | 0.00 | 0.00 | 0.00 | 67 | 1018.6 |
| 20260831161820 | 88 | 360 | 5.2 | 12.2 | 0.00 | 0.00 | 0.00 | 67 | 1018.6 |
| 20260831161721 | 88 | 360 | 5.2 | 12.2 | 0.00 | 0.00 | 0.00 | 67 | 1018.6 |
| 20260831161625 | 88 | 360 | 5.2 | 12.2 | 0.00 | 0.00 | 0.00 | 66 | 1018.5 |
| 20260831161526 | 87 | 213 | 5.2 | 12.2 | 0.00 | 0.00 | 0.00 | 66 | 1018.5 |
| 20260831161426 | 88 | 360 | 3.5 | 12.2 | 0.00 | 0.00 | 0.00 | 65 | 1018.6 |
| 20260831161327 | 88 | 360 | 3.5 | 12.2 | 0.00 | 0.00 | 0.00 | 66 | 1018.5 |
| 20260831161227 | 88 | 360 | 4.3 | 12.2 | 0.00 | 0.00 | 0.00 | 66 | 1018.4 |
| 20260831161127 | 87 | 360 | 6.1 | 12.2 | 0.00 | 0.00 | 0.00 | 66 | 1018.5 |
| 20260831161032 | 88 | 360 | 6.1 | 12.2 | 0.00 | 0.00 | 0.00 | 66 | 1018.5 |
| 20260831160932 | 88 | 360 | 4.3 | 12.2 | 0.00 | 0.00 | 0.00 | 66 | 1018.6 |
| 20260831160832 | 88 | 360 | 2.6 | 11.3 | 0.00 | 0.00 | 0.00 | 67 | 1018.4 |
| 20260831160733 | 87 | 360 | 3.5 | 11.3 | 0.00 | 0.00 | 0.00 | 67 | 1018.5 |
| 20260831160632 | 87 | 360 | 5.2 | 11.3 | 0.00 | 0.00 | 0.00 | 68 | 1018.5 |
| 20260831160532 | 87 | 360 | 7.0 | 11.3 | 0.00 | 0.00 | 0.00 | 67 | 1018.5 |
| 20260831160432 | 87 | 360 | 6.1 | 11.3 | 0.00 | 0.00 | 0.00 | 67 | 1018.5 |
| 20260831160338 | 86 | 360 | 6.1 | 11.3 | 0.00 | 0.00 | 0.00 | 69 | 1018.5 |
| 20260831160218 | 86 | 360 | 7.0 | 11.3 | 0.00 | 0.00 | 0.00 | 69 | 1018.5 |
| 20260831160139 | 86 | 360 | 7.8 | 11.3 | 0.00 | 0.00 | 0.00 | 68 | 1018.6 |
| 20260831160019 | 86 | 360 | 7.8 | 11.3 | 0.00 | 0.00 | 0.00 | 68 | 1018.6 |
| 20260831155918 | 86 | 360 | 7.8 | 11.3 | 0.00 | 0.00 | 0.00 | 68 | 1018.6 |
| 20260831155820 | 86 | 360 | 7.0 | 11.3 | 0.00 | 0.00 | 0.00 | 69 | 1018.6 |
| 20260831155719 | 86 | 360 | 6.1 | 9.6 | 0.00 | 0.00 | 0.00 | 71 | 1018.6 |
| 20260831155624 | 86 | 360 | 4.3 | 8.7 | 0.00 | 0.00 | 0.00 | 71 | 1018.6 |
| 20260831155524 | 86 | 360 | 3.5 | 7.0 | 0.00 | 0.00 | 0.00 | 71 | 1018.6 |
| 20260831155424 | 86 | 360 | 3.5 | 5.2 | 0.00 | 0.00 | 0.00 | 72 | 1018.5 |
| 20260831155345 | 86 | 360 | 2.6 | 7.0 | 0.00 | 0.00 | 0.00 | 71 | 1018.6 |
| 20260831155224 | 86 | 360 | 1.7 | 7.0 | 0.00 | 0.00 | 0.00 | 72 | 1018.6 |
| 20260831155125 | 86 | 360 | 1.7 | 7.8 | 0.00 | 0.00 | 0.00 | 72 | 1018.6 |
| 20260831155026 | 86 | 360 | 0.9 | 9.6 | 0.00 | 0.00 | 0.00 | 72 | 1018.6 |
| 20260831154946 | 86 | 360 | 0.9 | 10.4 | 0.00 | 0.00 | 0.00 | 72 | 1018.6 |
| 20260831154849 | 86 | 360 | 1.7 | 10.4 | 0.00 | 0.00 | 0.00 | 72 | 1018.7 |
| 20260831154749 | 85 | 360 | 2.6 | 10.4 | 0.00 | 0.00 | 0.00 | 73 | 1018.6 |
| 20260831154630 | 85 | 360 | 3.5 | 10.4 | 0.00 | 0.00 | 0.00 | 73 | 1018.7 |
| 20260831154529 | 85 | 360 | 4.3 | 10.4 | 0.00 | 0.00 | 0.00 | 73 | 1018.6 |
| 20260831154430 | 85 | 360 | 5.2 | 10.4 | 0.00 | 0.00 | 0.00 | 72 | 1018.6 |
| 20260831154330 | 85 | 360 | 6.1 | 10.4 | 0.00 | 0.00 | 0.00 | 72 | 1018.6 |
| 20260831154231 | 86 | 360 | 5.2 | 10.4 | 0.00 | 0.00 | 0.00 | 72 | 1018.6 |
| 20260831154152 | 86 | 360 | 4.3 | 10.4 | 0.00 | 0.00 | 0.00 | 71 | 1018.6 |
| 20260831154036 | 86 | 360 | 4.3 | 10.4 | 0.00 | 0.00 | 0.00 | 72 | 1018.6 |
| 20260831153935 | 85 | 360 | 4.3 | 10.4 | 0.00 | 0.00 | 0.00 | 72 | 1018.5 |
| 20260831153856 | 85 | 360 | 5.2 | 10.4 | 0.00 | 0.00 | 0.00 | 73 | 1018.6 |
| 20260831153716 | 85 | 360 | 6.1 | 12.2 | 0.00 | 0.00 | 0.00 | 73 | 1018.6 |
| 20260831153617 | 85 | 360 | 6.1 | 14.8 | 0.00 | 0.00 | 0.00 | 73 | 1018.5 |
| 20260831153517 | 85 | 360 | 6.1 | 14.8 | 0.00 | 0.00 | 0.00 | 73 | 1018.5 |
| 20260831153418 | 84 | 360 | 6.1 | 14.8 | 0.00 | 0.00 | 0.00 | 73 | 1018.5 |
| 20260831153322 | 84 | 360 | 7.0 | 14.8 | 0.00 | 0.00 | 0.00 | 73 | 1018.4 |
| 20260831153222 | 84 | 360 | 7.0 | 14.8 | 0.00 | 0.00 | 0.00 | 73 | 1018.5 |
| 20260831153122 | 84 | 360 | 7.8 | 14.8 | 0.00 | 0.00 | 0.00 | 73 | 1018.4 |
| 20260831153023 | 84 | 360 | 8.7 | 14.8 | 0.00 | 0.00 | 0.00 | 72 | 1018.4 |
| 20260831152924 | 85 | 360 | 9.6 | 14.8 | 0.00 | 0.00 | 0.00 | 71 | 1018.4 |
| 20260831152826 | 85 | 360 | 8.7 | 13.9 | 0.00 | 0.00 | 0.00 | 71 | 1018.3 |
| 20260831152729 | 86 | 360 | 8.7 | 13.9 | 0.00 | 0.00 | 0.00 | 70 | 1018.3 |
| 20260831152649 | 86 | 140 | 6.1 | 12.2 | 0.00 | 0.00 | 0.00 | 71 | 1018.3 |
| 20260831152528 | 86 | 360 | 5.2 | 12.2 | 0.00 | 0.00 | 0.00 | 71 | 1018.4 |
| 20260831152447 | 86 | 360 | 3.5 | 12.2 | 0.00 | 0.00 | 0.00 | 73 | 1018.4 |
| 20260831152326 | 86 | 180 | 3.5 | 8.7 | 0.00 | 0.00 | 0.00 | 73 | 1018.4 |
| 20260831152226 | 86 | 360 | 2.6 | 8.7 | 0.00 | 0.00 | 0.00 | 73 | 1018.4 |
| 20260831152126 | 86 | 360 | 3.5 | 8.7 | 0.00 | 0.00 | 0.00 | 74 | 1018.4 |
| 20260831152026 | 86 | 360 | 3.5 | 8.7 | 0.00 | 0.00 | 0.00 | 74 | 1018.4 |
| 20260831151931 | 85 | 360 | 3.5 | 9.6 | 0.00 | 0.00 | 0.00 | 74 | 1018.3 |
| 20260831151851 | 85 | 360 | 3.5 | 10.4 | 0.00 | 0.00 | 0.00 | 75 | 1018.4 |
| 20260831151729 | 85 | 360 | 3.5 | 10.4 | 0.00 | 0.00 | 0.00 | 75 | 1018.4 |
| 20260831151629 | 84 | 360 | 3.5 | 10.4 | 0.00 | 0.00 | 0.00 | 75 | 1018.4 |
| 20260831151529 | 84 | 360 | 3.5 | 10.4 | 0.00 | 0.00 | 0.00 | 75 | 1018.3 |
| 20260831151449 | 84 | 360 | 3.5 | 10.4 | 0.00 | 0.00 | 0.00 | 76 | 1018.2 |
| 20260831151348 | 84 | 360 | 4.3 | 12.2 | 0.00 | 0.00 | 0.00 | 76 | 1018.2 |
| 20260831151228 | 84 | 360 | 4.3 | 12.2 | 0.00 | 0.00 | 0.00 | 77 | 1018.3 |
| 20260831151127 | 84 | 360 | 3.5 | 12.2 | 0.00 | 0.00 | 0.00 | 78 | 1018.3 |
| 20260831151026 | 83 | 360 | 3.5 | 12.2 | 0.00 | 0.00 | 0.00 | 78 | 1018.2 |
| 20260831150952 | 83 | 360 | 2.6 | 12.2 | 0.00 | 0.00 | 0.00 | 78 | 1018.2 |
| 20260831150830 | 83 | 360 | 4.3 | 12.2 | 0.00 | 0.00 | 0.00 | 78 | 1018.2 |
| 20260831150731 | 83 | 360 | 6.1 | 12.2 | 0.00 | 0.00 | 0.00 | 78 | 1018.2 |
| 20260831150632 | 82 | 360 | 6.1 | 12.2 | 0.00 | 0.00 | 0.00 | 78 | 1018.2 |
| 20260831150553 | 82 | 360 | 5.2 | 12.2 | 0.00 | 0.00 | 0.00 | 79 | 1018.3 |
| 20260831150452 | 82 | 360 | 5.2 | 11.3 | 0.00 | 0.00 | 0.00 | 79 | 1018.3 |
| 20260831150332 | 82 | 360 | 6.1 | 9.6 | 0.00 | 0.00 | 0.00 | 79 | 1018.2 |
| 20260831150232 | 82 | 360 | 6.1 | 9.6 | 0.00 | 0.00 | 0.00 | 79 | 1018.2 |
| 20260831150116 | 82 | 360 | 4.3 | 9.6 | 0.00 | 0.00 | 0.00 | 79 | 1018.2 |
| 20260831150017 | 82 | 360 | 3.5 | 9.6 | 0.00 | 0.00 | 0.00 | 79 | 1018.2 |
| 20260831145918 | 82 | 360 | 3.5 | 9.6 | 0.00 | 0.00 | 0.00 | 80 | 1018.2 |
| 20260831145818 | 82 | 360 | 3.5 | 9.6 | 0.00 | 0.00 | 0.00 | 80 | 1018.2 |
| 20260831145717 | 82 | 360 | 3.5 | 9.6 | 0.00 | 0.00 | 0.00 | 80 | 1018.2 |
| 20260831145617 | 82 | 360 | 3.5 | 9.6 | 0.00 | 0.00 | 0.00 | 80 | 1018.2 |
| 20260831145522 | 82 | 360 | 3.5 | 9.6 | 0.00 | 0.00 | 0.00 | 80 | 1018.2 |
| 20260831145423 | 82 | 360 | 3.5 | 10.4 | 0.00 | 0.00 | 0.00 | 80 | 1018.2 |
| 20260831145325 | 82 | 360 | 4.3 | 10.4 | 0.00 | 0.00 | 0.00 | 80 | 1018.2 |
| 20260831145224 | 82 | 360 | 3.5 | 10.4 | 0.00 | 0.00 | 0.00 | 80 | 1018.1 |
| 20260831145125 | 82 | 360 | 2.6 | 10.4 | 0.00 | 0.00 | 0.00 | 80 | 1018.2 |
| 20260831145046 | 82 | 360 | 2.6 | 10.4 | 0.00 | 0.00 | 0.00 | 80 | 1018.2 |
| 20260831144926 | 81 | 360 | 3.5 | 10.4 | 0.00 | 0.00 | 0.00 | 80 | 1018.2 |
| 20260831144826 | 81 | 360 | 4.3 | 11.3 | 0.00 | 0.00 | 0.00 | 80 | 1018.2 |
| 20260831144731 | 81 | 360 | 5.2 | 11.3 | 0.00 | 0.00 | 0.00 | 80 | 1018.2 |
| 20260831144650 | 82 | 360 | 5.2 | 11.3 | 0.00 | 0.00 | 0.00 | 80 | 1018.2 |
| 20260831144529 | 82 | 360 | 4.3 | 11.3 | 0.00 | 0.00 | 0.00 | 80 | 1018.1 |
| 20260831144430 | 82 | 360 | 3.5 | 12.2 | 0.00 | 0.00 | 0.00 | 80 | 1018.2 |
| 20260831144330 | 82 | 360 | 4.3 | 12.2 | 0.00 | 0.00 | 0.00 | 80 | 1018.2 |
| 20260831144231 | 82 | 360 | 5.2 | 12.2 | 0.00 | 0.00 | 0.00 | 80 | 1018.2 |
| 20260831144131 | 82 | 360 | 5.2 | 12.2 | 0.00 | 0.00 | 0.00 | 80 | 1018.1 |
| 20260831144035 | 82 | 360 | 4.3 | 12.2 | 0.00 | 0.00 | 0.00 | 79 | 1018.1 |
| 20260831143916 | 82 | 360 | 4.3 | 12.2 | 0.00 | 0.00 | 0.00 | 80 | 1018.1 |
| 20260831143817 | 82 | 360 | 4.3 | 12.2 | 0.00 | 0.00 | 0.00 | 80 | 1018.1 |
| 20260831143717 | 82 | 360 | 5.2 | 12.2 | 0.00 | 0.00 | 0.00 | 80 | 1018.1 |
| 20260831143617 | 82 | 360 | 5.2 | 10.4 | 0.00 | 0.00 | 0.00 | 80 | 1018.1 |
| 20260831143518 | 82 | 360 | 5.2 | 10.4 | 0.00 | 0.00 | 0.00 | 80 | 1018.1 |
| 20260831143423 | 82 | 360 | 4.3 | 10.4 | 0.00 | 0.00 | 0.00 | 81 | 1018.0 |
| 20260831143323 | 82 | 360 | 6.1 | 10.4 | 0.00 | 0.00 | 0.00 | 81 | 1018.1 |
| 20260831143223 | 82 | 360 | 6.1 | 10.4 | 0.00 | 0.00 | 0.00 | 80 | 1018.1 |
| 20260831143124 | 82 | 360 | 6.1 | 10.4 | 0.00 | 0.00 | 0.00 | 80 | 1018.0 |
| 20260831143025 | 82 | 360 | 4.3 | 10.4 | 0.00 | 0.00 | 0.00 | 80 | 1018.1 |
| 20260831142926 | 82 | 360 | 2.6 | 11.3 | 0.00 | 0.00 | 0.00 | 80 | 1018.0 |
| 20260831142832 | 82 | 360 | 2.6 | 11.3 | 0.00 | 0.00 | 0.00 | 80 | 1018.1 |
| 20260831142730 | 82 | 360 | 3.5 | 11.3 | 0.00 | 0.00 | 0.00 | 80 | 1018.0 |
| 20260831142632 | 82 | 360 | 4.3 | 11.3 | 0.00 | 0.00 | 0.00 | 80 | 1018.0 |
| 20260831142552 | 82 | 360 | 4.3 | 11.3 | 0.00 | 0.00 | 0.00 | 80 | 1017.9 |
| 20260831142432 | 82 | 360 | 4.3 | 11.3 | 0.00 | 0.00 | 0.00 | 81 | 1017.9 |
| 20260831142333 | 82 | 360 | 4.3 | 11.3 | 0.00 | 0.00 | 0.00 | 81 | 1017.9 |
| 20260831142232 | 82 | 360 | 4.3 | 11.3 | 0.00 | 0.00 | 0.00 | 81 | 1017.9 |
| 20260831142117 | 82 | 360 | 4.3 | 11.3 | 0.00 | 0.00 | 0.00 | 81 | 1017.9 |
| 20260831142017 | 82 | 360 | 5.2 | 11.3 | 0.00 | 0.00 | 0.00 | 81 | 1017.9 |
| 20260831141917 | 82 | 360 | 6.1 | 11.3 | 0.00 | 0.00 | 0.00 | 81 | 1017.9 |
| 20260831141816 | 82 | 360 | 6.1 | 11.3 | 0.00 | 0.00 | 0.00 | 80 | 1017.9 |
| 20260831141737 | 82 | 360 | 4.3 | 11.3 | 0.00 | 0.00 | 0.00 | 81 | 1017.8 |
| 20260831141617 | 82 | 360 | 2.6 | 11.3 | 0.00 | 0.00 | 0.00 | 81 | 1017.8 |
| 20260831141517 | 82 | 360 | 2.6 | 11.3 | 0.00 | 0.00 | 0.00 | 81 | 1017.9 |
| 20260831141438 | 82 | 360 | 3.5 | 11.3 | 0.00 | 0.00 | 0.00 | 81 | 1017.9 |
| 20260831141321 | 82 | 360 | 3.5 | 11.3 | 0.00 | 0.00 | 0.00 | 82 | 1017.9 |
| 20260831141221 | 82 | 360 | 2.6 | 11.3 | 0.00 | 0.00 | 0.00 | 82 | 1017.8 |
| 20260831141122 | 81 | 360 | 2.6 | 9.6 | 0.00 | 0.00 | 0.00 | 82 | 1017.9 |
| 20260831141021 | 81 | 360 | 2.6 | 8.7 | 0.00 | 0.00 | 0.00 | 82 | 1017.9 |
| 20260831140922 | 81 | 360 | 3.5 | 8.7 | 0.00 | 0.00 | 0.00 | 83 | 1017.9 |
| 20260831140822 | 81 | 360 | 3.5 | 8.7 | 0.00 | 0.00 | 0.00 | 83 | 1017.9 |
| 20260831140742 | 81 | 360 | 2.6 | 7.8 | 0.00 | 0.00 | 0.00 | 84 | 1017.8 |
| 20260831140626 | 81 | 360 | 3.5 | 7.8 | 0.00 | 0.00 | 0.00 | 83 | 1017.8 |
| 20260831140527 | 81 | 360 | 2.6 | 7.8 | 0.00 | 0.00 | 0.00 | 83 | 1017.8 |
| 20260831140426 | 81 | 360 | 2.6 | 7.8 | 0.00 | 0.00 | 0.00 | 84 | 1017.7 |
| 20260831140326 | 81 | 360 | 1.7 | 7.0 | 0.00 | 0.00 | 0.00 | 84 | 1017.8 |
| 20260831140227 | 81 | 360 | 1.7 | 7.0 | 0.00 | 0.00 | 0.00 | 84 | 1017.8 |
| 20260831140148 | 81 | 360 | 1.7 | 7.0 | 0.00 | 0.00 | 0.00 | 84 | 1017.7 |
| 20260831140028 | 81 | 360 | 1.7 | 7.0 | 0.00 | 0.00 | 0.00 | 84 | 1017.7 |
| 20260831135929 | 81 | 360 | 2.6 | 7.8 | 0.00 | 0.00 | 0.00 | 84 | 1017.8 |
| 20260831135835 | 81 | 360 | 2.6 | 7.8 | 0.00 | 0.00 | 0.00 | 85 | 1017.7 |
| 20260831135735 | 81 | 360 | 1.7 | 7.8 | 0.00 | 0.00 | 0.00 | 85 | 1017.7 |
| 20260831135616 | 81 | 360 | 2.6 | 7.8 | 0.00 | 0.00 | 0.00 | 85 | 1017.6 |
| 20260831135515 | 81 | 360 | 3.5 | 7.8 | 0.00 | 0.00 | 0.00 | 85 | 1017.7 |
| 20260831135416 | 80 | 360 | 3.5 | 8.7 | 0.00 | 0.00 | 0.00 | 86 | 1017.6 |
| 20260831135317 | 80 | 360 | 3.5 | 8.7 | 0.00 | 0.00 | 0.00 | 86 | 1017.6 |
| 20260831135222 | 80 | 360 | 3.5 | 9.6 | 0.00 | 0.00 | 0.00 | 86 | 1017.6 |
| 20260831135122 | 80 | 360 | 3.5 | 9.6 | 0.00 | 0.00 | 0.00 | 86 | 1017.7 |
| 20260831134943 | 80 | 360 | 3.5 | 9.6 | 0.00 | 0.00 | 0.00 | 86 | 1017.6 |
| 20260831134822 | 80 | 360 | 3.5 | 9.6 | 0.00 | 0.00 | 0.00 | 86 | 1017.6 |
| 20260831134723 | 80 | 360 | 3.5 | 9.6 | 0.00 | 0.00 | 0.00 | 86 | 1017.7 |
| 20260831134623 | 80 | 360 | 4.3 | 9.6 | 0.00 | 0.00 | 0.00 | 86 | 1017.7 |
| 20260831134528 | 80 | 360 | 4.3 | 9.6 | 0.00 | 0.00 | 0.00 | 86 | 1017.7 |
| 20260831134428 | 80 | 360 | 3.5 | 9.6 | 0.00 | 0.00 | 0.00 | 87 | 1017.7 |
| 20260831134349 | 80 | 360 | 2.6 | 7.0 | 0.00 | 0.00 | 0.00 | 87 | 1017.5 |
| 20260831134228 | 80 | 360 | 1.7 | 7.0 | 0.00 | 0.00 | 0.00 | 87 | 1017.6 |
| 20260831134149 | 80 | 360 | 1.7 | 7.0 | 0.00 | 0.00 | 0.00 | 88 | 1017.6 |
| 20260831134028 | 80 | 360 | 2.6 | 7.0 | 0.00 | 0.00 | 0.00 | 87 | 1017.6 |
| 20260831133929 | 79 | 198 | 3.5 | 7.0 | 0.00 | 0.00 | 0.00 | 87 | 1017.5 |
| 20260831133829 | 79 | 360 | 4.3 | 7.0 | 0.00 | 0.00 | 0.00 | 88 | 1017.5 |
| 20260831133755 | 79 | 360 | 3.5 | 7.0 | 0.00 | 0.00 | 0.00 | 88 | 1017.6 |
| 20260831133635 | 79 | 360 | 2.6 | 7.0 | 0.00 | 0.00 | 0.00 | 88 | 1017.5 |
| 20260831133554 | 79 | 360 | 1.7 | 5.2 | 0.00 | 0.00 | 0.00 | 88 | 1017.5 |
| 20260831133435 | 79 | 360 | 0.9 | 5.2 | 0.00 | 0.00 | 0.00 | 89 | 1017.5 |
| 20260831133356 | 79 | 360 | 1.7 | 5.2 | 0.00 | 0.00 | 0.00 | 89 | 1017.5 |
| 20260831133215 | 79 | 360 | 2.6 | 5.2 | 0.00 | 0.00 | 0.00 | 89 | 1017.5 |
| 20260831133116 | 79 | 360 | 2.6 | 7.0 | 0.00 | 0.00 | 0.00 | 89 | 1017.5 |
| 20260831133022 | 79 | 360 | 3.5 | 7.8 | 0.00 | 0.00 | 0.00 | 89 | 1017.5 |
| 20260831132921 | 79 | 360 | 3.5 | 7.8 | 0.00 | 0.00 | 0.00 | 89 | 1017.4 |
| 20260831132824 | 79 | 360 | 3.5 | 7.8 | 0.00 | 0.00 | 0.00 | 89 | 1017.4 |
| 20260831132724 | 79 | 360 | 2.6 | 7.8 | 0.00 | 0.00 | 0.00 | 89 | 1017.5 |
| 20260831132624 | 79 | 360 | 1.7 | 7.8 | 0.00 | 0.00 | 0.00 | 89 | 1017.4 |
| 20260831132525 | 79 | 360 | 2.6 | 7.8 | 0.00 | 0.00 | 0.00 | 89 | 1017.5 |
| 20260831132426 | 78 | 360 | 3.5 | 7.8 | 0.00 | 0.00 | 0.00 | 89 | 1017.5 |
| 20260831132350 | 78 | 360 | 3.5 | 7.8 | 0.00 | 0.00 | 0.00 | 89 | 1017.5 |
| 20260831132230 | 78 | 360 | 3.5 | 7.8 | 0.00 | 0.00 | 0.00 | 90 | 1017.5 |
| 20260831132131 | 78 | 360 | 3.5 | 7.8 | 0.00 | 0.00 | 0.00 | 89 | 1017.5 |
| 20260831132031 | 78 | 360 | 4.3 | 7.8 | 0.00 | 0.00 | 0.00 | 89 | 1017.5 |
| 20260831131951 | 78 | 360 | 4.3 | 7.8 | 0.00 | 0.00 | 0.00 | 90 | 1017.5 |
| 20260831131832 | 78 | 360 | 4.3 | 7.8 | 0.00 | 0.00 | 0.00 | 90 | 1017.5 |
| 20260831131732 | 78 | 360 | 5.2 | 7.8 | 0.00 | 0.00 | 0.00 | 90 | 1017.4 |
| 20260831131616 | 78 | 360 | 3.5 | 7.8 | 0.00 | 0.00 | 0.00 | 90 | 1017.4 |
| 20260831131518 | 78 | 360 | 3.5 | 7.0 | 0.00 | 0.00 | 0.00 | 90 | 1017.5 |
| 20260831131419 | 78 | 360 | 3.5 | 7.0 | 0.00 | 0.00 | 0.00 | 90 | 1017.4 |
| 20260831131320 | 78 | 360 | 3.5 | 7.0 | 0.00 | 0.00 | 0.00 | 90 | 1017.4 |
| 20260831131220 | 78 | 360 | 2.6 | 5.2 | 0.00 | 0.00 | 0.00 | 90 | 1017.5 |
| 20260831131120 | 78 | 360 | 2.6 | 7.0 | 0.00 | 0.00 | 0.00 | 90 | 1017.5 |
| 20260831131025 | 78 | 360 | 2.6 | 7.0 | 0.00 | 0.00 | 0.00 | 90 | 1017.4 |
| 20260831130927 | 78 | 360 | 3.5 | 7.0 | 0.00 | 0.00 | 0.00 | 90 | 1017.4 |
| 20260831130827 | 78 | 360 | 3.5 | 7.0 | 0.00 | 0.00 | 0.00 | 90 | 1017.4 |
| 20260831130728 | 78 | 360 | 3.5 | 7.0 | 0.00 | 0.00 | 0.00 | 90 | 1017.3 |
| 20260831130629 | 78 | 360 | 2.6 | 7.0 | 0.00 | 0.00 | 0.00 | 90 | 1017.4 |
| 20260831130528 | 78 | 360 | 2.6 | 7.0 | 0.00 | 0.00 | 0.00 | 90 | 1017.3 |
| 20260831130429 | 78 | 360 | 2.6 | 7.0 | 0.00 | 0.00 | 0.00 | 90 | 1017.3 |
| 20260831130353 | 78 | 360 | 2.6 | 7.0 | 0.00 | 0.00 | 0.00 | 90 | 1017.3 |
| 20260831130232 | 78 | 360 | 1.7 | 7.0 | 0.00 | 0.00 | 0.00 | 90 | 1017.3 |
| 20260831130133 | 77 | 360 | 0.9 | 5.2 | 0.00 | 0.00 | 0.00 | 90 | 1017.3 |
| 20260831130033 | 77 | 360 | 0.9 | 5.2 | 0.00 | 0.00 | 0.00 | 90 | 1017.2 |
| 20260831125933 | 77 | 360 | 1.7 | 5.2 | 0.00 | 0.00 | 0.00 | 90 | 1017.3 |
| 20260831125835 | 77 | 360 | 1.7 | 5.2 | 0.00 | 0.00 | 0.00 | 90 | 1017.3 |
| 20260831125719 | 77 | 360 | 2.6 | 5.2 | 0.00 | 0.00 | 0.00 | 90 | 1017.3 |
| 20260831125617 | 77 | 360 | 1.7 | 5.2 | 0.00 | 0.00 | 0.00 | 90 | 1017.3 |
| 20260831125517 | 77 | 360 | 1.7 | 5.2 | 0.00 | 0.00 | 0.00 | 91 | 1017.2 |
| 20260831125418 | 77 | 360 | 1.7 | 4.3 | 0.00 | 0.00 | 0.00 | 91 | 1017.1 |
| 20260831125318 | 77 | 360 | 2.6 | 4.3 | 0.00 | 0.00 | 0.00 | 90 | 1017.2 |
| 20260831125219 | 77 | 360 | 2.6 | 4.3 | 0.00 | 0.00 | 0.00 | 91 | 1017.1 |
| 20260831125119 | 77 | 360 | 2.6 | 4.3 | 0.00 | 0.00 | 0.00 | 91 | 1017.1 |
| 20260831125024 | 77 | 360 | 1.7 | 4.3 | 0.00 | 0.00 | 0.00 | 91 | 1017.1 |
| 20260831124925 | 77 | 360 | 0.9 | 4.3 | 0.00 | 0.00 | 0.00 | 91 | 1017.1 |
| 20260831124826 | 77 | 360 | 0.9 | 4.3 | 0.00 | 0.00 | 0.00 | 91 | 1017.2 |
| 20260831124728 | 77 | 360 | 0.9 | 4.3 | 0.00 | 0.00 | 0.00 | 91 | 1017.1 |
| 20260831124629 | 77 | 360 | 1.7 | 4.3 | 0.00 | 0.00 | 0.00 | 91 | 1017.1 |
| 20260831124530 | 77 | 360 | 1.7 | 3.5 | 0.00 | 0.00 | 0.00 | 91 | 1017.1 |
| 20260831124450 | 77 | 360 | 1.7 | 3.5 | 0.00 | 0.00 | 0.00 | 91 | 1017.1 |
| 20260831124334 | 77 | 360 | 1.7 | 3.5 | 0.00 | 0.00 | 0.00 | 91 | 1017.1 |
| 20260831124254 | 77 | 360 | 0.9 | 3.5 | 0.00 | 0.00 | 0.00 | 91 | 1017.1 |
| 20260831124134 | 77 | 360 | 1.7 | 3.5 | 0.00 | 0.00 | 0.00 | 91 | 1017.1 |
| 20260831124034 | 77 | 360 | 1.7 | 3.5 | 0.00 | 0.00 | 0.00 | 91 | 1017.0 |
| 20260831123935 | 77 | 360 | 1.7 | 3.5 | 0.00 | 0.00 | 0.00 | 91 | 1017.1 |
| 20260831123816 | 77 | 360 | 0.9 | 3.5 | 0.00 | 0.00 | 0.00 | 91 | 1017.1 |
| 20260831123717 | 77 | 360 | 1.7 | 4.3 | 0.00 | 0.00 | 0.00 | 91 | 1017.0 |
| 20260831123621 | 77 | 360 | 1.7 | 4.3 | 0.00 | 0.00 | 0.00 | 91 | 1017.1 |
| 20260831123523 | 77 | 360 | 1.7 | 4.3 | 0.00 | 0.00 | 0.00 | 91 | 1017.1 |
| 20260831123423 | 77 | 360 | 1.7 | 4.3 | 0.00 | 0.00 | 0.00 | 91 | 1017.1 |
| 20260831123344 | 77 | 360 | 0.9 | 4.3 | 0.00 | 0.00 | 0.00 | 91 | 1017.1 |
| 20260831123224 | 77 | 360 | 1.7 | 4.3 | 0.00 | 0.00 | 0.00 | 91 | 1017.1 |
| 20260831123125 | 77 | 360 | 1.7 | 4.3 | 0.00 | 0.00 | 0.00 | 91 | 1017.0 |
| 20260831123025 | 77 | 360 | 2.6 | 4.3 | 0.00 | 0.00 | 0.00 | 91 | 1017.0 |
| 20260831122950 | 77 | 360 | 2.6 | 4.3 | 0.00 | 0.00 | 0.00 | 91 | 1017.0 |
| 20260831122832 | 77 | 360 | 2.6 | 4.3 | 0.00 | 0.00 | 0.00 | 91 | 1017.1 |
| 20260831122731 | 76 | 360 | 2.6 | 4.3 | 0.00 | 0.00 | 0.00 | 91 | 1017.0 |
| 20260831122631 | 76 | 188 | 2.6 | 4.3 | 0.00 | 0.00 | 0.00 | 91 | 1017.0 |
| 20260831122532 | 76 | 360 | 1.7 | 4.3 | 0.00 | 0.00 | 0.00 | 90 | 1017.0 |
| 20260831122433 | 76 | 360 | 2.6 | 4.3 | 0.00 | 0.00 | 0.00 | 90 | 1017.0 |
| 20260831122354 | 76 | 360 | 2.6 | 4.3 | 0.00 | 0.00 | 0.00 | 90 | 1017.0 |
| 20260831122218 | 76 | 360 | 2.6 | 4.3 | 0.00 | 0.00 | 0.00 | 90 | 1017.0 |
| 20260831122118 | 77 | 360 | 2.6 | 4.3 | 0.00 | 0.00 | 0.00 | 90 | 1017.1 |
| 20260831122018 | 77 | 360 | 2.6 | 4.3 | 0.00 | 0.00 | 0.00 | 90 | 1017.2 |
| 20260831121938 | 77 | 360 | 2.6 | 4.3 | 0.00 | 0.00 | 0.00 | 90 | 1017.0 |
| 20260831121818 | 77 | 360 | 2.6 | 4.3 | 0.00 | 0.00 | 0.00 | 90 | 1017.1 |
| 20260831121718 | 77 | 360 | 1.7 | 3.5 | 0.00 | 0.00 | 0.00 | 90 | 1017.1 |
| 20260831121619 | 77 | 360 | 1.7 | 3.5 | 0.00 | 0.00 | 0.00 | 90 | 1017.0 |
| 20260831121524 | 77 | 360 | 1.7 | 3.5 | 0.00 | 0.00 | 0.00 | 90 | 1017.1 |
| 20260831121424 | 77 | 360 | 2.6 | 3.5 | 0.00 | 0.00 | 0.00 | 90 | 1017.0 |
| 20260831121324 | 77 | 360 | 1.7 | 3.5 | 0.00 | 0.00 | 0.00 | 90 | 1017.1 |
| 20260831121226 | 77 | 360 | 1.7 | 3.5 | 0.00 | 0.00 | 0.00 | 90 | 1017.0 |
| 20260831121147 | 77 | 360 | 1.7 | 3.5 | 0.00 | 0.00 | 0.00 | 90 | 1017.0 |
| 20260831121027 | 77 | 360 | 1.7 | 3.5 | 0.00 | 0.00 | 0.00 | 90 | 1017.1 |
| 20260831120947 | 77 | 360 | 1.7 | 3.5 | 0.00 | 0.00 | 0.00 | 90 | 1017.0 |
| 20260831120831 | 77 | 360 | 1.7 | 3.5 | 0.00 | 0.00 | 0.00 | 90 | 1016.9 |
| 20260831120731 | 77 | 360 | 0.9 | 3.5 | 0.00 | 0.00 | 0.00 | 90 | 1017.0 |
| 20260831120631 | 77 | 186 | 0.9 | 3.5 | 0.00 | 0.00 | 0.00 | 90 | 1016.9 |
| 20260831120531 | 77 | 360 | 0.9 | 3.5 | 0.00 | 0.00 | 0.00 | 90 | 1017.0 |
| 20260831120451 | 77 | 360 | 0.9 | 3.5 | 0.00 | 0.00 | 0.00 | 90 | 1017.0 |
| 20260831120330 | 77 | 360 | 1.7 | 3.5 | 0.00 | 0.00 | 0.00 | 90 | 1016.9 |
| 20260831120231 | 77 | 360 | 1.7 | 3.5 | 0.00 | 0.00 | 0.00 | 90 | 1016.9 |
| 20260831120116 | 77 | 360 | 1.7 | 3.5 | 0.00 | 0.00 | 0.00 | 90 | 1017.0 |
| 20260831120017 | 77 | 360 | 1.7 | 3.5 | 0.00 | 0.00 | 0.00 | 90 | 1017.0 |
| 20260831115917 | 77 | 360 | 0.9 | 4.3 | 0.00 | 0.00 | 0.00 | 90 | 1017.0 |
| 20260831115819 | 77 | 360 | 0.9 | 4.3 | 0.00 | 0.00 | 0.00 | 90 | 1017.0 |
| 20260831115720 | 77 | 360 | 1.7 | 4.3 | 0.00 | 0.00 | 0.00 | 90 | 1017.0 |
| 20260831115620 | 77 | 360 | 1.7 | 4.3 | 0.00 | 0.00 | 0.00 | 90 | 1017.0 |
| 20260831115520 | 77 | 360 | 1.7 | 5.2 | 0.00 | 0.00 | 0.00 | 90 | 1017.0 |
| 20260831115424 | 77 | 360 | 2.6 | 5.2 | 0.00 | 0.00 | 0.00 | 90 | 1017.0 |
| 20260831115325 | 77 | 360 | 2.6 | 5.2 | 0.00 | 0.00 | 0.00 | 90 | 1017.0 |
| 20260831115225 | 77 | 360 | 2.6 | 5.2 | 0.00 | 0.00 | 0.00 | 90 | 1017.1 |
| 20260831115125 | 77 | 360 | 3.5 | 5.2 | 0.00 | 0.00 | 0.00 | 90 | 1017.0 |
| 20260831115027 | 77 | 360 | 3.5 | 5.2 | 0.00 | 0.00 | 0.00 | 90 | 1017.0 |
| 20260831114927 | 77 | 360 | 3.5 | 5.2 | 0.00 | 0.00 | 0.00 | 90 | 1017.0 |
| 20260831114831 | 77 | 360 | 3.5 | 7.8 | 0.00 | 0.00 | 0.00 | 90 | 1017.0 |
| 20260831114732 | 77 | 360 | 3.5 | 7.8 | 0.00 | 0.00 | 0.00 | 90 | 1017.0 |
| 20260831114632 | 77 | 360 | 2.6 | 7.8 | 0.00 | 0.00 | 0.00 | 89 | 1017.0 |
| 20260831114532 | 77 | 360 | 2.6 | 7.8 | 0.00 | 0.00 | 0.00 | 90 | 1017.0 |
| 20260831114432 | 77 | 360 | 2.6 | 7.8 | 0.00 | 0.00 | 0.00 | 89 | 1017.0 |
| 20260831114332 | 77 | 360 | 2.6 | 7.8 | 0.00 | 0.00 | 0.00 | 89 | 1017.0 |
| 20260831114216 | 77 | 360 | 2.6 | 7.8 | 0.00 | 0.00 | 0.00 | 89 | 1017.0 |
| 20260831114117 | 77 | 360 | 3.5 | 7.8 | 0.00 | 0.00 | 0.00 | 89 | 1016.9 |
| 20260831114017 | 77 | 360 | 3.5 | 7.8 | 0.00 | 0.00 | 0.00 | 89 | 1016.9 |
| 20260831113918 | 77 | 360 | 3.5 | 7.8 | 0.00 | 0.00 | 0.00 | 89 | 1016.9 |
| 20260831113818 | 77 | 360 | 3.5 | 7.8 | 0.00 | 0.00 | 0.00 | 89 | 1016.9 |
| 20260831113719 | 77 | 360 | 3.5 | 7.8 | 0.00 | 0.00 | 0.00 | 89 | 1017.0 |
| 20260831113619 | 77 | 360 | 3.5 | 7.8 | 0.00 | 0.00 | 0.00 | 89 | 1017.0 |
| 20260831113544 | 77 | 360 | 3.5 | 7.8 | 0.00 | 0.00 | 0.00 | 89 | 1016.9 |
| 20260831113424 | 77 | 360 | 3.5 | 7.8 | 0.00 | 0.00 | 0.00 | 89 | 1016.9 |
| 20260831113325 | 77 | 360 | 3.5 | 4.3 | 0.00 | 0.00 | 0.00 | 89 | 1017.0 |
| 20260831113225 | 77 | 360 | 3.5 | 4.3 | 0.00 | 0.00 | 0.00 | 89 | 1017.0 |
| 20260831113126 | 77 | 360 | 2.6 | 4.3 | 0.00 | 0.00 | 0.00 | 89 | 1017.0 |
| 20260831113028 | 77 | 360 | 1.7 | 4.3 | 0.00 | 0.00 | 0.00 | 89 | 1017.0 |
| 20260831112928 | 77 | 360 | 1.7 | 4.3 | 0.00 | 0.00 | 0.00 | 89 | 1017.1 |
| 20260831112834 | 77 | 360 | 0.9 | 4.3 | 0.00 | 0.00 | 0.00 | 89 | 1017.1 |
| 20260831112733 | 77 | 360 | 1.7 | 4.3 | 0.00 | 0.00 | 0.00 | 89 | 1017.1 |
| 20260831112633 | 77 | 360 | 1.7 | 6.1 | 0.00 | 0.00 | 0.00 | 89 | 1017.1 |
| 20260831112534 | 77 | 360 | 1.7 | 6.1 | 0.00 | 0.00 | 0.00 | 89 | 1017.1 |
| 20260831112453 | 77 | 360 | 1.7 | 6.1 | 0.00 | 0.00 | 0.00 | 89 | 1017.0 |
| 20260831112333 | 77 | 360 | 1.7 | 6.1 | 0.00 | 0.00 | 0.00 | 89 | 1017.0 |
| 20260831112234 | 77 | 360 | 1.7 | 6.1 | 0.00 | 0.00 | 0.00 | 89 | 1017.0 |
| 20260831112139 | 77 | 360 | 2.6 | 6.1 | 0.00 | 0.00 | 0.00 | 89 | 1017.1 |
| 20260831112019 | 77 | 360 | 3.5 | 7.0 | 0.00 | 0.00 | 0.00 | 89 | 1017.0 |
| 20260831111919 | 77 | 360 | 3.5 | 7.0 | 0.00 | 0.00 | 0.00 | 89 | 1017.1 |
| 20260831111819 | 77 | 360 | 4.3 | 7.0 | 0.00 | 0.00 | 0.00 | 89 | 1017.0 |
| 20260831111720 | 77 | 360 | 3.5 | 5.2 | 0.00 | 0.00 | 0.00 | 89 | 1017.1 |
| 20260831111621 | 77 | 360 | 2.6 | 4.3 | 0.00 | 0.00 | 0.00 | 89 | 1017.0 |
| 20260831111521 | 77 | 360 | 1.7 | 4.3 | 0.00 | 0.00 | 0.00 | 89 | 1017.0 |
| 20260831111426 | 77 | 360 | 0.9 | 4.3 | 0.00 | 0.00 | 0.00 | 89 | 1017.0 |
| 20260831111346 | 77 | 360 | 0.9 | 4.3 | 0.00 | 0.00 | 0.00 | 89 | 1017.0 |
| 20260831111246 | 77 | 360 | 1.7 | 4.3 | 0.00 | 0.00 | 0.00 | 89 | 1017.1 |
| 20260831111125 | 77 | 360 | 2.6 | 4.3 | 0.00 | 0.00 | 0.00 | 89 | 1017.0 |
| 20260831111025 | 77 | 360 | 2.6 | 4.3 | 0.00 | 0.00 | 0.00 | 89 | 1016.9 |
| 20260831110926 | 77 | 360 | 1.7 | 4.3 | 0.00 | 0.00 | 0.00 | 89 | 1017.0 |
| 20260831110827 | 77 | 360 | 0.9 | 4.3 | 0.00 | 0.00 | 0.00 | 89 | 1017.0 |
| 20260831110748 | 78 | 360 | 0.9 | 4.3 | 0.00 | 0.00 | 0.00 | 89 | 1017.0 |
| 20260831110632 | 78 | 360 | 0.9 | 4.3 | 0.00 | 0.00 | 0.00 | 89 | 1017.0 |
| 20260831110532 | 78 | 360 | 0.9 | 4.3 | 0.00 | 0.00 | 0.00 | 89 | 1017.0 |
| 20260831110432 | 78 | 360 | 0.9 | 4.3 | 0.00 | 0.00 | 0.00 | 89 | 1017.0 |
| 20260831110333 | 77 | 360 | 1.7 | 4.3 | 0.00 | 0.00 | 0.00 | 89 | 1016.9 |
| 20260831110233 | 77 | 360 | 1.7 | 4.3 | 0.00 | 0.00 | 0.00 | 89 | 1016.9 |
| 20260831110134 | 77 | 360 | 1.7 | 4.3 | 0.00 | 0.00 | 0.00 | 89 | 1016.9 |
| 20260831110019 | 77 | 360 | 1.7 | 4.3 | 0.00 | 0.00 | 0.00 | 89 | 1016.9 |
| 20260831105920 | 77 | 360 | 1.7 | 4.3 | 0.00 | 0.00 | 0.00 | 89 | 1016.9 |
| 20260831105821 | 77 | 360 | 2.6 | 4.3 | 0.00 | 0.00 | 0.00 | 89 | 1016.9 |
| 20260831105720 | 77 | 360 | 1.7 | 4.3 | 0.00 | 0.00 | 0.00 | 89 | 1016.8 |
| 20260831105621 | 78 | 360 | 1.7 | 4.3 | 0.00 | 0.00 | 0.00 | 89 | 1016.8 |
| 20260831105522 | 78 | 360 | 0.9 | 4.3 | 0.00 | 0.00 | 0.00 | 89 | 1016.8 |
| 20260831105426 | 78 | 360 | 1.7 | 4.3 | 0.00 | 0.00 | 0.00 | 89 | 1016.8 |
| 20260831105326 | 78 | 360 | 1.7 | 4.3 | 0.00 | 0.00 | 0.00 | 89 | 1016.9 |
| 20260831105225 | 78 | 360 | 1.7 | 4.3 | 0.00 | 0.00 | 0.00 | 89 | 1016.8 |
| 20260831105126 | 78 | 360 | 1.7 | 4.3 | 0.00 | 0.00 | 0.00 | 89 | 1016.8 |
| 20260831105027 | 78 | 360 | 2.6 | 4.3 | 0.00 | 0.00 | 0.00 | 89 | 1016.8 |
| 20260831104929 | 78 | 360 | 1.7 | 4.3 | 0.00 | 0.00 | 0.00 | 89 | 1016.8 |
| 20260831104829 | 78 | 360 | 1.7 | 4.3 | 0.00 | 0.00 | 0.00 | 89 | 1016.8 |
| 20260831104733 | 78 | 360 | 1.7 | 4.3 | 0.00 | 0.00 | 0.00 | 89 | 1016.7 |
| 20260831104633 | 78 | 360 | 1.7 | 4.3 | 0.00 | 0.00 | 0.00 | 89 | 1016.9 |
| 20260831104533 | 78 | 360 | 0.9 | 4.3 | 0.00 | 0.00 | 0.00 | 89 | 1016.8 |
| 20260831104454 | 78 | 360 | 0.9 | 4.3 | 0.00 | 0.00 | 0.00 | 89 | 1016.8 |
| 20260831104333 | 78 | 360 | 0.9 | 4.3 | 0.00 | 0.00 | 0.00 | 89 | 1016.8 |
| 20260831104233 | 78 | 360 | 1.7 | 4.3 | 0.00 | 0.00 | 0.00 | 89 | 1016.8 |
| 20260831104133 | 78 | 360 | 1.7 | 4.3 | 0.00 | 0.00 | 0.00 | 89 | 1016.9 |
| 20260831104018 | 78 | 360 | 1.7 | 4.3 | 0.00 | 0.00 | 0.00 | 89 | 1016.8 |
| 20260831103919 | 78 | 360 | 0.9 | 4.3 | 0.00 | 0.00 | 0.00 | 89 | 1016.9 |
| 20260831103819 | 78 | 360 | 0.9 | 4.3 | 0.00 | 0.00 | 0.00 | 89 | 1016.8 |
| 20260831103720 | 78 | 360 | 0.9 | 4.3 | 0.00 | 0.00 | 0.00 | 89 | 1016.8 |
| 20260831103642 | 78 | 360 | 1.7 | 4.3 | 0.00 | 0.00 | 0.00 | 89 | 1016.8 |
| 20260831103520 | 78 | 198 | 1.7 | 4.3 | 0.00 | 0.00 | 0.00 | 89 | 1016.8 |
| 20260831103421 | 78 | 360 | 2.6 | 4.3 | 0.00 | 0.00 | 0.00 | 89 | 1016.9 |
| 20260831103341 | 78 | 360 | 2.6 | 5.2 | 0.00 | 0.00 | 0.00 | 89 | 1016.8 |
| 20260831103225 | 78 | 360 | 2.6 | 5.2 | 0.00 | 0.00 | 0.00 | 89 | 1016.9 |
| 20260831103125 | 78 | 360 | 2.6 | 5.2 | 0.00 | 0.00 | 0.00 | 89 | 1016.9 |
| 20260831103025 | 78 | 360 | 1.7 | 5.2 | 0.00 | 0.00 | 0.00 | 89 | 1016.9 |
| 20260831102927 | 78 | 360 | 2.6 | 5.2 | 0.00 | 0.00 | 0.00 | 89 | 1016.9 |
| 20260831102828 | 78 | 360 | 2.6 | 5.2 | 0.00 | 0.00 | 0.00 | 89 | 1016.9 |
| 20260831102728 | 78 | 360 | 3.5 | 5.2 | 0.00 | 0.00 | 0.00 | 89 | 1016.8 |
| 20260831102632 | 78 | 360 | 3.5 | 5.2 | 0.00 | 0.00 | 0.00 | 89 | 1016.8 |
| 20260831102533 | 78 | 360 | 2.6 | 5.2 | 0.00 | 0.00 | 0.00 | 89 | 1016.8 |
| 20260831102433 | 78 | 360 | 2.6 | 5.2 | 0.00 | 0.00 | 0.00 | 88 | 1016.8 |
| 20260831102334 | 78 | 360 | 1.7 | 5.2 | 0.00 | 0.00 | 0.00 | 88 | 1016.8 |
| 20260831102234 | 78 | 360 | 1.7 | 5.2 | 0.00 | 0.00 | 0.00 | 88 | 1016.7 |
| 20260831102135 | 78 | 360 | 1.7 | 5.2 | 0.00 | 0.00 | 0.00 | 88 | 1016.8 |
| 20260831102020 | 78 | 360 | 1.7 | 5.2 | 0.00 | 0.00 | 0.00 | 88 | 1016.8 |
| 20260831101921 | 78 | 360 | 1.7 | 5.2 | 0.00 | 0.00 | 0.00 | 88 | 1016.8 |
| 20260831101822 | 78 | 360 | 1.7 | 5.2 | 0.00 | 0.00 | 0.00 | 88 | 1016.8 |
| 20260831101722 | 78 | 360 | 2.6 | 5.2 | 0.00 | 0.00 | 0.00 | 88 | 1016.8 |
| 20260831101643 | 78 | 360 | 2.6 | 7.0 | 0.00 | 0.00 | 0.00 | 88 | 1016.9 |
| 20260831101603 | 78 | 360 | 2.6 | 7.0 | 0.00 | 0.00 | 0.00 | 88 | 1016.9 |
| 20260831101416 | 78 | 360 | 2.6 | 7.0 | 0.00 | 0.00 | 0.00 | 88 | 1016.8 |
| 20260831101321 | 78 | 360 | 2.6 | 7.0 | 0.00 | 0.00 | 0.00 | 88 | 1016.9 |
| 20260831101223 | 78 | 184 | 2.6 | 7.0 | 0.00 | 0.00 | 0.00 | 88 | 1016.8 |
| 20260831101123 | 78 | 360 | 2.6 | 7.0 | 0.00 | 0.00 | 0.00 | 88 | 1016.9 |
| 20260831101024 | 78 | 360 | 3.5 | 7.0 | 0.00 | 0.00 | 0.00 | 88 | 1016.9 |
| 20260831100925 | 78 | 184 | 3.5 | 7.0 | 0.00 | 0.00 | 0.00 | 88 | 1016.9 |
| 20260831100825 | 78 | 360 | 2.6 | 7.0 | 0.00 | 0.00 | 0.00 | 88 | 1016.8 |
| 20260831100727 | 78 | 360 | 2.6 | 7.0 | 0.00 | 0.00 | 0.00 | 88 | 1016.9 |
| 20260831100630 | 78 | 360 | 2.6 | 7.0 | 0.00 | 0.00 | 0.00 | 88 | 1016.9 |
| 20260831100531 | 78 | 360 | 2.6 | 7.0 | 0.00 | 0.00 | 0.00 | 88 | 1016.9 |
| 20260831100432 | 78 | 360 | 2.6 | 7.0 | 0.00 | 0.00 | 0.00 | 88 | 1016.9 |
| 20260831100353 | 78 | 360 | 3.5 | 7.0 | 0.00 | 0.00 | 0.00 | 88 | 1016.9 |
| 20260831100252 | 78 | 360 | 3.5 | 7.0 | 0.00 | 0.00 | 0.00 | 88 | 1017.0 |
| 20260831100130 | 78 | 360 | 3.5 | 7.0 | 0.00 | 0.00 | 0.00 | 88 | 1016.9 |
| 20260831100050 | 78 | 360 | 3.5 | 7.0 | 0.00 | 0.00 | 0.00 | 88 | 1017.0 |
| 20260831095950 | 78 | 360 | 3.5 | 7.0 | 0.00 | 0.00 | 0.00 | 88 | 1016.9 |
| 20260831095832 | 78 | 360 | 3.5 | 7.0 | 0.00 | 0.00 | 0.00 | 88 | 1016.9 |
| 20260831095734 | 78 | 360 | 2.6 | 9.6 | 0.00 | 0.00 | 0.00 | 88 | 1016.9 |
| 20260831095635 | 78 | 161 | 1.7 | 9.6 | 0.00 | 0.00 | 0.00 | 88 | 1016.9 |
| 20260831095534 | 78 | 360 | 1.7 | 9.6 | 0.00 | 0.00 | 0.00 | 88 | 1016.9 |
| 20260831095455 | 78 | 198 | 1.7 | 9.6 | 0.00 | 0.00 | 0.00 | 88 | 1016.8 |
| 20260831095355 | 78 | 360 | 1.7 | 9.6 | 0.00 | 0.00 | 0.00 | 88 | 1016.9 |
| 20260831095235 | 78 | 360 | 2.6 | 9.6 | 0.00 | 0.00 | 0.00 | 88 | 1016.9 |
| 20260831095134 | 78 | 360 | 3.5 | 9.6 | 0.00 | 0.00 | 0.00 | 88 | 1016.9 |
| 20260831095019 | 78 | 360 | 3.5 | 9.6 | 0.00 | 0.00 | 0.00 | 88 | 1016.9 |
| 20260831094920 | 78 | 360 | 3.5 | 9.6 | 0.00 | 0.00 | 0.00 | 88 | 1016.9 |
| 20260831094821 | 78 | 360 | 3.5 | 8.7 | 0.00 | 0.00 | 0.00 | 88 | 1016.9 |
| 20260831094721 | 78 | 360 | 3.5 | 8.7 | 0.00 | 0.00 | 0.00 | 88 | 1016.9 |
| 20260831094643 | 78 | 360 | 3.5 | 8.7 | 0.00 | 0.00 | 0.00 | 88 | 1016.8 |
| 20260831094516 | 78 | 360 | 3.5 | 8.7 | 0.00 | 0.00 | 0.00 | 87 | 1016.9 |
| 20260831094437 | 78 | 360 | 2.6 | 7.8 | 0.00 | 0.00 | 0.00 | 87 | 1016.9 |
| 20260831094321 | 78 | 360 | 2.6 | 7.8 | 0.00 | 0.00 | 0.00 | 87 | 1016.9 |
| 20260831094221 | 78 | 360 | 2.6 | 7.8 | 0.00 | 0.00 | 0.00 | 87 | 1016.8 |
| 20260831094122 | 78 | 360 | 2.6 | 7.8 | 0.00 | 0.00 | 0.00 | 87 | 1016.8 |
| 20260831094023 | 78 | 360 | 2.6 | 7.8 | 0.00 | 0.00 | 0.00 | 87 | 1016.8 |
| 20260831093923 | 78 | 360 | 2.6 | 7.8 | 0.00 | 0.00 | 0.00 | 87 | 1016.8 |
| 20260831093824 | 78 | 360 | 2.6 | 7.8 | 0.00 | 0.00 | 0.00 | 87 | 1016.7 |
| 20260831093725 | 78 | 360 | 2.6 | 7.0 | 0.00 | 0.00 | 0.00 | 87 | 1016.7 |
| 20260831093629 | 78 | 360 | 2.6 | 8.7 | 0.00 | 0.00 | 0.00 | 87 | 1016.7 |
| 20260831093531 | 78 | 360 | 2.6 | 8.7 | 0.00 | 0.00 | 0.00 | 87 | 1016.7 |
| 20260831093432 | 78 | 360 | 3.5 | 8.7 | 0.00 | 0.00 | 0.00 | 87 | 1016.7 |
| 20260831093333 | 78 | 360 | 3.5 | 8.7 | 0.00 | 0.00 | 0.00 | 87 | 1016.8 |
| 20260831093235 | 78 | 360 | 2.6 | 8.7 | 0.00 | 0.00 | 0.00 | 87 | 1016.7 |
| 20260831093135 | 78 | 360 | 1.7 | 8.7 | 0.00 | 0.00 | 0.00 | 87 | 1016.8 |
| 20260831093019 | 78 | 360 | 2.6 | 8.7 | 0.00 | 0.00 | 0.00 | 87 | 1016.8 |
| 20260831092940 | 78 | 360 | 2.6 | 8.7 | 0.00 | 0.00 | 0.00 | 87 | 1016.7 |
| 20260831092840 | 78 | 360 | 2.6 | 8.7 | 0.00 | 0.00 | 0.00 | 87 | 1016.7 |
| 20260831092719 | 78 | 360 | 3.5 | 8.7 | 0.00 | 0.00 | 0.00 | 87 | 1016.7 |
| 20260831092640 | 78 | 360 | 2.6 | 10.4 | 0.00 | 0.00 | 0.00 | 87 | 1016.7 |
| 20260831092520 | 78 | 360 | 2.6 | 10.4 | 0.00 | 0.00 | 0.00 | 87 | 1016.7 |
| 20260831092420 | 78 | 360 | 2.6 | 10.4 | 0.00 | 0.00 | 0.00 | 87 | 1016.7 |
| 20260831092320 | 78 | 360 | 3.5 | 10.4 | 0.00 | 0.00 | 0.00 | 87 | 1016.7 |
| 20260831092222 | 78 | 360 | 3.5 | 10.4 | 0.00 | 0.00 | 0.00 | 87 | 1016.7 |
| 20260831092123 | 78 | 360 | 4.3 | 11.3 | 0.00 | 0.00 | 0.00 | 87 | 1016.6 |
| 20260831092043 | 78 | 360 | 4.3 | 11.3 | 0.00 | 0.00 | 0.00 | 87 | 1016.7 |
| 20260831091923 | 78 | 360 | 4.3 | 11.3 | 0.00 | 0.00 | 0.00 | 87 | 1016.7 |
| 20260831091823 | 78 | 360 | 3.5 | 11.3 | 0.00 | 0.00 | 0.00 | 87 | 1016.7 |
| 20260831091724 | 78 | 360 | 2.6 | 11.3 | 0.00 | 0.00 | 0.00 | 87 | 1016.6 |
| 20260831091624 | 78 | 360 | 1.7 | 11.3 | 0.00 | 0.00 | 0.00 | 87 | 1016.6 |
| 20260831091529 | 78 | 360 | 3.5 | 11.3 | 0.00 | 0.00 | 0.00 | 87 | 1016.6 |
| 20260831091431 | 78 | 360 | 3.5 | 11.3 | 0.00 | 0.00 | 0.00 | 87 | 1016.6 |
| 20260831091331 | 78 | 360 | 4.3 | 11.3 | 0.00 | 0.00 | 0.00 | 87 | 1016.6 |
| 20260831091231 | 78 | 360 | 5.2 | 11.3 | 0.00 | 0.00 | 0.00 | 87 | 1016.6 |
| 20260831091132 | 78 | 360 | 4.3 | 11.3 | 0.00 | 0.00 | 0.00 | 87 | 1016.7 |
| 20260831091033 | 78 | 360 | 4.3 | 11.3 | 0.00 | 0.00 | 0.00 | 87 | 1016.6 |
| 20260831090918 | 78 | 360 | 2.6 | 9.6 | 0.00 | 0.00 | 0.00 | 87 | 1016.5 |
| 20260831090818 | 78 | 360 | 2.6 | 9.6 | 0.00 | 0.00 | 0.00 | 87 | 1016.6 |
| 20260831090718 | 78 | 360 | 3.5 | 9.6 | 0.00 | 0.00 | 0.00 | 87 | 1016.6 |
| 20260831090618 | 78 | 360 | 3.5 | 9.6 | 0.00 | 0.00 | 0.00 | 87 | 1016.6 |
| 20260831090519 | 78 | 360 | 4.3 | 10.4 | 0.00 | 0.00 | 0.00 | 87 | 1016.6 |
| 20260831090439 | 78 | 360 | 3.5 | 10.4 | 0.00 | 0.00 | 0.00 | 87 | 1016.6 |
| 20260831090318 | 78 | 360 | 3.5 | 10.4 | 0.00 | 0.00 | 0.00 | 86 | 1016.6 |
| 20260831090243 | 78 | 360 | 3.5 | 10.4 | 0.00 | 0.00 | 0.00 | 86 | 1016.7 |
| 20260831090142 | 78 | 360 | 3.5 | 10.4 | 0.00 | 0.00 | 0.00 | 86 | 1016.6 |
| 20260831090022 | 78 | 360 | 3.5 | 10.4 | 0.00 | 0.00 | 0.00 | 86 | 1016.7 |
| 20260831085923 | 78 | 360 | 3.5 | 10.4 | 0.00 | 0.00 | 0.00 | 86 | 1016.7 |
| 20260831085824 | 78 | 360 | 3.5 | 10.4 | 0.00 | 0.00 | 0.00 | 86 | 1016.6 |
| 20260831085723 | 78 | 360 | 5.2 | 10.4 | 0.00 | 0.00 | 0.00 | 86 | 1016.7 |
| 20260831085624 | 78 | 360 | 5.2 | 10.4 | 0.00 | 0.00 | 0.00 | 86 | 1016.7 |
| 20260831085529 | 78 | 360 | 4.3 | 10.4 | 0.00 | 0.00 | 0.00 | 86 | 1016.7 |
| 20260831085430 | 78 | 360 | 4.3 | 10.4 | 0.00 | 0.00 | 0.00 | 86 | 1016.7 |
| 20260831085350 | 78 | 360 | 4.3 | 10.4 | 0.00 | 0.00 | 0.00 | 86 | 1016.7 |
| 20260831085229 | 78 | 360 | 4.3 | 10.4 | 0.00 | 0.00 | 0.00 | 86 | 1016.7 |
| 20260831085129 | 78 | 360 | 6.1 | 10.4 | 0.00 | 0.00 | 0.00 | 86 | 1016.7 |
| 20260831085050 | 78 | 360 | 5.2 | 11.3 | 0.00 | 0.00 | 0.00 | 86 | 1016.7 |
| 20260831084930 | 78 | 360 | 5.2 | 11.3 | 0.00 | 0.00 | 0.00 | 86 | 1016.7 |
| 20260831084831 | 78 | 360 | 4.3 | 11.3 | 0.00 | 0.00 | 0.00 | 86 | 1016.8 |
| 20260831084716 | 78 | 360 | 4.3 | 11.3 | 0.00 | 0.00 | 0.00 | 86 | 1016.8 |
| 20260831084616 | 78 | 360 | 3.5 | 11.3 | 0.00 | 0.00 | 0.00 | 86 | 1016.8 |
| 20260831084517 | 78 | 360 | 4.3 | 11.3 | 0.00 | 0.00 | 0.00 | 86 | 1016.7 |
| 20260831084418 | 78 | 360 | 4.3 | 11.3 | 0.00 | 0.00 | 0.00 | 86 | 1016.8 |
| 20260831084317 | 78 | 360 | 4.3 | 11.3 | 0.00 | 0.00 | 0.00 | 86 | 1016.8 |
| 20260831084217 | 78 | 360 | 4.3 | 10.4 | 0.00 | 0.00 | 0.00 | 86 | 1016.7 |
| 20260831084122 | 78 | 360 | 4.3 | 10.4 | 0.00 | 0.00 | 0.00 | 86 | 1016.7 |
| 20260831084023 | 78 | 360 | 4.3 | 10.4 | 0.00 | 0.00 | 0.00 | 86 | 1016.7 |
| 20260831083944 | 78 | 360 | 5.2 | 10.4 | 0.00 | 0.00 | 0.00 | 86 | 1016.8 |
| 20260831083823 | 78 | 360 | 4.3 | 10.4 | 0.00 | 0.00 | 0.00 | 85 | 1016.7 |
| 20260831083723 | 78 | 360 | 4.3 | 10.4 | 0.00 | 0.00 | 0.00 | 85 | 1016.8 |
| 20260831083623 | 78 | 360 | 4.3 | 9.6 | 0.00 | 0.00 | 0.00 | 85 | 1016.7 |
| 20260831083544 | 78 | 360 | 5.2 | 10.4 | 0.00 | 0.00 | 0.00 | 85 | 1016.7 |
| 20260831083423 | 78 | 360 | 5.2 | 10.4 | 0.00 | 0.00 | 0.00 | 85 | 1016.8 |
| 20260831083328 | 78 | 360 | 6.1 | 11.3 | 0.00 | 0.00 | 0.00 | 85 | 1016.8 |
| 20260831083229 | 78 | 360 | 5.2 | 11.3 | 0.00 | 0.00 | 0.00 | 85 | 1016.8 |
| 20260831083130 | 78 | 360 | 4.3 | 11.3 | 0.00 | 0.00 | 0.00 | 85 | 1016.9 |
| 20260831083051 | 78 | 360 | 4.3 | 11.3 | 0.00 | 0.00 | 0.00 | 85 | 1016.8 |
| 20260831082929 | 78 | 360 | 5.2 | 11.3 | 0.00 | 0.00 | 0.00 | 85 | 1016.9 |
| 20260831082832 | 78 | 360 | 6.1 | 11.3 | 0.00 | 0.00 | 0.00 | 85 | 1016.8 |
| 20260831082751 | 79 | 360 | 7.0 | 11.3 | 0.00 | 0.00 | 0.00 | 85 | 1016.9 |
| 20260831082631 | 78 | 360 | 7.0 | 11.3 | 0.00 | 0.00 | 0.00 | 85 | 1016.8 |
| 20260831082536 | 78 | 360 | 7.0 | 11.3 | 0.00 | 0.00 | 0.00 | 85 | 1016.9 |
| 20260831082456 | 79 | 360 | 6.1 | 9.6 | 0.00 | 0.00 | 0.00 | 85 | 1016.9 |
| 20260831082355 | 79 | 360 | 5.2 | 9.6 | 0.00 | 0.00 | 0.00 | 85 | 1016.9 |
| 20260831082255 | 79 | 360 | 5.2 | 9.6 | 0.00 | 0.00 | 0.00 | 85 | 1016.9 |
| 20260831082135 | 78 | 360 | 4.3 | 9.6 | 0.00 | 0.00 | 0.00 | 85 | 1016.9 |
| 20260831082036 | 79 | 360 | 3.5 | 10.4 | 0.00 | 0.00 | 0.00 | 85 | 1016.9 |
| 20260831081935 | 78 | 360 | 3.5 | 10.4 | 0.00 | 0.00 | 0.00 | 85 | 1017.0 |
| 20260831081835 | 78 | 360 | 3.5 | 10.4 | 0.00 | 0.00 | 0.00 | 84 | 1016.9 |
| 20260831081720 | 78 | 360 | 4.3 | 10.4 | 0.00 | 0.00 | 0.00 | 84 | 1017.0 |
| 20260831081620 | 78 | 360 | 4.3 | 10.4 | 0.00 | 0.00 | 0.00 | 84 | 1016.9 |
| 20260831081542 | 78 | 360 | 3.5 | 10.4 | 0.00 | 0.00 | 0.00 | 84 | 1017.1 |
| 20260831081416 | 78 | 360 | 3.5 | 10.4 | 0.00 | 0.00 | 0.00 | 84 | 1016.9 |
| 20260831081317 | 78 | 360 | 3.5 | 10.4 | 0.00 | 0.00 | 0.00 | 84 | 1017.0 |
| 20260831081238 | 78 | 360 | 3.5 | 10.4 | 0.00 | 0.00 | 0.00 | 84 | 1016.9 |
| 20260831081117 | 78 | 360 | 3.5 | 10.4 | 0.00 | 0.00 | 0.00 | 84 | 1016.9 |
| 20260831081021 | 78 | 360 | 3.5 | 8.7 | 0.00 | 0.00 | 0.00 | 84 | 1016.8 |
| 20260831080922 | 78 | 360 | 4.3 | 8.7 | 0.00 | 0.00 | 0.00 | 84 | 1016.9 |
| 20260831080822 | 78 | 360 | 4.3 | 8.7 | 0.00 | 0.00 | 0.00 | 84 | 1016.9 |
| 20260831080723 | 78 | 360 | 4.3 | 7.8 | 0.00 | 0.00 | 0.00 | 84 | 1016.9 |
| 20260831080623 | 78 | 360 | 3.5 | 7.8 | 0.00 | 0.00 | 0.00 | 84 | 1016.9 |
| 20260831080523 | 78 | 360 | 3.5 | 7.8 | 0.00 | 0.00 | 0.00 | 84 | 1016.9 |
| 20260831080428 | 78 | 360 | 3.5 | 7.8 | 0.00 | 0.00 | 0.00 | 84 | 1016.8 |
| 20260831080348 | 78 | 360 | 3.5 | 7.8 | 0.00 | 0.00 | 0.00 | 84 | 1016.9 |
| 20260831080227 | 78 | 180 | 4.3 | 8.7 | 0.00 | 0.00 | 0.00 | 84 | 1016.9 |
| 20260831080128 | 78 | 360 | 4.3 | 8.7 | 0.00 | 0.00 | 0.00 | 84 | 1016.9 |
| 20260831080029 | 78 | 360 | 4.3 | 8.7 | 0.00 | 0.00 | 0.00 | 84 | 1016.8 |
| 20260831075927 | 78 | 360 | 4.3 | 8.7 | 0.00 | 0.00 | 0.00 | 84 | 1016.8 |
| 20260831075829 | 79 | 360 | 3.5 | 8.7 | 0.00 | 0.00 | 0.00 | 84 | 1016.9 |
| 20260831075728 | 79 | 360 | 3.5 | 8.7 | 0.00 | 0.00 | 0.00 | 84 | 1016.9 |
| 20260831075632 | 79 | 360 | 4.3 | 8.7 | 0.00 | 0.00 | 0.00 | 83 | 1016.8 |
| 20260831075552 | 79 | 360 | 3.5 | 8.7 | 0.00 | 0.00 | 0.00 | 83 | 1016.8 |
| 20260831075430 | 79 | 360 | 3.5 | 8.7 | 0.00 | 0.00 | 0.00 | 83 | 1016.8 |
| 20260831075328 | 79 | 360 | 4.3 | 8.7 | 0.00 | 0.00 | 0.00 | 83 | 1016.8 |
| 20260831075229 | 79 | 360 | 2.6 | 8.7 | 0.00 | 0.00 | 0.00 | 83 | 1016.8 |
| 20260831075130 | 79 | 183 | 2.6 | 8.7 | 0.00 | 0.00 | 0.00 | 83 | 1016.8 |
| 20260831075030 | 79 | 360 | 2.6 | 8.7 | 0.00 | 0.00 | 0.00 | 83 | 1016.9 |
| 20260831074932 | 79 | 360 | 2.6 | 8.7 | 0.00 | 0.00 | 0.00 | 83 | 1016.9 |
| 20260831074837 | 79 | 188 | 3.5 | 9.6 | 0.00 | 0.00 | 0.00 | 83 | 1016.9 |
| 20260831074735 | 79 | 360 | 4.3 | 9.6 | 0.00 | 0.00 | 0.00 | 83 | 1016.8 |
| 20260831074633 | 79 | 360 | 4.3 | 9.6 | 0.00 | 0.00 | 0.00 | 83 | 1016.9 |
| 20260831074533 | 79 | 360 | 5.2 | 9.6 | 0.00 | 0.00 | 0.00 | 83 | 1016.8 |
| 20260831074433 | 79 | 360 | 4.3 | 9.6 | 0.00 | 0.00 | 0.00 | 83 | 1016.9 |
| 20260831074335 | 79 | 360 | 4.3 | 9.6 | 0.00 | 0.00 | 0.00 | 83 | 1016.9 |
| 20260831074234 | 79 | 360 | 4.3 | 9.6 | 0.00 | 0.00 | 0.00 | 83 | 1016.8 |
| 20260831074120 | 79 | 360 | 5.2 | 9.6 | 0.00 | 0.00 | 0.00 | 82 | 1016.8 |
| 20260831074021 | 79 | 360 | 5.2 | 9.6 | 0.00 | 0.00 | 0.00 | 82 | 1016.7 |
| 20260831073943 | 79 | 360 | 5.2 | 9.6 | 0.00 | 0.00 | 0.00 | 82 | 1016.8 |
| 20260831073822 | 79 | 360 | 6.1 | 9.6 | 0.00 | 0.00 | 0.00 | 82 | 1016.8 |
| 20260831073723 | 79 | 360 | 4.3 | 8.7 | 0.00 | 0.00 | 0.00 | 82 | 1016.9 |
| 20260831073644 | 79 | 360 | 4.3 | 8.7 | 0.00 | 0.00 | 0.00 | 82 | 1016.8 |
| 20260831073523 | 79 | 360 | 5.2 | 8.7 | 0.00 | 0.00 | 0.00 | 82 | 1016.8 |
| 20260831073424 | 79 | 360 | 5.2 | 8.7 | 0.00 | 0.00 | 0.00 | 82 | 1016.9 |
| 20260831073329 | 79 | 360 | 5.2 | 8.7 | 0.00 | 0.00 | 0.00 | 82 | 1016.9 |
| 20260831073250 | 79 | 360 | 4.3 | 8.7 | 0.00 | 0.00 | 0.00 | 82 | 1016.9 |
| 20260831073130 | 79 | 360 | 3.5 | 8.7 | 0.00 | 0.00 | 0.00 | 82 | 1017.0 |
| 20260831073030 | 79 | 360 | 3.5 | 8.7 | 0.00 | 0.00 | 0.00 | 82 | 1016.9 |
| 20260831072951 | 79 | 360 | 3.5 | 8.7 | 0.00 | 0.00 | 0.00 | 82 | 1016.9 |
| 20260831072832 | 79 | 360 | 3.5 | 8.7 | 0.00 | 0.00 | 0.00 | 82 | 1016.9 |
| 20260831072752 | 79 | 360 | 4.3 | 8.7 | 0.00 | 0.00 | 0.00 | 81 | 1016.9 |
| 20260831072616 | 79 | 360 | 3.5 | 7.8 | 0.00 | 0.00 | 0.00 | 81 | 1016.9 |
| 20260831072517 | 79 | 360 | 3.5 | 7.8 | 0.00 | 0.00 | 0.00 | 81 | 1016.9 |
| 20260831072419 | 79 | 360 | 3.5 | 7.8 | 0.00 | 0.00 | 0.00 | 82 | 1016.9 |
| 20260831072319 | 79 | 360 | 2.6 | 7.8 | 0.00 | 0.00 | 0.00 | 82 | 1016.9 |
| 20260831072240 | 79 | 360 | 3.5 | 7.8 | 0.00 | 0.00 | 0.00 | 82 | 1016.9 |
| 20260831072140 | 79 | 360 | 3.5 | 7.0 | 0.00 | 0.00 | 0.00 | 81 | 1016.9 |
| 20260831072020 | 79 | 360 | 3.5 | 5.2 | 0.00 | 0.00 | 0.00 | 81 | 1016.9 |
| 20260831071940 | 79 | 360 | 3.5 | 8.7 | 0.00 | 0.00 | 0.00 | 81 | 1016.9 |
| 20260831071824 | 79 | 360 | 3.5 | 8.7 | 0.00 | 0.00 | 0.00 | 81 | 1017.0 |
| 20260831071723 | 79 | 360 | 3.5 | 8.7 | 0.00 | 0.00 | 0.00 | 81 | 1016.9 |
| 20260831071624 | 79 | 360 | 2.6 | 8.7 | 0.00 | 0.00 | 0.00 | 81 | 1016.9 |
| 20260831071525 | 80 | 360 | 2.6 | 8.7 | 0.00 | 0.00 | 0.00 | 81 | 1016.9 |
| 20260831071427 | 80 | 360 | 2.6 | 8.7 | 0.00 | 0.00 | 0.00 | 81 | 1016.9 |
| 20260831071348 | 80 | 360 | 1.7 | 11.3 | 0.00 | 0.00 | 0.00 | 81 | 1016.8 |
| 20260831071308 | 80 | 360 | 2.6 | 11.3 | 0.00 | 0.00 | 0.00 | 80 | 1016.8 |
| 20260831071022 | 80 | 360 | 4.3 | 11.3 | 0.00 | 0.00 | 0.00 | 80 | 1016.8 |
| 20260831070924 | 80 | 360 | 4.3 | 11.3 | 0.00 | 0.00 | 0.00 | 80 | 1016.8 |
| 20260831070826 | 80 | 360 | 5.2 | 11.3 | 0.00 | 0.00 | 0.00 | 80 | 1016.8 |
| 20260831070747 | 80 | 360 | 5.2 | 11.3 | 0.00 | 0.00 | 0.00 | 80 | 1016.8 |
| 20260831070627 | 80 | 360 | 5.2 | 11.3 | 0.00 | 0.00 | 0.00 | 80 | 1016.8 |
| 20260831070527 | 80 | 360 | 5.2 | 11.3 | 0.00 | 0.00 | 0.00 | 80 | 1016.9 |
| 20260831070428 | 80 | 360 | 5.2 | 11.3 | 0.00 | 0.00 | 0.00 | 80 | 1016.9 |
| 20260831070333 | 80 | 360 | 4.3 | 11.3 | 0.00 | 0.00 | 0.00 | 80 | 1016.9 |
| 20260831070234 | 80 | 360 | 4.3 | 11.3 | 0.00 | 0.00 | 0.00 | 80 | 1016.9 |
| 20260831070133 | 80 | 360 | 5.2 | 11.3 | 0.00 | 0.00 | 0.00 | 80 | 1016.9 |
| 20260831070034 | 80 | 185 | 5.2 | 11.3 | 0.00 | 0.00 | 0.00 | 80 | 1016.9 |
| 20260831065935 | 80 | 360 | 6.1 | 11.3 | 0.00 | 0.00 | 0.00 | 80 | 1016.9 |
| 20260831065817 | 80 | 360 | 5.2 | 9.6 | 0.00 | 0.00 | 0.00 | 79 | 1017.0 |
| 20260831065717 | 80 | 360 | 5.2 | 9.6 | 0.00 | 0.00 | 0.00 | 79 | 1017.0 |
| 20260831065642 | 80 | 360 | 5.2 | 9.6 | 0.00 | 0.00 | 0.00 | 79 | 1016.9 |
| 20260831065516 | 80 | 360 | 5.2 | 14.8 | 0.00 | 0.00 | 0.00 | 79 | 1016.9 |
| 20260831065416 | 80 | 360 | 5.2 | 14.8 | 0.00 | 0.00 | 0.00 | 79 | 1016.9 |
| 20260831065317 | 80 | 360 | 4.3 | 14.8 | 0.00 | 0.00 | 0.00 | 79 | 1017.0 |
| 20260831065218 | 80 | 360 | 3.5 | 14.8 | 0.00 | 0.00 | 0.00 | 79 | 1016.9 |
| 20260831065118 | 80 | 360 | 3.5 | 14.8 | 0.00 | 0.00 | 0.00 | 79 | 1017.0 |
| 20260831065040 | 80 | 360 | 3.5 | 14.8 | 0.00 | 0.00 | 0.00 | 79 | 1016.9 |
| 20260831064923 | 80 | 360 | 5.2 | 14.8 | 0.00 | 0.00 | 0.00 | 79 | 1016.9 |
| 20260831064824 | 80 | 360 | 5.2 | 14.8 | 0.00 | 0.00 | 0.00 | 79 | 1016.9 |
| 20260831064725 | 80 | 360 | 6.1 | 14.8 | 0.00 | 0.00 | 0.00 | 79 | 1016.9 |
| 20260831064645 | 80 | 360 | 5.2 | 13.0 | 0.00 | 0.00 | 0.00 | 78 | 1017.0 |
| 20260831064525 | 80 | 360 | 5.2 | 13.0 | 0.00 | 0.00 | 0.00 | 78 | 1016.9 |
| 20260831064447 | 80 | 360 | 4.3 | 13.0 | 0.00 | 0.00 | 0.00 | 78 | 1016.9 |
| 20260831064325 | 80 | 360 | 4.3 | 13.0 | 0.00 | 0.00 | 0.00 | 78 | 1017.0 |
| 20260831064230 | 81 | 360 | 4.3 | 13.0 | 0.00 | 0.00 | 0.00 | 78 | 1016.9 |
| 20260831064131 | 81 | 360 | 6.1 | 13.0 | 0.00 | 0.00 | 0.00 | 78 | 1016.9 |
| 20260831064031 | 81 | 360 | 7.0 | 13.0 | 0.00 | 0.00 | 0.00 | 78 | 1016.9 |
| 20260831063931 | 81 | 360 | 7.8 | 13.0 | 0.00 | 0.00 | 0.00 | 78 | 1016.9 |
| 20260831063852 | 81 | 360 | 7.8 | 13.9 | 0.00 | 0.00 | 0.00 | 78 | 1016.9 |
| 20260831063753 | 81 | 360 | 7.0 | 13.9 | 0.00 | 0.00 | 0.00 | 78 | 1017.0 |
| 20260831063633 | 81 | 360 | 6.1 | 13.9 | 0.00 | 0.00 | 0.00 | 78 | 1017.0 |
| 20260831063533 | 81 | 360 | 7.0 | 13.9 | 0.00 | 0.00 | 0.00 | 78 | 1017.0 |
| 20260831063453 | 81 | 360 | 7.8 | 13.9 | 0.00 | 0.00 | 0.00 | 77 | 1017.0 |
| 20260831063333 | 81 | 360 | 9.6 | 13.9 | 0.00 | 0.00 | 0.00 | 77 | 1017.0 |
| 20260831063232 | 81 | 360 | 8.7 | 13.9 | 0.00 | 0.00 | 0.00 | 77 | 1017.0 |
| 20260831063153 | 81 | 360 | 7.0 | 13.9 | 0.00 | 0.00 | 0.00 | 77 | 1017.0 |
| 20260831063032 | 81 | 360 | 5.2 | 13.9 | 0.00 | 0.00 | 0.00 | 77 | 1017.1 |
| 20260831062933 | 81 | 360 | 6.1 | 13.0 | 0.00 | 0.00 | 0.00 | 77 | 1017.1 |
| 20260831062834 | 81 | 360 | 6.1 | 13.0 | 0.00 | 0.00 | 0.00 | 77 | 1017.0 |
| 20260831062717 | 81 | 360 | 7.0 | 13.0 | 0.00 | 0.00 | 0.00 | 77 | 1017.1 |
| 20260831062618 | 81 | 360 | 7.0 | 12.2 | 0.00 | 0.00 | 0.00 | 77 | 1017.0 |
| 20260831062538 | 81 | 360 | 7.0 | 12.2 | 0.00 | 0.00 | 0.00 | 77 | 1017.1 |
| 20260831062438 | 81 | 360 | 7.0 | 12.2 | 0.00 | 0.00 | 0.00 | 77 | 1017.0 |
| 20260831062338 | 81 | 360 | 6.1 | 11.3 | 0.00 | 0.00 | 0.00 | 76 | 1017.1 |
| 20260831062216 | 81 | 360 | 5.2 | 16.5 | 0.00 | 0.00 | 0.00 | 76 | 1017.0 |
| 20260831062117 | 81 | 360 | 4.3 | 16.5 | 0.00 | 0.00 | 0.00 | 76 | 1017.0 |
| 20260831062016 | 81 | 360 | 4.3 | 16.5 | 0.00 | 0.00 | 0.00 | 76 | 1016.9 |
| 20260831061937 | 81 | 360 | 4.3 | 16.5 | 0.00 | 0.00 | 0.00 | 76 | 1017.0 |
| 20260831061820 | 81 | 360 | 4.3 | 16.5 | 0.00 | 0.00 | 0.00 | 76 | 1016.9 |
| 20260831061721 | 81 | 360 | 5.2 | 16.5 | 0.00 | 0.00 | 0.00 | 76 | 1016.9 |
| 20260831061620 | 81 | 360 | 6.1 | 16.5 | 0.00 | 0.00 | 0.00 | 76 | 1017.0 |
| 20260831061521 | 81 | 360 | 7.8 | 16.5 | 0.00 | 0.00 | 0.00 | 76 | 1016.9 |
| 20260831061422 | 81 | 360 | 7.0 | 16.5 | 0.00 | 0.00 | 0.00 | 76 | 1016.8 |
| 20260831061343 | 81 | 360 | 6.1 | 16.5 | 0.00 | 0.00 | 0.00 | 76 | 1016.8 |
| 20260831061221 | 81 | 360 | 3.5 | 11.3 | 0.00 | 0.00 | 0.00 | 76 | 1016.9 |
| 20260831061125 | 81 | 360 | 3.5 | 12.2 | 0.00 | 0.00 | 0.00 | 75 | 1016.9 |
| 20260831061025 | 81 | 360 | 4.3 | 12.2 | 0.00 | 0.00 | 0.00 | 75 | 1016.8 |
| 20260831060926 | 82 | 360 | 5.2 | 12.2 | 0.00 | 0.00 | 0.00 | 75 | 1016.8 |
| 20260831060846 | 82 | 360 | 5.2 | 12.2 | 0.00 | 0.00 | 0.00 | 76 | 1016.8 |
| 20260831060726 | 82 | 360 | 6.1 | 12.2 | 0.00 | 0.00 | 0.00 | 75 | 1016.8 |
| 20260831060626 | 82 | 360 | 6.1 | 12.2 | 0.00 | 0.00 | 0.00 | 75 | 1016.8 |
| 20260831060527 | 82 | 360 | 6.1 | 12.2 | 0.00 | 0.00 | 0.00 | 75 | 1016.7 |
| 20260831060430 | 82 | 360 | 6.1 | 12.2 | 0.00 | 0.00 | 0.00 | 75 | 1016.8 |
| 20260831060331 | 82 | 360 | 6.1 | 12.2 | 0.00 | 0.00 | 0.00 | 75 | 1016.8 |
| 20260831060230 | 82 | 360 | 5.2 | 11.3 | 0.00 | 0.00 | 0.00 | 76 | 1016.8 |
| 20260831060151 | 82 | 360 | 4.3 | 11.3 | 0.00 | 0.00 | 0.00 | 76 | 1016.8 |
| 20260831060030 | 82 | 360 | 3.5 | 11.3 | 0.00 | 0.00 | 0.00 | 76 | 1016.8 |
| 20260831055931 | 82 | 360 | 4.3 | 12.2 | 0.00 | 0.00 | 0.00 | 76 | 1016.8 |
| 20260831055832 | 82 | 360 | 4.3 | 12.2 | 0.00 | 0.00 | 0.00 | 76 | 1016.8 |
| 20260831055732 | 82 | 360 | 4.3 | 12.2 | 0.00 | 0.00 | 0.00 | 75 | 1016.8 |
| 20260831055634 | 82 | 360 | 5.2 | 12.2 | 0.00 | 0.00 | 0.00 | 75 | 1016.8 |
| 20260831055555 | 82 | 360 | 5.2 | 12.2 | 0.00 | 0.00 | 0.00 | 75 | 1016.8 |
| 20260831055435 | 82 | 360 | 7.0 | 12.2 | 0.00 | 0.00 | 0.00 | 75 | 1016.8 |
| 20260831055356 | 82 | 360 | 7.0 | 12.2 | 0.00 | 0.00 | 0.00 | 75 | 1016.8 |
| 20260831055235 | 82 | 360 | 7.8 | 12.2 | 0.00 | 0.00 | 0.00 | 75 | 1016.7 |
| 20260831055116 | 82 | 360 | 7.0 | 11.3 | 0.00 | 0.00 | 0.00 | 75 | 1016.7 |
| 20260831055016 | 82 | 360 | 7.8 | 11.3 | 0.00 | 0.00 | 0.00 | 75 | 1016.7 |
| 20260831054921 | 82 | 360 | 7.8 | 11.3 | 0.00 | 0.00 | 0.00 | 75 | 1016.7 |
| 20260831054822 | 82 | 360 | 7.0 | 12.2 | 0.00 | 0.00 | 0.00 | 75 | 1016.7 |
| 20260831054722 | 82 | 360 | 6.1 | 11.3 | 0.00 | 0.00 | 0.00 | 75 | 1016.7 |
| 20260831054623 | 82 | 360 | 5.2 | 14.8 | 0.00 | 0.00 | 0.00 | 75 | 1016.6 |
| 20260831054522 | 82 | 360 | 4.3 | 15.6 | 0.00 | 0.00 | 0.00 | 75 | 1016.7 |
| 20260831054423 | 82 | 360 | 3.5 | 15.6 | 0.00 | 0.00 | 0.00 | 75 | 1016.6 |
| 20260831054325 | 82 | 360 | 4.3 | 15.6 | 0.00 | 0.00 | 0.00 | 75 | 1016.6 |
| 20260831054230 | 82 | 360 | 5.2 | 15.6 | 0.00 | 0.00 | 0.00 | 75 | 1016.6 |
| 20260831054130 | 82 | 360 | 6.1 | 15.6 | 0.00 | 0.00 | 0.00 | 75 | 1016.6 |
| 20260831054050 | 83 | 360 | 7.0 | 15.6 | 0.00 | 0.00 | 0.00 | 75 | 1016.5 |
| 20260831053930 | 83 | 360 | 7.0 | 16.5 | 0.00 | 0.00 | 0.00 | 75 | 1016.6 |
| 20260831053831 | 83 | 360 | 7.8 | 16.5 | 0.00 | 0.00 | 0.00 | 75 | 1016.6 |
| 20260831053732 | 83 | 360 | 7.8 | 16.5 | 0.00 | 0.00 | 0.00 | 75 | 1016.6 |
| 20260831053632 | 83 | 360 | 7.8 | 16.5 | 0.00 | 0.00 | 0.00 | 74 | 1016.6 |
| 20260831053536 | 83 | 360 | 7.8 | 16.5 | 0.00 | 0.00 | 0.00 | 74 | 1016.6 |
| 20260831053456 | 83 | 360 | 7.8 | 16.5 | 0.00 | 0.00 | 0.00 | 74 | 1016.6 |
| 20260831053317 | 83 | 360 | 8.7 | 16.5 | 0.00 | 0.00 | 0.00 | 74 | 1016.5 |
| 20260831053218 | 83 | 360 | 9.6 | 16.5 | 0.00 | 0.00 | 0.00 | 74 | 1016.6 |
| 20260831053119 | 83 | 360 | 8.7 | 16.5 | 0.00 | 0.00 | 0.00 | 74 | 1016.6 |
| 20260831053019 | 83 | 360 | 7.8 | 16.5 | 0.00 | 0.00 | 0.00 | 74 | 1016.6 |
| 20260831052939 | 83 | 360 | 7.0 | 16.5 | 0.00 | 0.00 | 0.00 | 74 | 1016.5 |
| 20260831052843 | 83 | 360 | 6.1 | 12.2 | 0.00 | 0.00 | 0.00 | 74 | 1016.6 |
| 20260831052716 | 83 | 360 | 6.1 | 12.2 | 0.00 | 0.00 | 0.00 | 74 | 1016.5 |
| 20260831052616 | 83 | 360 | 5.2 | 11.3 | 0.00 | 0.00 | 0.00 | 74 | 1016.5 |
| 20260831052517 | 83 | 360 | 6.1 | 11.3 | 0.00 | 0.00 | 0.00 | 74 | 1016.5 |
| 20260831052417 | 83 | 360 | 5.2 | 11.3 | 0.00 | 0.00 | 0.00 | 74 | 1016.5 |
| 20260831052337 | 83 | 360 | 4.3 | 11.3 | 0.00 | 0.00 | 0.00 | 74 | 1016.5 |
| 20260831052237 | 83 | 360 | 4.3 | 12.2 | 0.00 | 0.00 | 0.00 | 74 | 1016.5 |
| 20260831052117 | 83 | 360 | 4.3 | 12.2 | 0.00 | 0.00 | 0.00 | 74 | 1016.5 |
| 20260831052020 | 83 | 360 | 5.2 | 12.2 | 0.00 | 0.00 | 0.00 | 74 | 1016.5 |
| 20260831051921 | 83 | 360 | 5.2 | 17.4 | 0.00 | 0.00 | 0.00 | 74 | 1016.5 |
| 20260831051822 | 83 | 360 | 5.2 | 17.4 | 0.00 | 0.00 | 0.00 | 74 | 1016.4 |
| 20260831051722 | 83 | 360 | 3.5 | 17.4 | 0.00 | 0.00 | 0.00 | 74 | 1016.4 |
| 20260831051623 | 83 | 360 | 4.3 | 17.4 | 0.00 | 0.00 | 0.00 | 74 | 1016.4 |
| 20260831051523 | 83 | 360 | 6.1 | 17.4 | 0.00 | 0.00 | 0.00 | 73 | 1016.4 |
| 20260831051424 | 84 | 360 | 7.0 | 17.4 | 0.00 | 0.00 | 0.00 | 73 | 1016.4 |
| 20260831051329 | 83 | 360 | 7.8 | 17.4 | 0.00 | 0.00 | 0.00 | 73 | 1016.3 |
| 20260831051230 | 84 | 360 | 8.7 | 17.4 | 0.00 | 0.00 | 0.00 | 73 | 1016.4 |
| 20260831051130 | 84 | 360 | 9.6 | 17.4 | 0.00 | 0.00 | 0.00 | 73 | 1016.4 |
| 20260831051030 | 84 | 360 | 9.6 | 15.6 | 0.00 | 0.00 | 0.00 | 73 | 1016.4 |
| 20260831050931 | 84 | 360 | 10.4 | 15.6 | 0.00 | 0.00 | 0.00 | 73 | 1016.4 |
| 20260831050832 | 84 | 360 | 9.6 | 13.9 | 0.00 | 0.00 | 0.00 | 73 | 1016.4 |
| 20260831050731 | 84 | 360 | 8.7 | 13.9 | 0.00 | 0.00 | 0.00 | 73 | 1016.4 |
| 20260831050636 | 84 | 360 | 8.7 | 13.9 | 0.00 | 0.00 | 0.00 | 73 | 1016.5 |
| 20260831050556 | 84 | 360 | 7.8 | 13.9 | 0.00 | 0.00 | 0.00 | 73 | 1016.4 |
| 20260831050435 | 84 | 360 | 7.8 | 13.9 | 0.00 | 0.00 | 0.00 | 73 | 1016.5 |
| 20260831050316 | 84 | 360 | 6.1 | 13.9 | 0.00 | 0.00 | 0.00 | 73 | 1016.5 |
| 20260831050216 | 84 | 360 | 6.1 | 13.9 | 0.00 | 0.00 | 0.00 | 73 | 1016.5 |
| 20260831050136 | 84 | 360 | 6.1 | 19.1 | 0.00 | 0.00 | 0.00 | 73 | 1016.5 |
| 20260831050057 | 84 | 360 | 7.0 | 19.1 | 0.00 | 0.00 | 0.00 | 73 | 1016.5 |
| 20260831045934 | 84 | 360 | 7.0 | 19.1 | 0.00 | 0.00 | 0.00 | 72 | 1016.5 |
| 20260831045836 | 84 | 360 | 7.8 | 19.1 | 0.00 | 0.00 | 0.00 | 72 | 1016.4 |
| 20260831045736 | 84 | 360 | 7.8 | 19.1 | 0.00 | 0.00 | 0.00 | 72 | 1016.4 |
| 20260831045616 | 84 | 360 | 7.8 | 19.1 | 0.00 | 0.00 | 0.00 | 72 | 1016.4 |
| 20260831045517 | 84 | 360 | 8.7 | 19.1 | 0.00 | 0.00 | 0.00 | 72 | 1016.4 |
| 20260831045419 | 84 | 360 | 8.7 | 19.1 | 0.00 | 0.00 | 0.00 | 72 | 1016.4 |
| 20260831045323 | 84 | 360 | 10.4 | 19.1 | 0.00 | 0.00 | 0.00 | 72 | 1016.4 |
| 20260831045224 | 84 | 360 | 9.6 | 17.4 | 0.00 | 0.00 | 0.00 | 72 | 1016.3 |
| 20260831045125 | 84 | 360 | 10.4 | 17.4 | 0.00 | 0.00 | 0.00 | 72 | 1016.4 |
| 20260831045025 | 84 | 360 | 9.6 | 17.4 | 0.00 | 0.00 | 0.00 | 72 | 1016.4 |
| 20260831044926 | 84 | 360 | 8.7 | 15.6 | 0.00 | 0.00 | 0.00 | 72 | 1016.4 |
| 20260831044847 | 84 | 360 | 7.8 | 15.6 | 0.00 | 0.00 | 0.00 | 72 | 1016.4 |
| 20260831044726 | 84 | 360 | 5.2 | 19.1 | 0.00 | 0.00 | 0.00 | 72 | 1016.3 |
| 20260831044632 | 84 | 360 | 6.1 | 19.1 | 0.00 | 0.00 | 0.00 | 71 | 1016.4 |
| 20260831044532 | 84 | 360 | 5.2 | 19.1 | 0.00 | 0.00 | 0.00 | 71 | 1016.4 |
| 20260831044433 | 84 | 360 | 7.0 | 19.1 | 0.00 | 0.00 | 0.00 | 71 | 1016.4 |
| 20260831044334 | 84 | 360 | 7.8 | 19.1 | 0.00 | 0.00 | 0.00 | 71 | 1016.5 |
| 20260831044235 | 84 | 360 | 9.6 | 19.1 | 0.00 | 0.00 | 0.00 | 71 | 1016.4 |
| 20260831044135 | 85 | 360 | 9.6 | 19.1 | 0.00 | 0.00 | 0.00 | 71 | 1016.4 |
| 20260831044035 | 85 | 360 | 9.6 | 19.1 | 0.00 | 0.00 | 0.00 | 70 | 1016.5 |
| 20260831043919 | 85 | 360 | 7.8 | 18.2 | 0.00 | 0.00 | 0.00 | 70 | 1016.4 |
| 20260831043821 | 85 | 360 | 6.1 | 12.2 | 0.00 | 0.00 | 0.00 | 70 | 1016.4 |
| 20260831043722 | 85 | 360 | 6.1 | 13.0 | 0.00 | 0.00 | 0.00 | 70 | 1016.4 |
| 20260831043622 | 85 | 360 | 6.1 | 13.0 | 0.00 | 0.00 | 0.00 | 70 | 1016.5 |
| 20260831043523 | 85 | 360 | 6.1 | 13.0 | 0.00 | 0.00 | 0.00 | 69 | 1016.5 |
| 20260831043443 | 85 | 360 | 5.2 | 13.0 | 0.00 | 0.00 | 0.00 | 69 | 1016.5 |
| 20260831043323 | 85 | 360 | 6.1 | 13.0 | 0.00 | 0.00 | 0.00 | 69 | 1016.5 |
| 20260831043228 | 85 | 360 | 5.2 | 13.0 | 0.00 | 0.00 | 0.00 | 69 | 1016.5 |
| 20260831043129 | 85 | 360 | 6.1 | 12.2 | 0.00 | 0.00 | 0.00 | 69 | 1016.5 |
| 20260831043029 | 85 | 360 | 6.1 | 12.2 | 0.00 | 0.00 | 0.00 | 69 | 1016.5 |
| 20260831042930 | 85 | 360 | 6.1 | 12.2 | 0.00 | 0.00 | 0.00 | 69 | 1016.5 |
| 20260831042852 | 85 | 360 | 7.0 | 12.2 | 0.00 | 0.00 | 0.00 | 69 | 1016.4 |
| 20260831042730 | 85 | 360 | 7.0 | 12.2 | 0.00 | 0.00 | 0.00 | 69 | 1016.4 |
| 20260831042631 | 85 | 360 | 6.1 | 12.2 | 0.00 | 0.00 | 0.00 | 68 | 1016.4 |
| 20260831042515 | 85 | 360 | 5.2 | 12.2 | 0.00 | 0.00 | 0.00 | 68 | 1016.4 |
| 20260831042416 | 85 | 360 | 6.1 | 12.2 | 0.00 | 0.00 | 0.00 | 68 | 1016.4 |
| 20260831042337 | 85 | 360 | 6.1 | 12.2 | 0.00 | 0.00 | 0.00 | 68 | 1016.4 |
| 20260831042217 | 85 | 360 | 7.0 | 12.2 | 0.00 | 0.00 | 0.00 | 68 | 1016.4 |
| 20260831042118 | 85 | 360 | 7.0 | 12.2 | 0.00 | 0.00 | 0.00 | 68 | 1016.4 |
| 20260831042018 | 85 | 360 | 7.0 | 12.2 | 0.00 | 0.00 | 0.00 | 68 | 1016.4 |
| 20260831041918 | 85 | 360 | 7.8 | 12.2 | 0.00 | 0.00 | 0.00 | 68 | 1016.4 |
| 20260831041842 | 85 | 360 | 7.8 | 12.2 | 0.00 | 0.00 | 0.00 | 68 | 1016.3 |
| 20260831041741 | 85 | 360 | 7.8 | 12.2 | 0.00 | 0.00 | 0.00 | 68 | 1016.5 |
| 20260831041620 | 85 | 360 | 7.8 | 12.2 | 0.00 | 0.00 | 0.00 | 68 | 1016.4 |
| 20260831041521 | 85 | 360 | 7.0 | 12.2 | 0.00 | 0.00 | 0.00 | 68 | 1016.5 |
| 20260831041442 | 85 | 360 | 7.0 | 12.2 | 0.00 | 0.00 | 0.00 | 68 | 1016.5 |
| 20260831041403 | 85 | 360 | 7.8 | 12.2 | 0.00 | 0.00 | 0.00 | 68 | 1016.5 |
| 20260831041303 | 85 | 360 | 7.8 | 12.2 | 0.00 | 0.00 | 0.00 | 68 | 1016.4 |
| 20260831041203 | 85 | 360 | 7.8 | 12.2 | 0.00 | 0.00 | 0.00 | 68 | 1016.4 |
| 20260831041021 | 85 | 360 | 7.8 | 12.2 | 0.00 | 0.00 | 0.00 | 67 | 1016.4 |
| 20260831040926 | 85 | 360 | 7.8 | 12.2 | 0.00 | 0.00 | 0.00 | 67 | 1016.5 |
| 20260831040826 | 85 | 360 | 7.0 | 12.2 | 0.00 | 0.00 | 0.00 | 67 | 1016.4 |
| 20260831040747 | 86 | 360 | 6.1 | 12.2 | 0.00 | 0.00 | 0.00 | 67 | 1016.5 |
| 20260831040627 | 86 | 360 | 5.2 | 12.2 | 0.00 | 0.00 | 0.00 | 67 | 1016.5 |
| 20260831040528 | 86 | 360 | 5.2 | 15.6 | 0.00 | 0.00 | 0.00 | 67 | 1016.5 |
| 20260831040428 | 86 | 360 | 5.2 | 15.6 | 0.00 | 0.00 | 0.00 | 67 | 1016.5 |
| 20260831040328 | 86 | 360 | 5.2 | 15.6 | 0.00 | 0.00 | 0.00 | 67 | 1016.4 |
| 20260831040228 | 86 | 360 | 5.2 | 15.6 | 0.00 | 0.00 | 0.00 | 66 | 1016.4 |
| 20260831040133 | 86 | 360 | 6.1 | 15.6 | 0.00 | 0.00 | 0.00 | 66 | 1016.4 |
| 20260831040034 | 86 | 360 | 7.0 | 15.6 | 0.00 | 0.00 | 0.00 | 66 | 1016.4 |
| 20260831035935 | 86 | 360 | 9.6 | 15.6 | 0.00 | 0.00 | 0.00 | 66 | 1016.4 |
| 20260831035837 | 86 | 360 | 9.6 | 15.6 | 0.00 | 0.00 | 0.00 | 66 | 1016.4 |
| 20260831035756 | 86 | 360 | 10.4 | 15.6 | 0.00 | 0.00 | 0.00 | 66 | 1016.4 |
| 20260831035635 | 86 | 360 | 9.6 | 15.6 | 0.00 | 0.00 | 0.00 | 66 | 1016.4 |
| 20260831035535 | 86 | 360 | 8.7 | 15.6 | 0.00 | 0.00 | 0.00 | 66 | 1016.4 |
| 20260831035419 | 86 | 360 | 8.7 | 15.6 | 0.00 | 0.00 | 0.00 | 66 | 1016.4 |
| 20260831035320 | 86 | 360 | 7.8 | 14.8 | 0.00 | 0.00 | 0.00 | 66 | 1016.3 |
| 20260831035221 | 86 | 360 | 7.8 | 14.8 | 0.00 | 0.00 | 0.00 | 66 | 1016.3 |
| 20260831035120 | 86 | 360 | 7.8 | 15.6 | 0.00 | 0.00 | 0.00 | 66 | 1016.4 |
| 20260831035021 | 86 | 360 | 7.8 | 15.6 | 0.00 | 0.00 | 0.00 | 66 | 1016.3 |
| 20260831034941 | 86 | 360 | 8.7 | 15.6 | 0.00 | 0.00 | 0.00 | 66 | 1016.3 |
| 20260831034820 | 86 | 360 | 8.7 | 15.6 | 0.00 | 0.00 | 0.00 | 65 | 1016.2 |
| 20260831034741 | 86 | 360 | 8.7 | 15.6 | 0.00 | 0.00 | 0.00 | 65 | 1016.4 |
| 20260831034624 | 86 | 360 | 9.6 | 15.6 | 0.00 | 0.00 | 0.00 | 65 | 1016.2 |
| 20260831034525 | 86 | 360 | 9.6 | 15.6 | 0.00 | 0.00 | 0.00 | 65 | 1016.2 |
| 20260831034426 | 86 | 360 | 9.6 | 15.6 | 0.00 | 0.00 | 0.00 | 65 | 1016.2 |
| 20260831034347 | 86 | 360 | 9.6 | 15.6 | 0.00 | 0.00 | 0.00 | 65 | 1016.2 |
| 20260831034225 | 86 | 360 | 8.7 | 15.6 | 0.00 | 0.00 | 0.00 | 65 | 1016.2 |
| 20260831034126 | 86 | 360 | 7.8 | 20.0 | 0.00 | 0.00 | 0.00 | 65 | 1016.2 |
| 20260831034047 | 86 | 360 | 7.0 | 20.0 | 0.00 | 0.00 | 0.00 | 65 | 1016.1 |
| 20260831033926 | 86 | 360 | 7.8 | 20.0 | 0.00 | 0.00 | 0.00 | 65 | 1016.1 |
| 20260831033831 | 86 | 360 | 7.8 | 20.0 | 0.00 | 0.00 | 0.00 | 65 | 1016.1 |
| 20260831033732 | 86 | 360 | 7.8 | 20.0 | 0.00 | 0.00 | 0.00 | 64 | 1016.1 |
| 20260831033631 | 87 | 360 | 9.6 | 20.0 | 0.00 | 0.00 | 0.00 | 64 | 1016.1 |
| 20260831033552 | 87 | 360 | 12.2 | 20.0 | 0.00 | 0.00 | 0.00 | 64 | 1016.1 |
| 20260831033452 | 87 | 360 | 12.2 | 20.0 | 0.00 | 0.00 | 0.00 | 64 | 1016.1 |
| 20260831033331 | 87 | 360 | 12.2 | 20.0 | 0.00 | 0.00 | 0.00 | 64 | 1016.0 |
| 20260831033232 | 87 | 360 | 11.3 | 20.0 | 0.00 | 0.00 | 0.00 | 64 | 1016.0 |
| 20260831033116 | 87 | 360 | 9.6 | 17.4 | 0.00 | 0.00 | 0.00 | 64 | 1016.0 |
| 20260831033016 | 87 | 360 | 10.4 | 17.4 | 0.00 | 0.00 | 0.00 | 64 | 1016.0 |
| 20260831032916 | 87 | 360 | 8.7 | 17.4 | 0.00 | 0.00 | 0.00 | 63 | 1016.0 |
| 20260831032818 | 87 | 360 | 8.7 | 17.4 | 0.00 | 0.00 | 0.00 | 63 | 1015.9 |
| 20260831032717 | 87 | 360 | 8.7 | 19.1 | 0.00 | 0.00 | 0.00 | 63 | 1016.0 |
| 20260831032617 | 87 | 360 | 9.6 | 19.1 | 0.00 | 0.00 | 0.00 | 63 | 1015.9 |
| 20260831032517 | 87 | 360 | 11.3 | 19.1 | 0.00 | 0.00 | 0.00 | 63 | 1016.0 |
| 20260831032422 | 87 | 360 | 12.2 | 19.1 | 0.00 | 0.00 | 0.00 | 63 | 1015.9 |
| 20260831032343 | 87 | 360 | 13.0 | 19.1 | 0.00 | 0.00 | 0.00 | 63 | 1016.0 |
| 20260831032223 | 87 | 360 | 13.0 | 19.1 | 0.00 | 0.00 | 0.00 | 62 | 1015.9 |
| 20260831032123 | 87 | 360 | 12.2 | 19.1 | 0.00 | 0.00 | 0.00 | 62 | 1015.9 |
| 20260831032024 | 87 | 360 | 11.3 | 19.1 | 0.00 | 0.00 | 0.00 | 62 | 1015.9 |
| 20260831031925 | 87 | 360 | 10.4 | 19.1 | 0.00 | 0.00 | 0.00 | 62 | 1015.9 |
| 20260831031825 | 87 | 360 | 10.4 | 19.1 | 0.00 | 0.00 | 0.00 | 62 | 1015.9 |
| 20260831031730 | 87 | 360 | 12.2 | 19.1 | 0.00 | 0.00 | 0.00 | 62 | 1015.9 |
| 20260831031630 | 87 | 360 | 11.3 | 19.1 | 0.00 | 0.00 | 0.00 | 62 | 1015.9 |
| 20260831031530 | 87 | 360 | 11.3 | 19.1 | 0.00 | 0.00 | 0.00 | 62 | 1015.9 |
| 20260831031432 | 88 | 360 | 11.3 | 19.1 | 0.00 | 0.00 | 0.00 | 62 | 1015.9 |
| 20260831031330 | 88 | 360 | 12.2 | 19.1 | 0.00 | 0.00 | 0.00 | 61 | 1015.9 |
| 20260831031251 | 88 | 360 | 12.2 | 19.1 | 0.00 | 0.00 | 0.00 | 61 | 1015.8 |
| 20260831031151 | 88 | 360 | 12.2 | 19.1 | 0.00 | 0.00 | 0.00 | 61 | 1015.8 |
| 20260831031031 | 88 | 360 | 10.4 | 19.1 | 0.00 | 0.00 | 0.00 | 61 | 1015.8 |
| 20260831030916 | 88 | 360 | 7.0 | 17.4 | 0.00 | 0.00 | 0.00 | 61 | 1015.7 |
| 20260831030817 | 88 | 360 | 6.1 | 17.4 | 0.00 | 0.00 | 0.00 | 61 | 1015.7 |
| 20260831030737 | 88 | 360 | 7.0 | 17.4 | 0.00 | 0.00 | 0.00 | 61 | 1015.7 |
| 20260831030617 | 88 | 360 | 7.8 | 17.4 | 0.00 | 0.00 | 0.00 | 61 | 1015.7 |
| 20260831030538 | 88 | 360 | 10.4 | 17.4 | 0.00 | 0.00 | 0.00 | 61 | 1015.6 |
| 20260831030417 | 88 | 360 | 11.3 | 17.4 | 0.00 | 0.00 | 0.00 | 61 | 1015.6 |
| 20260831030317 | 88 | 360 | 11.3 | 17.4 | 0.00 | 0.00 | 0.00 | 61 | 1015.6 |
| 20260831030221 | 88 | 360 | 10.4 | 18.2 | 0.00 | 0.00 | 0.00 | 61 | 1015.6 |
| 20260831030122 | 88 | 360 | 9.6 | 18.2 | 0.00 | 0.00 | 0.00 | 61 | 1015.6 |
| 20260831030023 | 88 | 360 | 7.8 | 18.2 | 0.00 | 0.00 | 0.00 | 61 | 1015.6 |
| 20260831025923 | 88 | 360 | 7.8 | 18.2 | 0.00 | 0.00 | 0.00 | 61 | 1015.6 |
| 20260831025825 | 88 | 360 | 8.7 | 18.2 | 0.00 | 0.00 | 0.00 | 61 | 1015.6 |
| 20260831025725 | 88 | 360 | 9.6 | 18.2 | 0.00 | 0.00 | 0.00 | 61 | 1015.5 |
| 20260831025646 | 88 | 360 | 12.2 | 18.2 | 0.00 | 0.00 | 0.00 | 60 | 1015.6 |
| 20260831025529 | 88 | 360 | 11.3 | 18.2 | 0.00 | 0.00 | 0.00 | 60 | 1015.5 |
| 20260831025429 | 88 | 360 | 10.4 | 18.2 | 0.00 | 0.00 | 0.00 | 61 | 1015.5 |
| 20260831025330 | 88 | 360 | 9.6 | 15.6 | 0.00 | 0.00 | 0.00 | 61 | 1015.5 |
| 20260831025231 | 88 | 360 | 8.7 | 13.0 | 0.00 | 0.00 | 0.00 | 61 | 1015.4 |
| 20260831025130 | 88 | 360 | 8.7 | 13.0 | 0.00 | 0.00 | 0.00 | 61 | 1015.4 |
| 20260831025051 | 88 | 360 | 8.7 | 13.0 | 0.00 | 0.00 | 0.00 | 61 | 1015.5 |
| 20260831024931 | 88 | 360 | 8.7 | 12.2 | 0.00 | 0.00 | 0.00 | 61 | 1015.4 |
| 20260831024816 | 88 | 360 | 7.8 | 12.2 | 0.00 | 0.00 | 0.00 | 61 | 1015.4 |
| 20260831024716 | 88 | 360 | 7.0 | 12.2 | 0.00 | 0.00 | 0.00 | 61 | 1015.4 |
| 20260831024617 | 88 | 360 | 7.8 | 12.2 | 0.00 | 0.00 | 0.00 | 61 | 1015.4 |
| 20260831024518 | 88 | 360 | 7.8 | 12.2 | 0.00 | 0.00 | 0.00 | 61 | 1015.4 |
| 20260831024437 | 88 | 360 | 7.8 | 12.2 | 0.00 | 0.00 | 0.00 | 61 | 1015.4 |
| 20260831024316 | 88 | 360 | 7.0 | 11.3 | 0.00 | 0.00 | 0.00 | 61 | 1015.3 |
| 20260831024237 | 88 | 360 | 6.1 | 12.2 | 0.00 | 0.00 | 0.00 | 61 | 1015.3 |
| 20260831024157 | 88 | 360 | 6.1 | 12.2 | 0.00 | 0.00 | 0.00 | 61 | 1015.3 |
| 20260831024036 | 88 | 360 | 6.1 | 12.2 | 0.00 | 0.00 | 0.00 | 61 | 1015.3 |
| 20260831023919 | 88 | 360 | 7.0 | 17.4 | 0.00 | 0.00 | 0.00 | 61 | 1015.3 |
| 20260831023820 | 88 | 360 | 7.8 | 17.4 | 0.00 | 0.00 | 0.00 | 60 | 1015.2 |
| 20260831023720 | 88 | 360 | 7.8 | 17.4 | 0.00 | 0.00 | 0.00 | 60 | 1015.2 |
| 20260831023621 | 88 | 360 | 7.8 | 17.4 | 0.00 | 0.00 | 0.00 | 60 | 1015.2 |
| 20260831023522 | 88 | 360 | 7.0 | 17.4 | 0.00 | 0.00 | 0.00 | 60 | 1015.2 |
| 20260831023421 | 88 | 360 | 7.8 | 17.4 | 0.00 | 0.00 | 0.00 | 60 | 1015.1 |
| 20260831023342 | 89 | 360 | 8.7 | 17.4 | 0.00 | 0.00 | 0.00 | 60 | 1015.2 |
| 20260831023227 | 89 | 360 | 10.4 | 17.4 | 0.00 | 0.00 | 0.00 | 60 | 1015.1 |
| 20260831023129 | 89 | 165 | 11.3 | 17.4 | 0.00 | 0.00 | 0.00 | 60 | 1015.2 |
| 20260831023030 | 89 | 360 | 10.4 | 16.5 | 0.00 | 0.00 | 0.00 | 59 | 1015.1 |
| 20260831022931 | 89 | 360 | 10.4 | 16.5 | 0.00 | 0.00 | 0.00 | 59 | 1015.1 |
| 20260831022853 | 89 | 360 | 11.3 | 16.5 | 0.00 | 0.00 | 0.00 | 59 | 1015.1 |
| 20260831022732 | 89 | 360 | 11.3 | 16.5 | 0.00 | 0.00 | 0.00 | 59 | 1015.0 |
| 20260831022617 | 89 | 360 | 10.4 | 16.5 | 0.00 | 0.00 | 0.00 | 59 | 1015.0 |
| 20260831022517 | 89 | 360 | 9.6 | 16.5 | 0.00 | 0.00 | 0.00 | 59 | 1015.0 |
| 20260831022419 | 89 | 360 | 7.8 | 13.9 | 0.00 | 0.00 | 0.00 | 58 | 1015.0 |
| 20260831022318 | 89 | 360 | 8.7 | 13.9 | 0.00 | 0.00 | 0.00 | 58 | 1015.0 |
| 20260831022240 | 89 | 360 | 7.8 | 13.0 | 0.00 | 0.00 | 0.00 | 57 | 1015.0 |
| 20260831022120 | 89 | 158 | 8.7 | 13.0 | 0.00 | 0.00 | 0.00 | 57 | 1014.9 |
| 20260831022020 | 89 | 360 | 8.7 | 13.0 | 0.00 | 0.00 | 0.00 | 57 | 1014.9 |
| 20260831021941 | 89 | 360 | 8.7 | 13.0 | 0.00 | 0.00 | 0.00 | 57 | 1014.9 |
| 20260831021825 | 89 | 360 | 8.7 | 13.0 | 0.00 | 0.00 | 0.00 | 57 | 1014.9 |
| 20260831021724 | 89 | 360 | 8.7 | 13.0 | 0.00 | 0.00 | 0.00 | 57 | 1014.9 |
| 20260831021626 | 89 | 360 | 8.7 | 13.0 | 0.00 | 0.00 | 0.00 | 56 | 1014.9 |
| 20260831021526 | 89 | 360 | 7.0 | 13.0 | 0.00 | 0.00 | 0.00 | 56 | 1015.0 |
| 20260831021427 | 90 | 360 | 7.0 | 14.8 | 0.00 | 0.00 | 0.00 | 56 | 1014.8 |
| 20260831021327 | 90 | 360 | 7.0 | 14.8 | 0.00 | 0.00 | 0.00 | 56 | 1014.9 |
| 20260831021233 | 90 | 360 | 7.0 | 14.8 | 0.00 | 0.00 | 0.00 | 56 | 1014.8 |
| 20260831021153 | 90 | 360 | 7.8 | 14.8 | 0.00 | 0.00 | 0.00 | 56 | 1014.8 |
| 20260831021032 | 90 | 360 | 7.0 | 15.6 | 0.00 | 0.00 | 0.00 | 56 | 1014.8 |
| 20260831020933 | 90 | 360 | 7.8 | 15.6 | 0.00 | 0.00 | 0.00 | 56 | 1014.8 |
| 20260831020833 | 90 | 360 | 9.6 | 15.6 | 0.00 | 0.00 | 0.00 | 56 | 1014.8 |
| 20260831020733 | 90 | 360 | 9.6 | 15.6 | 0.00 | 0.00 | 0.00 | 56 | 1014.8 |
| 20260831020654 | 90 | 360 | 9.6 | 15.6 | 0.00 | 0.00 | 0.00 | 56 | 1014.8 |
| 20260831020517 | 90 | 360 | 8.7 | 18.2 | 0.00 | 0.00 | 0.00 | 55 | 1014.7 |
| 20260831020417 | 90 | 360 | 10.4 | 18.2 | 0.00 | 0.00 | 0.00 | 55 | 1014.8 |
| 20260831020320 | 90 | 360 | 10.4 | 18.2 | 0.00 | 0.00 | 0.00 | 55 | 1014.7 |
| 20260831020220 | 90 | 360 | 9.6 | 18.2 | 0.00 | 0.00 | 0.00 | 55 | 1014.7 |
| 20260831020122 | 90 | 360 | 8.7 | 18.2 | 0.00 | 0.00 | 0.00 | 54 | 1014.7 |
| 20260831020042 | 90 | 360 | 9.6 | 18.2 | 0.00 | 0.00 | 0.00 | 54 | 1014.6 |
| 20260831015923 | 91 | 360 | 9.6 | 18.2 | 0.00 | 0.00 | 0.00 | 54 | 1014.6 |
| 20260831015828 | 91 | 360 | 10.4 | 16.5 | 0.00 | 0.00 | 0.00 | 54 | 1014.5 |
| 20260831015749 | 91 | 360 | 11.3 | 16.5 | 0.00 | 0.00 | 0.00 | 54 | 1014.6 |
| 20260831015628 | 91 | 360 | 11.3 | 16.5 | 0.00 | 0.00 | 0.00 | 53 | 1014.6 |
| 20260831015528 | 91 | 360 | 11.3 | 16.5 | 0.00 | 0.00 | 0.00 | 53 | 1014.6 |
| 20260831015429 | 91 | 360 | 10.4 | 14.8 | 0.00 | 0.00 | 0.00 | 53 | 1014.5 |
| 20260831015349 | 91 | 360 | 7.8 | 13.0 | 0.00 | 0.00 | 0.00 | 53 | 1014.5 |
| 20260831015228 | 91 | 360 | 7.0 | 13.0 | 0.00 | 0.00 | 0.00 | 52 | 1014.5 |
| 20260831015148 | 91 | 360 | 6.1 | 13.0 | 0.00 | 0.00 | 0.00 | 52 | 1014.4 |
| 20260831015033 | 91 | 360 | 6.1 | 13.0 | 0.00 | 0.00 | 0.00 | 52 | 1014.5 |
| 20260831014932 | 91 | 360 | 6.1 | 13.0 | 0.00 | 0.00 | 0.00 | 52 | 1014.5 |
| 20260831014833 | 91 | 360 | 6.1 | 12.2 | 0.00 | 0.00 | 0.00 | 52 | 1014.4 |
| 20260831014753 | 91 | 360 | 6.1 | 12.2 | 0.00 | 0.00 | 0.00 | 52 | 1014.4 |
| 20260831014632 | 91 | 360 | 7.8 | 12.2 | 0.00 | 0.00 | 0.00 | 52 | 1014.4 |
| 20260831014551 | 90 | 360 | 7.8 | 12.2 | 0.00 | 0.00 | 0.00 | 52 | 1014.4 |
| 20260831014431 | 90 | 360 | 8.7 | 12.2 | 0.00 | 0.00 | 0.00 | 52 | 1014.4 |
| 20260831014351 | 90 | 360 | 8.7 | 12.2 | 0.00 | 0.00 | 0.00 | 52 | 1014.4 |
| 20260831014231 | 90 | 360 | 8.7 | 12.2 | 0.00 | 0.00 | 0.00 | 51 | 1014.4 |
| 20260831014151 | 90 | 360 | 7.8 | 12.2 | 0.00 | 0.00 | 0.00 | 51 | 1014.4 |
| 20260831014034 | 90 | 360 | 7.0 | 10.4 | 0.00 | 0.00 | 0.00 | 50 | 1014.3 |
| 20260831013935 | 90 | 360 | 6.1 | 7.8 | 0.00 | 0.00 | 0.00 | 50 | 1014.3 |
| 20260831013853 | 90 | 360 | 5.2 | 7.8 | 0.00 | 0.00 | 0.00 | 50 | 1014.3 |
| 20260831013733 | 90 | 360 | 4.3 | 7.8 | 0.00 | 0.00 | 0.00 | 50 | 1014.3 |
| 20260831013632 | 90 | 360 | 4.3 | 5.2 | 0.00 | 0.00 | 0.00 | 50 | 1014.2 |
| 20260831013554 | 90 | 360 | 3.5 | 4.3 | 0.00 | 0.00 | 0.00 | 50 | 1014.1 |
| 20260831013432 | 90 | 360 | 3.5 | 4.3 | 0.00 | 0.00 | 0.00 | 50 | 1014.1 |
| 20260831013317 | 90 | 360 | 3.5 | 4.3 | 0.00 | 0.00 | 0.00 | 49 | 1014.1 |
| 20260831013217 | 90 | 360 | 3.5 | 4.3 | 0.00 | 0.00 | 0.00 | 49 | 1014.1 |
| 20260831013118 | 91 | 167 | 3.5 | 4.3 | 0.00 | 0.00 | 0.00 | 49 | 1014.1 |
| 20260831013038 | 91 | 360 | 3.5 | 4.3 | 0.00 | 0.00 | 0.00 | 49 | 1014.1 |
| 20260831012917 | 91 | 360 | 2.6 | 4.3 | 0.00 | 0.00 | 0.00 | 49 | 1014.0 |
| 20260831012820 | 91 | 360 | 2.6 | 4.3 | 0.00 | 0.00 | 0.00 | 49 | 1014.0 |
| 20260831012740 | 91 | 360 | 2.6 | 4.3 | 0.00 | 0.00 | 0.00 | 49 | 1014.0 |
| 20260831012623 | 91 | 360 | 2.6 | 4.3 | 0.00 | 0.00 | 0.00 | 49 | 1014.0 |
| 20260831012544 | 91 | 360 | 2.6 | 5.2 | 0.00 | 0.00 | 0.00 | 49 | 1014.0 |
| 20260831012443 | 91 | 360 | 2.6 | 5.2 | 0.00 | 0.00 | 0.00 | 49 | 1014.0 |
| 20260831012343 | 91 | 360 | 2.6 | 5.2 | 0.00 | 0.00 | 0.00 | 49 | 1014.0 |
| 20260831012222 | 91 | 360 | 2.6 | 5.2 | 0.00 | 0.00 | 0.00 | 49 | 1014.0 |
| 20260831012123 | 91 | 360 | 2.6 | 5.2 | 0.00 | 0.00 | 0.00 | 49 | 1014.0 |
| 20260831012023 | 91 | 360 | 3.5 | 5.2 | 0.00 | 0.00 | 0.00 | 49 | 1013.9 |
| 20260831011925 | 91 | 360 | 3.5 | 5.2 | 0.00 | 0.00 | 0.00 | 49 | 1013.9 |
| 20260831011824 | 91 | 360 | 3.5 | 5.2 | 0.00 | 0.00 | 0.00 | 49 | 1014.0 |
| 20260831011728 | 91 | 360 | 3.5 | 5.2 | 0.00 | 0.00 | 0.00 | 49 | 1013.9 |
| 20260831011629 | 91 | 360 | 3.5 | 7.0 | 0.00 | 0.00 | 0.00 | 49 | 1013.9 |
| 20260831011529 | 91 | 360 | 3.5 | 8.7 | 0.00 | 0.00 | 0.00 | 49 | 1013.9 |
| 20260831011429 | 91 | 360 | 3.5 | 8.7 | 0.00 | 0.00 | 0.00 | 49 | 1013.9 |
| 20260831011329 | 91 | 360 | 3.5 | 8.7 | 0.00 | 0.00 | 0.00 | 49 | 1014.0 |
| 20260831011231 | 91 | 360 | 3.5 | 8.7 | 0.00 | 0.00 | 0.00 | 49 | 1014.0 |
| 20260831011116 | 91 | 360 | 3.5 | 8.7 | 0.00 | 0.00 | 0.00 | 49 | 1014.0 |
| 20260831011016 | 91 | 360 | 4.3 | 8.7 | 0.00 | 0.00 | 0.00 | 49 | 1014.0 |
| 20260831010916 | 91 | 360 | 4.3 | 8.7 | 0.00 | 0.00 | 0.00 | 48 | 1014.0 |
| 20260831010818 | 92 | 360 | 4.3 | 8.7 | 0.00 | 0.00 | 0.00 | 48 | 1014.0 |
| 20260831010738 | 92 | 360 | 4.3 | 8.7 | 0.00 | 0.00 | 0.00 | 48 | 1014.1 |
| 20260831010638 | 92 | 360 | 4.3 | 8.7 | 0.00 | 0.00 | 0.00 | 48 | 1014.1 |
| 20260831010518 | 92 | 360 | 4.3 | 8.7 | 0.00 | 0.00 | 0.00 | 48 | 1014.0 |
| 20260831010422 | 92 | 360 | 4.3 | 8.7 | 0.00 | 0.00 | 0.00 | 48 | 1014.0 |
| 20260831010323 | 92 | 360 | 3.5 | 5.2 | 0.00 | 0.00 | 0.00 | 48 | 1014.0 |
| 20260831010224 | 92 | 360 | 3.5 | 5.2 | 0.00 | 0.00 | 0.00 | 48 | 1014.0 |
| 20260831010125 | 92 | 360 | 3.5 | 5.2 | 0.00 | 0.00 | 0.00 | 48 | 1013.9 |
| 20260831010046 | 92 | 360 | 3.5 | 4.3 | 0.00 | 0.00 | 0.00 | 48 | 1013.9 |
| 20260831005925 | 92 | 360 | 3.5 | 4.3 | 0.00 | 0.00 | 0.00 | 48 | 1014.0 |
| 20260831005827 | 92 | 360 | 2.6 | 4.3 | 0.00 | 0.00 | 0.00 | 48 | 1013.9 |
| 20260831005730 | 92 | 165 | 2.6 | 5.2 | 0.00 | 0.00 | 0.00 | 48 | 1014.0 |
| 20260831005631 | 92 | 360 | 2.6 | 5.2 | 0.00 | 0.00 | 0.00 | 48 | 1013.9 |
| 20260831005532 | 92 | 360 | 2.6 | 5.2 | 0.00 | 0.00 | 0.00 | 48 | 1014.0 |
| 20260831005433 | 92 | 165 | 2.6 | 5.2 | 0.00 | 0.00 | 0.00 | 48 | 1013.9 |
| 20260831005332 | 92 | 165 | 2.6 | 5.2 | 0.00 | 0.00 | 0.00 | 47 | 1013.9 |
| 20260831005233 | 92 | 360 | 2.6 | 5.2 | 0.00 | 0.00 | 0.00 | 47 | 1013.9 |
| 20260831005118 | 92 | 360 | 3.5 | 5.2 | 0.00 | 0.00 | 0.00 | 47 | 1013.9 |
| 20260831005019 | 92 | 360 | 3.5 | 5.2 | 0.00 | 0.00 | 0.00 | 47 | 1013.8 |
| 20260831004919 | 93 | 360 | 3.5 | 5.2 | 0.00 | 0.00 | 0.00 | 47 | 1013.9 |
| 20260831004841 | 93 | 360 | 3.5 | 5.2 | 0.00 | 0.00 | 0.00 | 47 | 1013.8 |
| 20260831004721 | 93 | 360 | 2.6 | 5.2 | 0.00 | 0.00 | 0.00 | 47 | 1013.9 |
| 20260831004622 | 93 | 360 | 3.5 | 5.2 | 0.00 | 0.00 | 0.00 | 47 | 1014.0 |
| 20260831004522 | 93 | 360 | 2.6 | 5.2 | 0.00 | 0.00 | 0.00 | 47 | 1013.9 |
| 20260831004442 | 93 | 360 | 2.6 | 5.2 | 0.00 | 0.00 | 0.00 | 46 | 1013.9 |
| 20260831004325 | 93 | 360 | 3.5 | 5.2 | 0.00 | 0.00 | 0.00 | 46 | 1014.0 |
| 20260831004226 | 93 | 360 | 3.5 | 5.2 | 0.00 | 0.00 | 0.00 | 46 | 1013.9 |
| 20260831004128 | 93 | 360 | 3.5 | 7.8 | 0.00 | 0.00 | 0.00 | 46 | 1013.9 |
| 20260831004029 | 93 | 360 | 3.5 | 7.8 | 0.00 | 0.00 | 0.00 | 46 | 1013.8 |
| 20260831003929 | 93 | 360 | 3.5 | 7.8 | 0.00 | 0.00 | 0.00 | 46 | 1013.8 |
| 20260831003831 | 93 | 360 | 3.5 | 7.8 | 0.00 | 0.00 | 0.00 | 45 | 1013.8 |
| 20260831003734 | 93 | 360 | 3.5 | 7.8 | 0.00 | 0.00 | 0.00 | 45 | 1013.9 |
| 20260831003616 | 94 | 360 | 3.5 | 7.8 | 0.00 | 0.00 | 0.00 | 45 | 1013.8 |
| 20260831003517 | 94 | 360 | 3.5 | 8.7 | 0.00 | 0.00 | 0.00 | 45 | 1013.8 |
| 20260831003416 | 94 | 360 | 3.5 | 8.7 | 0.00 | 0.00 | 0.00 | 45 | 1013.8 |
| 20260831003338 | 94 | 360 | 3.5 | 8.7 | 0.00 | 0.00 | 0.00 | 45 | 1013.8 |
| 20260831003216 | 94 | 360 | 3.5 | 8.7 | 0.00 | 0.00 | 0.00 | 45 | 1013.7 |
| 20260831003117 | 94 | 360 | 4.3 | 11.3 | 0.00 | 0.00 | 0.00 | 45 | 1013.8 |
| 20260831003021 | 94 | 360 | 5.2 | 11.3 | 0.00 | 0.00 | 0.00 | 44 | 1013.9 |
| 20260831002922 | 94 | 360 | 5.2 | 11.3 | 0.00 | 0.00 | 0.00 | 44 | 1013.8 |
| 20260831002843 | 94 | 360 | 5.2 | 13.0 | 0.00 | 0.00 | 0.00 | 44 | 1013.8 |
| 20260831002722 | 94 | 360 | 4.3 | 13.0 | 0.00 | 0.00 | 0.00 | 45 | 1013.8 |
| 20260831002642 | 94 | 360 | 5.2 | 13.0 | 0.00 | 0.00 | 0.00 | 44 | 1013.9 |
| 20260831002522 | 94 | 360 | 6.1 | 13.0 | 0.00 | 0.00 | 0.00 | 44 | 1013.8 |
| 20260831002422 | 94 | 360 | 7.0 | 13.0 | 0.00 | 0.00 | 0.00 | 44 | 1013.8 |
| 20260831002323 | 94 | 360 | 7.8 | 13.0 | 0.00 | 0.00 | 0.00 | 43 | 1013.8 |
| 20260831002228 | 95 | 360 | 8.7 | 13.0 | 0.00 | 0.00 | 0.00 | 43 | 1013.7 |
| 20260831002127 | 95 | 360 | 8.7 | 13.0 | 0.00 | 0.00 | 0.00 | 43 | 1013.8 |
| 20260831002028 | 95 | 360 | 7.8 | 13.0 | 0.00 | 0.00 | 0.00 | 43 | 1013.7 |
| 20260831001930 | 95 | 360 | 6.1 | 12.2 | 0.00 | 0.00 | 0.00 | 44 | 1013.7 |
| 20260831001831 | 95 | 360 | 6.1 | 12.2 | 0.00 | 0.00 | 0.00 | 44 | 1013.8 |
| 20260831001731 | 95 | 360 | 6.1 | 12.2 | 0.00 | 0.00 | 0.00 | 45 | 1013.7 |
| 20260831001617 | 95 | 360 | 5.2 | 12.2 | 0.00 | 0.00 | 0.00 | 45 | 1013.8 |
| 20260831001516 | 95 | 360 | 7.0 | 12.2 | 0.00 | 0.00 | 0.00 | 45 | 1013.7 |
| 20260831001437 | 95 | 360 | 7.8 | 12.2 | 0.00 | 0.00 | 0.00 | 45 | 1013.7 |
| 20260831001336 | 95 | 360 | 7.8 | 12.2 | 0.00 | 0.00 | 0.00 | 45 | 1013.6 |
| 20260831001257 | 95 | 360 | 8.7 | 12.2 | 0.00 | 0.00 | 0.00 | 45 | 1013.7 |
| 20260831001116 | 95 | 360 | 7.0 | 10.4 | 0.00 | 0.00 | 0.00 | 45 | 1013.6 |
| 20260831001017 | 95 | 360 | 6.1 | 10.4 | 0.00 | 0.00 | 0.00 | 45 | 1013.7 |
| 20260831000917 | 95 | 360 | 5.2 | 9.6 | 0.00 | 0.00 | 0.00 | 46 | 1013.7 |
| 20260831000823 | 95 | 360 | 4.3 | 9.6 | 0.00 | 0.00 | 0.00 | 46 | 1013.7 |
| 20260831000722 | 95 | 360 | 4.3 | 9.6 | 0.00 | 0.00 | 0.00 | 45 | 1013.7 |
| 20260831000643 | 95 | 360 | 3.5 | 9.6 | 0.00 | 0.00 | 0.00 | 45 | 1013.7 |
| 20260831000541 | 95 | 360 | 3.5 | 9.6 | 0.00 | 0.00 | 0.00 | 45 | 1013.7 |
| 20260831000420 | 95 | 360 | 3.5 | 9.6 | 0.00 | 0.00 | 0.00 | 45 | 1013.7 |
| 20260831000320 | 95 | 360 | 3.5 | 7.8 | 0.00 | 0.00 | 0.00 | 46 | 1013.7 |
| 20260831000220 | 95 | 360 | 2.6 | 7.8 | 0.00 | 0.00 | 0.00 | 45 | 1013.7 |
| 20260831000121 | 95 | 360 | 2.6 | 7.8 | 0.00 | 0.00 | 0.00 | 44 | 1013.7 |
| 20260831000025 | 95 | 360 | 3.5 | 7.8 | 0.00 | 0.00 | 0.00 | 45 | 1013.7 |
| 20260830235925 | 95 | 360 | 3.5 | 7.8 | 0.00 | 0.00 | 0.00 | 45 | 1013.7 |
| 20260830235846 | 95 | 360 | 3.5 | 9.6 | 0.00 | 0.00 | 0.00 | 45 | 1013.7 |
| 20260830235725 | 95 | 360 | 3.5 | 9.6 | 0.00 | 0.00 | 0.00 | 45 | 1013.7 |
| 20260830235626 | 95 | 360 | 3.5 | 9.6 | 0.00 | 0.00 | 0.00 | 45 | 1013.7 |
| 20260830235528 | 95 | 360 | 3.5 | 9.6 | 0.00 | 0.00 | 0.00 | 45 | 1013.7 |
| 20260830235428 | 95 | 360 | 2.6 | 9.6 | 0.00 | 0.00 | 0.00 | 45 | 1013.6 |
| 20260830235333 | 95 | 184 | 3.5 | 9.6 | 0.00 | 0.00 | 0.00 | 45 | 1013.7 |
| 20260830235254 | 95 | 360 | 4.3 | 9.6 | 0.00 | 0.00 | 0.00 | 45 | 1013.5 |
| 20260830235154 | 95 | 360 | 5.2 | 9.6 | 0.00 | 0.00 | 0.00 | 45 | 1013.6 |
| 20260830235035 | 95 | 360 | 6.1 | 9.6 | 0.00 | 0.00 | 0.00 | 44 | 1013.7 |
| 20260830234916 | 95 | 360 | 5.2 | 9.6 | 0.00 | 0.00 | 0.00 | 44 | 1013.7 |
| 20260830234815 | 95 | 360 | 5.2 | 9.6 | 0.00 | 0.00 | 0.00 | 44 | 1013.7 |
| 20260830234716 | 95 | 360 | 5.2 | 9.6 | 0.00 | 0.00 | 0.00 | 45 | 1013.8 |
| 20260830234620 | 95 | 360 | 6.1 | 9.6 | 0.00 | 0.00 | 0.00 | 45 | 1013.7 |
| 20260830234541 | 95 | 360 | 6.1 | 9.6 | 0.00 | 0.00 | 0.00 | 45 | 1013.7 |
| 20260830234422 | 95 | 165 | 5.2 | 9.6 | 0.00 | 0.00 | 0.00 | 45 | 1013.8 |
| 20260830234321 | 95 | 360 | 3.5 | 8.7 | 0.00 | 0.00 | 0.00 | 44 | 1013.8 |
| 20260830234242 | 96 | 360 | 3.5 | 9.6 | 0.00 | 0.00 | 0.00 | 44 | 1013.8 |
| 20260830234121 | 96 | 360 | 2.6 | 9.6 | 0.00 | 0.00 | 0.00 | 45 | 1013.8 |
| 20260830234022 | 96 | 360 | 2.6 | 9.6 | 0.00 | 0.00 | 0.00 | 44 | 1013.8 |
| 20260830233922 | 96 | 360 | 3.5 | 9.6 | 0.00 | 0.00 | 0.00 | 44 | 1013.8 |
| 20260830233828 | 96 | 360 | 2.6 | 9.6 | 0.00 | 0.00 | 0.00 | 44 | 1013.8 |
| 20260830233727 | 96 | 360 | 3.5 | 9.6 | 0.00 | 0.00 | 0.00 | 44 | 1013.8 |
| 20260830233628 | 96 | 360 | 4.3 | 9.6 | 0.00 | 0.00 | 0.00 | 44 | 1013.8 |
| 20260830233529 | 96 | 360 | 5.2 | 9.6 | 0.00 | 0.00 | 0.00 | 44 | 1013.9 |
| 20260830233429 | 96 | 360 | 5.2 | 9.6 | 0.00 | 0.00 | 0.00 | 44 | 1013.9 |
| 20260830233329 | 96 | 360 | 5.2 | 9.6 | 0.00 | 0.00 | 0.00 | 43 | 1013.9 |
| 20260830233247 | 96 | 360 | 3.5 | 7.0 | 0.00 | 0.00 | 0.00 | 44 | 1013.9 |
| 20260830233131 | 96 | 360 | 3.5 | 5.2 | 0.00 | 0.00 | 0.00 | 42 | 1013.9 |
| 20260830233052 | 96 | 360 | 3.5 | 7.8 | 0.00 | 0.00 | 0.00 | 43 | 1013.8 |
| 20260830232931 | 96 | 360 | 3.5 | 7.8 | 0.00 | 0.00 | 0.00 | 43 | 1013.8 |
| 20260830232832 | 96 | 360 | 2.6 | 7.8 | 0.00 | 0.00 | 0.00 | 44 | 1013.8 |
| 20260830232752 | 96 | 360 | 2.6 | 7.8 | 0.00 | 0.00 | 0.00 | 44 | 1013.8 |
| 20260830232632 | 96 | 360 | 2.6 | 7.8 | 0.00 | 0.00 | 0.00 | 43 | 1013.8 |
| 20260830232553 | 96 | 360 | 2.6 | 7.8 | 0.00 | 0.00 | 0.00 | 43 | 1013.8 |
| 20260830232432 | 96 | 360 | 1.7 | 7.8 | 0.00 | 0.00 | 0.00 | 43 | 1013.8 |
| 20260830232335 | 96 | 360 | 2.6 | 8.7 | 0.00 | 0.00 | 0.00 | 44 | 1013.9 |
| 20260830232216 | 95 | 360 | 2.6 | 8.7 | 0.00 | 0.00 | 0.00 | 44 | 1013.9 |
| 20260830232116 | 95 | 360 | 4.3 | 8.7 | 0.00 | 0.00 | 0.00 | 44 | 1013.9 |
| 20260830232016 | 95 | 360 | 4.3 | 8.7 | 0.00 | 0.00 | 0.00 | 44 | 1013.8 |
| 20260830231917 | 95 | 360 | 5.2 | 8.7 | 0.00 | 0.00 | 0.00 | 44 | 1013.9 |
| 20260830231817 | 95 | 360 | 5.2 | 8.7 | 0.00 | 0.00 | 0.00 | 43 | 1013.9 |
| 20260830231722 | 96 | 197 | 5.2 | 8.7 | 0.00 | 0.00 | 0.00 | 43 | 1013.9 |
| 20260830231622 | 96 | 360 | 4.3 | 8.7 | 0.00 | 0.00 | 0.00 | 44 | 1013.9 |
| 20260830231522 | 96 | 360 | 4.3 | 8.7 | 0.00 | 0.00 | 0.00 | 44 | 1013.8 |
| 20260830231422 | 96 | 360 | 5.2 | 8.7 | 0.00 | 0.00 | 0.00 | 44 | 1013.8 |
| 20260830231322 | 96 | 360 | 5.2 | 8.7 | 0.00 | 0.00 | 0.00 | 43 | 1013.8 |
| 20260830231223 | 96 | 360 | 6.1 | 8.7 | 0.00 | 0.00 | 0.00 | 43 | 1013.8 |
| 20260830231124 | 96 | 360 | 5.2 | 8.7 | 0.00 | 0.00 | 0.00 | 43 | 1013.8 |
| 20260830231028 | 96 | 360 | 4.3 | 8.7 | 0.00 | 0.00 | 0.00 | 43 | 1013.8 |
| 20260830230929 | 96 | 360 | 3.5 | 7.8 | 0.00 | 0.00 | 0.00 | 43 | 1013.9 |
| 20260830230830 | 96 | 360 | 2.6 | 7.8 | 0.00 | 0.00 | 0.00 | 43 | 1013.8 |
| 20260830230731 | 96 | 360 | 1.7 | 7.8 | 0.00 | 0.00 | 0.00 | 42 | 1013.9 |
| 20260830230652 | 96 | 360 | 1.7 | 7.8 | 0.00 | 0.00 | 0.00 | 42 | 1013.9 |
| 20260830230531 | 96 | 360 | 2.6 | 7.8 | 0.00 | 0.00 | 0.00 | 43 | 1013.8 |
| 20260830230431 | 96 | 360 | 2.6 | 9.6 | 0.00 | 0.00 | 0.00 | 42 | 1013.8 |
| 20260830230316 | 96 | 360 | 3.5 | 9.6 | 0.00 | 0.00 | 0.00 | 44 | 1013.9 |
| 20260830230217 | 96 | 360 | 3.5 | 9.6 | 0.00 | 0.00 | 0.00 | 44 | 1013.9 |
| 20260830230118 | 96 | 360 | 3.5 | 9.6 | 0.00 | 0.00 | 0.00 | 43 | 1013.9 |
| 20260830230019 | 96 | 360 | 3.5 | 9.6 | 0.00 | 0.00 | 0.00 | 43 | 1013.9 |
| 20260830225920 | 96 | 360 | 4.3 | 9.6 | 0.00 | 0.00 | 0.00 | 42 | 1014.0 |
| 20260830225822 | 96 | 360 | 4.3 | 9.6 | 0.00 | 0.00 | 0.00 | 42 | 1013.9 |
| 20260830225725 | 96 | 360 | 4.3 | 9.6 | 0.00 | 0.00 | 0.00 | 42 | 1013.9 |
| 20260830225626 | 96 | 360 | 3.5 | 9.6 | 0.00 | 0.00 | 0.00 | 42 | 1013.9 |
| 20260830225526 | 97 | 360 | 2.6 | 7.0 | 0.00 | 0.00 | 0.00 | 42 | 1013.9 |
| 20260830225426 | 96 | 360 | 1.7 | 7.0 | 0.00 | 0.00 | 0.00 | 42 | 1013.9 |
| 20260830225327 | 96 | 360 | 2.6 | 7.0 | 0.00 | 0.00 | 0.00 | 42 | 1013.9 |
| 20260830225227 | 96 | 360 | 2.6 | 5.2 | 0.00 | 0.00 | 0.00 | 42 | 1013.9 |
| 20260830225127 | 96 | 360 | 1.7 | 5.2 | 0.00 | 0.00 | 0.00 | 43 | 1013.9 |
| 20260830225053 | 96 | 360 | 2.6 | 5.2 | 0.00 | 0.00 | 0.00 | 43 | 1013.9 |
| 20260830224932 | 96 | 360 | 2.6 | 7.0 | 0.00 | 0.00 | 0.00 | 44 | 1013.9 |
| 20260830224852 | 96 | 360 | 2.6 | 7.8 | 0.00 | 0.00 | 0.00 | 44 | 1013.9 |
| 20260830224732 | 96 | 157 | 2.6 | 10.4 | 0.00 | 0.00 | 0.00 | 43 | 1013.9 |
| 20260830224632 | 96 | 360 | 2.6 | 10.4 | 0.00 | 0.00 | 0.00 | 44 | 1014.0 |
| 20260830224533 | 96 | 360 | 2.6 | 10.4 | 0.00 | 0.00 | 0.00 | 44 | 1013.9 |
| 20260830224433 | 96 | 121 | 3.5 | 10.4 | 0.00 | 0.00 | 0.00 | 43 | 1014.0 |
| 20260830224318 | 96 | 360 | 3.5 | 10.4 | 0.00 | 0.00 | 0.00 | 43 | 1014.0 |
| 20260830224219 | 96 | 360 | 4.3 | 10.4 | 0.00 | 0.00 | 0.00 | 43 | 1014.1 |
| 20260830224119 | 96 | 360 | 4.3 | 11.3 | 0.00 | 0.00 | 0.00 | 42 | 1014.0 |
| 20260830224020 | 96 | 151 | 3.5 | 11.3 | 0.00 | 0.00 | 0.00 | 42 | 1014.1 |
| 20260830223921 | 96 | 360 | 2.6 | 11.3 | 0.00 | 0.00 | 0.00 | 43 | 1014.1 |
| 20260830223822 | 96 | 360 | 1.7 | 11.3 | 0.00 | 0.00 | 0.00 | 43 | 1014.1 |
| 20260830223727 | 96 | 360 | 2.6 | 11.3 | 0.00 | 0.00 | 0.00 | 43 | 1014.2 |
| 20260830223628 | 96 | 360 | 3.5 | 11.3 | 0.00 | 0.00 | 0.00 | 44 | 1014.1 |
| 20260830223528 | 95 | 360 | 6.1 | 11.3 | 0.00 | 0.00 | 0.00 | 44 | 1014.1 |
| 20260830223429 | 95 | 360 | 7.8 | 13.9 | 0.00 | 0.00 | 0.00 | 44 | 1014.1 |
| 20260830223328 | 95 | 360 | 8.7 | 13.9 | 0.00 | 0.00 | 0.00 | 43 | 1014.1 |
| 20260830223229 | 95 | 360 | 7.8 | 13.9 | 0.00 | 0.00 | 0.00 | 43 | 1014.1 |
| 20260830223129 | 95 | 159 | 7.0 | 13.9 | 0.00 | 0.00 | 0.00 | 44 | 1014.1 |
| 20260830223034 | 95 | 360 | 5.2 | 13.9 | 0.00 | 0.00 | 0.00 | 45 | 1014.0 |
| 20260830222934 | 95 | 360 | 3.5 | 13.9 | 0.00 | 0.00 | 0.00 | 45 | 1014.1 |
| 20260830222816 | 96 | 360 | 5.2 | 13.9 | 0.00 | 0.00 | 0.00 | 45 | 1014.1 |
| 20260830222716 | 96 | 360 | 6.1 | 13.9 | 0.00 | 0.00 | 0.00 | 45 | 1014.0 |
| 20260830222617 | 96 | 360 | 7.0 | 13.9 | 0.00 | 0.00 | 0.00 | 45 | 1014.0 |
| 20260830222518 | 96 | 360 | 7.0 | 13.9 | 0.00 | 0.00 | 0.00 | 46 | 1014.0 |
| 20260830222422 | 96 | 360 | 7.0 | 13.0 | 0.00 | 0.00 | 0.00 | 45 | 1013.9 |
| 20260830222322 | 96 | 360 | 6.1 | 11.3 | 0.00 | 0.00 | 0.00 | 45 | 1014.1 |
| 20260830222224 | 96 | 360 | 6.1 | 11.3 | 0.00 | 0.00 | 0.00 | 45 | 1014.0 |
| 20260830222125 | 96 | 360 | 5.2 | 11.3 | 0.00 | 0.00 | 0.00 | 44 | 1014.0 |
| 20260830222045 | 96 | 360 | 5.2 | 11.3 | 0.00 | 0.00 | 0.00 | 43 | 1014.0 |
| 20260830221926 | 96 | 360 | 6.1 | 11.3 | 0.00 | 0.00 | 0.00 | 44 | 1014.0 |
| 20260830221826 | 96 | 360 | 6.1 | 11.3 | 0.00 | 0.00 | 0.00 | 44 | 1014.1 |
| 20260830221751 | 96 | 360 | 7.0 | 11.3 | 0.00 | 0.00 | 0.00 | 44 | 1014.1 |
| 20260830221629 | 96 | 360 | 7.0 | 11.3 | 0.00 | 0.00 | 0.00 | 44 | 1014.1 |
| 20260830221530 | 96 | 360 | 6.1 | 13.0 | 0.00 | 0.00 | 0.00 | 42 | 1014.1 |
| 20260830221431 | 96 | 360 | 5.2 | 13.0 | 0.00 | 0.00 | 0.00 | 42 | 1014.1 |
| 20260830221331 | 96 | 360 | 5.2 | 13.0 | 0.00 | 0.00 | 0.00 | 42 | 1014.1 |
| 20260830221231 | 96 | 360 | 6.1 | 13.0 | 0.00 | 0.00 | 0.00 | 42 | 1014.1 |
| 20260830221116 | 96 | 360 | 7.0 | 13.0 | 0.00 | 0.00 | 0.00 | 44 | 1014.2 |
| 20260830221017 | 95 | 360 | 7.8 | 13.0 | 0.00 | 0.00 | 0.00 | 43 | 1014.3 |
| 20260830220937 | 95 | 360 | 7.8 | 13.0 | 0.00 | 0.00 | 0.00 | 43 | 1014.2 |
| 20260830220817 | 95 | 360 | 8.7 | 13.0 | 0.00 | 0.00 | 0.00 | 43 | 1014.3 |
| 20260830220718 | 95 | 360 | 8.7 | 13.0 | 0.00 | 0.00 | 0.00 | 43 | 1014.3 |
| 20260830220619 | 95 | 360 | 8.7 | 13.0 | 0.00 | 0.00 | 0.00 | 44 | 1014.2 |
| 20260830220519 | 96 | 360 | 7.8 | 12.2 | 0.00 | 0.00 | 0.00 | 43 | 1014.3 |
| 20260830220424 | 96 | 144 | 8.7 | 12.2 | 0.00 | 0.00 | 0.00 | 44 | 1014.3 |
| 20260830220324 | 95 | 360 | 8.7 | 12.2 | 0.00 | 0.00 | 0.00 | 44 | 1014.3 |
| 20260830220225 | 96 | 360 | 7.0 | 12.2 | 0.00 | 0.00 | 0.00 | 45 | 1014.3 |
| 20260830220125 | 95 | 360 | 6.1 | 12.2 | 0.00 | 0.00 | 0.00 | 46 | 1014.3 |
| 20260830220025 | 95 | 360 | 3.5 | 11.3 | 0.00 | 0.00 | 0.00 | 46 | 1014.4 |
| 20260830215926 | 95 | 360 | 3.5 | 11.3 | 0.00 | 0.00 | 0.00 | 45 | 1014.3 |
| 20260830215828 | 95 | 360 | 5.2 | 11.3 | 0.00 | 0.00 | 0.00 | 45 | 1014.4 |
| 20260830215732 | 95 | 360 | 7.0 | 11.3 | 0.00 | 0.00 | 0.00 | 45 | 1014.4 |
| 20260830215653 | 95 | 360 | 7.8 | 11.3 | 0.00 | 0.00 | 0.00 | 45 | 1014.4 |
| 20260830215533 | 95 | 360 | 7.0 | 11.3 | 0.00 | 0.00 | 0.00 | 44 | 1014.3 |
| 20260830215432 | 95 | 360 | 6.1 | 11.3 | 0.00 | 0.00 | 0.00 | 45 | 1014.3 |
| 20260830215332 | 95 | 360 | 5.2 | 11.3 | 0.00 | 0.00 | 0.00 | 44 | 1014.4 |
| 20260830215234 | 95 | 360 | 7.0 | 11.3 | 0.00 | 0.00 | 0.00 | 44 | 1014.4 |
| 20260830215155 | 95 | 360 | 7.0 | 11.3 | 0.00 | 0.00 | 0.00 | 44 | 1014.4 |
| 20260830215017 | 95 | 360 | 7.0 | 11.3 | 0.00 | 0.00 | 0.00 | 43 | 1014.4 |
| 20260830214916 | 95 | 360 | 7.0 | 13.9 | 0.00 | 0.00 | 0.00 | 44 | 1014.4 |
| 20260830214817 | 95 | 360 | 6.1 | 13.9 | 0.00 | 0.00 | 0.00 | 44 | 1014.5 |
| 20260830214717 | 95 | 360 | 6.1 | 16.5 | 0.00 | 0.00 | 0.00 | 45 | 1014.4 |
| 20260830214618 | 95 | 360 | 7.0 | 16.5 | 0.00 | 0.00 | 0.00 | 45 | 1014.4 |
| 20260830214516 | 95 | 360 | 7.0 | 16.5 | 0.00 | 0.00 | 0.00 | 45 | 1014.4 |
| 20260830214416 | 95 | 360 | 7.0 | 16.5 | 0.00 | 0.00 | 0.00 | 45 | 1014.5 |
| 20260830214321 | 95 | 360 | 6.1 | 16.5 | 0.00 | 0.00 | 0.00 | 45 | 1014.5 |
| 20260830214222 | 95 | 360 | 7.0 | 16.5 | 0.00 | 0.00 | 0.00 | 44 | 1014.5 |
| 20260830214122 | 95 | 360 | 7.0 | 16.5 | 0.00 | 0.00 | 0.00 | 46 | 1014.5 |
| 20260830214022 | 95 | 360 | 7.8 | 16.5 | 0.00 | 0.00 | 0.00 | 45 | 1014.5 |
| 20260830213924 | 95 | 360 | 8.7 | 16.5 | 0.00 | 0.00 | 0.00 | 45 | 1014.5 |
| 20260830213824 | 96 | 360 | 7.8 | 16.5 | 0.00 | 0.00 | 0.00 | 45 | 1014.5 |
| 20260830213725 | 96 | 360 | 7.0 | 16.5 | 0.00 | 0.00 | 0.00 | 46 | 1014.5 |
| 20260830213647 | 95 | 360 | 4.3 | 13.9 | 0.00 | 0.00 | 0.00 | 45 | 1014.5 |
| 20260830213527 | 95 | 360 | 2.6 | 13.9 | 0.00 | 0.00 | 0.00 | 46 | 1014.5 |
| 20260830213427 | 95 | 360 | 4.3 | 13.9 | 0.00 | 0.00 | 0.00 | 45 | 1014.5 |
| 20260830213326 | 95 | 360 | 5.2 | 17.4 | 0.00 | 0.00 | 0.00 | 45 | 1014.5 |
| 20260830213226 | 95 | 360 | 5.2 | 17.4 | 0.00 | 0.00 | 0.00 | 45 | 1014.5 |
| 20260830213127 | 95 | 360 | 6.1 | 17.4 | 0.00 | 0.00 | 0.00 | 45 | 1014.6 |
| 20260830213028 | 95 | 360 | 6.1 | 17.4 | 0.00 | 0.00 | 0.00 | 46 | 1014.6 |
| 20260830212927 | 95 | 360 | 7.0 | 17.4 | 0.00 | 0.00 | 0.00 | 45 | 1014.6 |
| 20260830212832 | 95 | 360 | 7.0 | 17.4 | 0.00 | 0.00 | 0.00 | 45 | 1014.6 |
| 20260830212732 | 95 | 360 | 8.7 | 17.4 | 0.00 | 0.00 | 0.00 | 46 | 1014.6 |
| 20260830212632 | 95 | 360 | 7.8 | 17.4 | 0.00 | 0.00 | 0.00 | 46 | 1014.7 |
| 20260830212552 | 95 | 360 | 7.0 | 17.4 | 0.00 | 0.00 | 0.00 | 45 | 1014.7 |
| 20260830212452 | 96 | 360 | 5.2 | 10.4 | 0.00 | 0.00 | 0.00 | 45 | 1014.7 |
| 20260830212331 | 96 | 360 | 5.2 | 10.4 | 0.00 | 0.00 | 0.00 | 45 | 1014.7 |
| 20260830212252 | 96 | 360 | 5.2 | 12.2 | 0.00 | 0.00 | 0.00 | 45 | 1014.8 |
| 20260830212131 | 96 | 360 | 5.2 | 12.2 | 0.00 | 0.00 | 0.00 | 46 | 1014.7 |
| 20260830212035 | 96 | 360 | 5.2 | 12.2 | 0.00 | 0.00 | 0.00 | 47 | 1014.8 |
| 20260830211916 | 96 | 360 | 6.1 | 17.4 | 0.00 | 0.00 | 0.00 | 46 | 1014.8 |
| 20260830211816 | 96 | 360 | 7.0 | 17.4 | 0.00 | 0.00 | 0.00 | 45 | 1014.8 |
| 20260830211716 | 96 | 360 | 7.0 | 17.4 | 0.00 | 0.00 | 0.00 | 45 | 1014.8 |
| 20260830211618 | 96 | 360 | 7.0 | 17.4 | 0.00 | 0.00 | 0.00 | 45 | 1014.8 |
| 20260830211517 | 96 | 360 | 6.1 | 17.4 | 0.00 | 0.00 | 0.00 | 46 | 1014.8 |
| 20260830211442 | 96 | 360 | 6.1 | 17.4 | 0.00 | 0.00 | 0.00 | 46 | 1014.8 |
| 20260830211320 | 96 | 146 | 7.8 | 17.4 | 0.00 | 0.00 | 0.00 | 46 | 1015.0 |
| 20260830211221 | 95 | 360 | 9.6 | 17.4 | 0.00 | 0.00 | 0.00 | 45 | 1015.0 |
| 20260830211121 | 95 | 360 | 9.6 | 17.4 | 0.00 | 0.00 | 0.00 | 47 | 1015.0 |
| 20260830211021 | 95 | 360 | 7.8 | 13.9 | 0.00 | 0.00 | 0.00 | 47 | 1014.9 |
| 20260830210922 | 95 | 360 | 6.1 | 14.8 | 0.00 | 0.00 | 0.00 | 47 | 1015.0 |
| 20260830210822 | 95 | 360 | 4.3 | 14.8 | 0.00 | 0.00 | 0.00 | 47 | 1015.0 |
| 20260830210727 | 95 | 360 | 3.5 | 14.8 | 0.00 | 0.00 | 0.00 | 46 | 1015.0 |
| 20260830210647 | 95 | 360 | 3.5 | 14.8 | 0.00 | 0.00 | 0.00 | 46 | 1014.9 |
| 20260830210526 | 95 | 360 | 4.3 | 16.5 | 0.00 | 0.00 | 0.00 | 47 | 1014.9 |
| 20260830210446 | 95 | 360 | 6.1 | 16.5 | 0.00 | 0.00 | 0.00 | 46 | 1015.1 |
| 20260830210326 | 95 | 360 | 7.8 | 16.5 | 0.00 | 0.00 | 0.00 | 47 | 1015.1 |
| 20260830210227 | 95 | 360 | 8.7 | 16.5 | 0.00 | 0.00 | 0.00 | 47 | 1015.1 |
| 20260830210127 | 95 | 360 | 10.4 | 16.5 | 0.00 | 0.00 | 0.00 | 47 | 1015.2 |
| 20260830210027 | 95 | 360 | 11.3 | 16.5 | 0.00 | 0.00 | 0.00 | 47 | 1015.1 |
| 20260830205931 | 95 | 360 | 11.3 | 16.5 | 0.00 | 0.00 | 0.00 | 47 | 1015.2 |
| 20260830205833 | 95 | 360 | 10.4 | 16.5 | 0.00 | 0.00 | 0.00 | 47 | 1015.1 |
| 20260830205732 | 95 | 360 | 10.4 | 14.8 | 0.00 | 0.00 | 0.00 | 47 | 1015.1 |
| 20260830205633 | 95 | 360 | 8.7 | 14.8 | 0.00 | 0.00 | 0.00 | 48 | 1015.2 |
| 20260830205553 | 95 | 360 | 7.0 | 14.8 | 0.00 | 0.00 | 0.00 | 48 | 1015.2 |
| 20260830205432 | 95 | 360 | 5.2 | 13.9 | 0.00 | 0.00 | 0.00 | 48 | 1015.2 |
| 20260830205317 | 94 | 360 | 3.5 | 13.0 | 0.00 | 0.00 | 0.00 | 48 | 1015.2 |
| 20260830205216 | 94 | 360 | 3.5 | 13.0 | 0.00 | 0.00 | 0.00 | 49 | 1015.2 |
| 20260830205117 | 94 | 360 | 3.5 | 13.0 | 0.00 | 0.00 | 0.00 | 49 | 1015.2 |
| 20260830205037 | 94 | 360 | 5.2 | 13.0 | 0.00 | 0.00 | 0.00 | 48 | 1015.2 |
| 20260830204916 | 94 | 360 | 6.1 | 13.9 | 0.00 | 0.00 | 0.00 | 47 | 1015.2 |
| 20260830204817 | 95 | 360 | 6.1 | 13.9 | 0.00 | 0.00 | 0.00 | 48 | 1015.3 |
| 20260830204717 | 95 | 360 | 5.2 | 13.9 | 0.00 | 0.00 | 0.00 | 49 | 1015.3 |
| 20260830204618 | 95 | 360 | 5.2 | 13.9 | 0.00 | 0.00 | 0.00 | 48 | 1015.3 |
| 20260830204523 | 95 | 360 | 5.2 | 13.9 | 0.00 | 0.00 | 0.00 | 49 | 1015.3 |
| 20260830204422 | 95 | 360 | 7.0 | 13.9 | 0.00 | 0.00 | 0.00 | 48 | 1015.3 |
| 20260830204323 | 95 | 360 | 7.0 | 13.9 | 0.00 | 0.00 | 0.00 | 48 | 1015.3 |
| 20260830204221 | 95 | 360 | 7.8 | 13.9 | 0.00 | 0.00 | 0.00 | 49 | 1015.4 |
| 20260830204142 | 95 | 360 | 7.8 | 13.9 | 0.00 | 0.00 | 0.00 | 49 | 1015.4 |
| 20260830204022 | 95 | 360 | 7.8 | 13.9 | 0.00 | 0.00 | 0.00 | 49 | 1015.4 |
| 20260830203923 | 95 | 360 | 7.8 | 13.9 | 0.00 | 0.00 | 0.00 | 49 | 1015.4 |
| 20260830203823 | 94 | 360 | 7.0 | 15.6 | 0.00 | 0.00 | 0.00 | 49 | 1015.4 |
| 20260830203727 | 94 | 360 | 7.0 | 19.1 | 0.00 | 0.00 | 0.00 | 49 | 1015.4 |
| 20260830203628 | 94 | 360 | 6.1 | 19.1 | 0.00 | 0.00 | 0.00 | 49 | 1015.5 |
| 20260830203527 | 94 | 360 | 6.1 | 19.1 | 0.00 | 0.00 | 0.00 | 49 | 1015.5 |
| 20260830203427 | 94 | 360 | 7.0 | 19.1 | 0.00 | 0.00 | 0.00 | 49 | 1015.5 |
| 20260830203327 | 94 | 360 | 7.0 | 19.1 | 0.00 | 0.00 | 0.00 | 49 | 1015.5 |
| 20260830203228 | 94 | 360 | 8.7 | 19.1 | 0.00 | 0.00 | 0.00 | 49 | 1015.6 |
| 20260830203129 | 94 | 360 | 9.6 | 19.1 | 0.00 | 0.00 | 0.00 | 49 | 1015.5 |
| 20260830203034 | 94 | 360 | 8.7 | 19.1 | 0.00 | 0.00 | 0.00 | 49 | 1015.5 |
| 20260830202953 | 94 | 360 | 7.0 | 19.1 | 0.00 | 0.00 | 0.00 | 50 | 1015.6 |
| 20260830202833 | 94 | 360 | 4.3 | 12.2 | 0.00 | 0.00 | 0.00 | 50 | 1015.5 |
| 20260830202734 | 94 | 360 | 4.3 | 15.6 | 0.00 | 0.00 | 0.00 | 50 | 1015.6 |
| 20260830202635 | 94 | 360 | 4.3 | 15.6 | 0.00 | 0.00 | 0.00 | 51 | 1015.6 |
| 20260830202535 | 94 | 360 | 4.3 | 15.6 | 0.00 | 0.00 | 0.00 | 51 | 1015.6 |
| 20260830202416 | 94 | 360 | 6.1 | 15.6 | 0.00 | 0.00 | 0.00 | 50 | 1015.6 |
| 20260830202320 | 94 | 360 | 6.1 | 15.6 | 0.00 | 0.00 | 0.00 | 51 | 1015.6 |
| 20260830202221 | 94 | 360 | 5.2 | 15.6 | 0.00 | 0.00 | 0.00 | 51 | 1015.6 |
| 20260830202123 | 94 | 160 | 5.2 | 15.6 | 0.00 | 0.00 | 0.00 | 51 | 1015.7 |
| 20260830202022 | 94 | 360 | 7.8 | 15.6 | 0.00 | 0.00 | 0.00 | 50 | 1015.6 |
| 20260830201922 | 94 | 360 | 10.4 | 15.6 | 0.00 | 0.00 | 0.00 | 51 | 1015.8 |
| 20260830201842 | 94 | 360 | 10.4 | 15.6 | 0.00 | 0.00 | 0.00 | 51 | 1015.7 |
| 20260830201722 | 94 | 360 | 8.7 | 14.8 | 0.00 | 0.00 | 0.00 | 50 | 1015.6 |
| 20260830201642 | 94 | 360 | 8.7 | 14.8 | 0.00 | 0.00 | 0.00 | 50 | 1015.7 |
| 20260830201541 | 94 | 360 | 7.8 | 14.8 | 0.00 | 0.00 | 0.00 | 50 | 1015.7 |
| 20260830201425 | 94 | 360 | 8.7 | 14.8 | 0.00 | 0.00 | 0.00 | 51 | 1015.7 |
| 20260830201326 | 94 | 360 | 7.8 | 14.8 | 0.00 | 0.00 | 0.00 | 51 | 1015.7 |
| 20260830201226 | 94 | 360 | 7.0 | 16.5 | 0.00 | 0.00 | 0.00 | 51 | 1015.7 |
| 20260830201126 | 94 | 360 | 5.2 | 16.5 | 0.00 | 0.00 | 0.00 | 50 | 1015.5 |
| 20260830201026 | 94 | 360 | 4.3 | 16.5 | 0.00 | 0.00 | 0.00 | 51 | 1015.6 |
| 20260830200927 | 94 | 360 | 5.2 | 16.5 | 0.00 | 0.00 | 0.00 | 51 | 1015.7 |
| 20260830200832 | 94 | 360 | 6.1 | 16.5 | 0.00 | 0.00 | 0.00 | 52 | 1015.8 |
| 20260830200732 | 94 | 360 | 7.8 | 16.5 | 0.00 | 0.00 | 0.00 | 53 | 1015.8 |
| 20260830200654 | 93 | 360 | 9.6 | 16.5 | 0.00 | 0.00 | 0.00 | 53 | 1015.8 |
| 20260830200534 | 93 | 360 | 9.6 | 16.5 | 0.00 | 0.00 | 0.00 | 52 | 1015.8 |
| 20260830200454 | 94 | 360 | 9.6 | 16.5 | 0.00 | 0.00 | 0.00 | 52 | 1015.9 |
| 20260830200334 | 94 | 360 | 10.4 | 14.8 | 0.00 | 0.00 | 0.00 | 52 | 1015.9 |
| 20260830200235 | 94 | 360 | 8.7 | 14.8 | 0.00 | 0.00 | 0.00 | 52 | 1015.9 |
| 20260830200155 | 94 | 360 | 7.0 | 14.8 | 0.00 | 0.00 | 0.00 | 52 | 1015.9 |
| 20260830200018 | 93 | 360 | 3.5 | 14.8 | 0.00 | 0.00 | 0.00 | 51 | 1015.8 |
| 20260830195918 | 93 | 360 | 4.3 | 12.2 | 0.00 | 0.00 | 0.00 | 52 | 1015.9 |
| 20260830195820 | 93 | 360 | 3.5 | 13.0 | 0.00 | 0.00 | 0.00 | 52 | 1016.0 |
| 20260830195719 | 93 | 360 | 4.3 | 13.0 | 0.00 | 0.00 | 0.00 | 51 | 1015.9 |
| 20260830195619 | 93 | 360 | 6.1 | 13.0 | 0.00 | 0.00 | 0.00 | 51 | 1015.9 |
| 20260830195519 | 93 | 360 | 7.8 | 13.0 | 0.00 | 0.00 | 0.00 | 51 | 1016.0 |
| 20260830195440 | 93 | 360 | 7.8 | 13.0 | 0.00 | 0.00 | 0.00 | 51 | 1016.1 |
| 20260830195340 | 94 | 360 | 7.0 | 13.0 | 0.00 | 0.00 | 0.00 | 51 | 1016.0 |
| 20260830195224 | 94 | 360 | 7.8 | 13.0 | 0.00 | 0.00 | 0.00 | 51 | 1016.1 |
| 20260830195124 | 94 | 360 | 8.7 | 13.0 | 0.00 | 0.00 | 0.00 | 51 | 1016.1 |
| 20260830195024 | 95 | 360 | 9.6 | 13.0 | 0.00 | 0.00 | 0.00 | 51 | 1016.1 |
| 20260830194924 | 95 | 360 | 7.0 | 14.8 | 0.00 | 0.00 | 0.00 | 51 | 1016.2 |
| 20260830194825 | 95 | 360 | 6.1 | 14.8 | 0.00 | 0.00 | 0.00 | 50 | 1016.1 |
| 20260830194725 | 94 | 360 | 3.5 | 14.8 | 0.00 | 0.00 | 0.00 | 50 | 1016.1 |
| 20260830194630 | 94 | 360 | 2.6 | 14.8 | 0.00 | 0.00 | 0.00 | 50 | 1016.1 |
| 20260830194530 | 94 | 360 | 4.3 | 14.8 | 0.00 | 0.00 | 0.00 | 52 | 1016.1 |
| 20260830194431 | 94 | 360 | 5.2 | 14.8 | 0.00 | 0.00 | 0.00 | 51 | 1016.2 |
| 20260830194331 | 94 | 360 | 7.0 | 14.8 | 0.00 | 0.00 | 0.00 | 51 | 1016.3 |
| 20260830194232 | 94 | 360 | 8.7 | 14.8 | 0.00 | 0.00 | 0.00 | 51 | 1016.2 |
| 20260830194134 | 94 | 360 | 8.7 | 14.8 | 0.00 | 0.00 | 0.00 | 51 | 1016.4 |
| 20260830194018 | 94 | 360 | 7.0 | 14.8 | 0.00 | 0.00 | 0.00 | 51 | 1016.3 |
| 20260830193919 | 94 | 360 | 6.1 | 13.0 | 0.00 | 0.00 | 0.00 | 51 | 1016.3 |
| 20260830193819 | 93 | 360 | 6.1 | 13.0 | 0.00 | 0.00 | 0.00 | 51 | 1016.2 |
| 20260830193719 | 93 | 360 | 6.1 | 13.0 | 0.00 | 0.00 | 0.00 | 51 | 1016.4 |
| 20260830193620 | 94 | 360 | 5.2 | 13.0 | 0.00 | 0.00 | 0.00 | 51 | 1016.5 |
| 20260830193520 | 94 | 360 | 6.1 | 13.0 | 0.00 | 0.00 | 0.00 | 52 | 1016.4 |
| 20260830193420 | 94 | 360 | 6.1 | 13.0 | 0.00 | 0.00 | 0.00 | 51 | 1016.5 |
| 20260830193325 | 94 | 360 | 7.0 | 13.0 | 0.00 | 0.00 | 0.00 | 52 | 1016.4 |
| 20260830193225 | 94 | 360 | 6.1 | 13.0 | 0.00 | 0.00 | 0.00 | 51 | 1016.5 |
| 20260830193126 | 93 | 360 | 4.3 | 14.8 | 0.00 | 0.00 | 0.00 | 53 | 1016.4 |
| 20260830193026 | 93 | 360 | 3.5 | 15.6 | 0.00 | 0.00 | 0.00 | 52 | 1016.4 |
| 20260830192947 | 93 | 360 | 3.5 | 15.6 | 0.00 | 0.00 | 0.00 | 52 | 1016.4 |
| 20260830192827 | 93 | 164 | 3.5 | 15.6 | 0.00 | 0.00 | 0.00 | 52 | 1016.5 |
| 20260830192727 | 92 | 115 | 5.2 | 15.6 | 0.00 | 0.00 | 0.00 | 52 | 1016.5 |
| 20260830192632 | 92 | 114 | 7.0 | 15.6 | 0.00 | 0.00 | 0.00 | 52 | 1016.6 |
| 20260830192532 | 92 | 360 | 9.6 | 15.6 | 0.00 | 0.00 | 0.00 | 52 | 1016.6 |
| 20260830192433 | 93 | 360 | 10.4 | 15.6 | 0.00 | 0.00 | 0.00 | 52 | 1016.6 |
| 20260830192354 | 93 | 360 | 9.6 | 15.6 | 0.00 | 0.00 | 0.00 | 52 | 1016.6 |
| 20260830192234 | 93 | 360 | 7.8 | 16.5 | 0.00 | 0.00 | 0.00 | 54 | 1016.6 |
| 20260830192135 | 93 | 360 | 5.2 | 16.5 | 0.00 | 0.00 | 0.00 | 53 | 1016.5 |
| 20260830192035 | 93 | 360 | 3.5 | 16.5 | 0.00 | 0.00 | 0.00 | 53 | 1016.6 |
| 20260830191919 | 93 | 360 | 5.2 | 16.5 | 0.00 | 0.00 | 0.00 | 53 | 1016.6 |
| 20260830191819 | 93 | 117 | 6.1 | 16.5 | 0.00 | 0.00 | 0.00 | 54 | 1016.6 |
| 20260830191740 | 92 | 360 | 7.0 | 16.5 | 0.00 | 0.00 | 0.00 | 53 | 1016.6 |
| 20260830191639 | 92 | 360 | 8.7 | 16.5 | 0.00 | 0.00 | 0.00 | 54 | 1016.6 |
| 20260830191518 | 92 | 360 | 7.8 | 16.5 | 0.00 | 0.00 | 0.00 | 54 | 1016.6 |
| 20260830191418 | 92 | 360 | 7.0 | 14.8 | 0.00 | 0.00 | 0.00 | 53 | 1016.7 |
| 20260830191319 | 93 | 360 | 4.3 | 11.3 | 0.00 | 0.00 | 0.00 | 53 | 1016.7 |
| 20260830191239 | 93 | 360 | 3.5 | 11.3 | 0.00 | 0.00 | 0.00 | 53 | 1016.7 |
| 20260830191123 | 93 | 360 | 2.6 | 11.3 | 0.00 | 0.00 | 0.00 | 53 | 1016.7 |
| 20260830191023 | 93 | 360 | 3.5 | 11.3 | 0.00 | 0.00 | 0.00 | 52 | 1016.8 |
| 20260830190924 | 93 | 360 | 5.2 | 11.3 | 0.00 | 0.00 | 0.00 | 53 | 1016.8 |
| 20260830190824 | 93 | 360 | 6.1 | 11.3 | 0.00 | 0.00 | 0.00 | 53 | 1016.8 |
| 20260830190724 | 94 | 360 | 6.1 | 11.3 | 0.00 | 0.00 | 0.00 | 53 | 1016.9 |
| 20260830190645 | 93 | 360 | 5.2 | 11.3 | 0.00 | 0.00 | 0.00 | 51 | 1016.7 |
| 20260830190523 | 93 | 360 | 4.3 | 14.8 | 0.00 | 0.00 | 0.00 | 51 | 1016.8 |
| 20260830190422 | 93 | 360 | 3.5 | 14.8 | 0.00 | 0.00 | 0.00 | 52 | 1016.8 |
| 20260830190326 | 93 | 360 | 3.5 | 14.8 | 0.00 | 0.00 | 0.00 | 55 | 1016.9 |
| 20260830190226 | 93 | 360 | 4.3 | 14.8 | 0.00 | 0.00 | 0.00 | 54 | 1016.8 |
| 20260830190127 | 92 | 117 | 5.2 | 14.8 | 0.00 | 0.00 | 0.00 | 55 | 1016.8 |
| 20260830190027 | 92 | 360 | 7.0 | 14.8 | 0.00 | 0.00 | 0.00 | 54 | 1016.9 |
| 20260830185927 | 92 | 360 | 7.0 | 14.8 | 0.00 | 0.00 | 0.00 | 54 | 1016.9 |
| 20260830185828 | 93 | 360 | 7.0 | 14.8 | 0.00 | 0.00 | 0.00 | 54 | 1016.9 |
| 20260830185727 | 93 | 360 | 5.2 | 14.8 | 0.00 | 0.00 | 0.00 | 54 | 1016.9 |
| 20260830185632 | 93 | 360 | 4.3 | 14.8 | 0.00 | 0.00 | 0.00 | 53 | 1016.9 |
| 20260830185533 | 94 | 360 | 2.6 | 9.6 | 0.00 | 0.00 | 0.00 | 55 | 1016.9 |
| 20260830185434 | 93 | 360 | 1.7 | 11.3 | 0.00 | 0.00 | 0.00 | 55 | 1017.0 |
| 20260830185335 | 93 | 360 | 1.7 | 11.3 | 0.00 | 0.00 | 0.00 | 55 | 1016.9 |
| 20260830185216 | 92 | 360 | 2.6 | 11.3 | 0.00 | 0.00 | 0.00 | 55 | 1017.0 |
| 20260830185116 | 92 | 360 | 3.5 | 11.3 | 0.00 | 0.00 | 0.00 | 57 | 1017.1 |
| 20260830185037 | 92 | 360 | 4.3 | 13.0 | 0.00 | 0.00 | 0.00 | 57 | 1017.0 |
| 20260830184921 | 92 | 360 | 5.2 | 13.0 | 0.00 | 0.00 | 0.00 | 57 | 1017.1 |
| 20260830184821 | 92 | 360 | 6.1 | 13.0 | 0.00 | 0.00 | 0.00 | 56 | 1017.1 |
| 20260830184720 | 91 | 360 | 5.2 | 13.0 | 0.00 | 0.00 | 0.00 | 57 | 1017.0 |
| 20260830184621 | 91 | 360 | 5.2 | 13.0 | 0.00 | 0.00 | 0.00 | 56 | 1017.1 |
| 20260830184522 | 91 | 360 | 4.3 | 13.0 | 0.00 | 0.00 | 0.00 | 56 | 1017.1 |
| 20260830184442 | 91 | 360 | 4.3 | 13.0 | 0.00 | 0.00 | 0.00 | 55 | 1017.1 |
| 20260830184322 | 91 | 360 | 5.2 | 13.0 | 0.00 | 0.00 | 0.00 | 55 | 1017.1 |
| 20260830184226 | 91 | 360 | 6.1 | 13.0 | 0.00 | 0.00 | 0.00 | 55 | 1017.1 |
| 20260830184146 | 91 | 360 | 6.1 | 13.0 | 0.00 | 0.00 | 0.00 | 55 | 1017.1 |
| 20260830184026 | 91 | 360 | 5.2 | 13.0 | 0.00 | 0.00 | 0.00 | 56 | 1017.1 |
| 20260830183927 | 91 | 360 | 5.2 | 12.2 | 0.00 | 0.00 | 0.00 | 56 | 1017.1 |
| 20260830183827 | 91 | 360 | 4.3 | 12.2 | 0.00 | 0.00 | 0.00 | 56 | 1017.1 |
| 20260830183728 | 91 | 360 | 5.2 | 13.9 | 0.00 | 0.00 | 0.00 | 55 | 1017.2 |
| 20260830183649 | 91 | 360 | 6.1 | 13.9 | 0.00 | 0.00 | 0.00 | 55 | 1017.2 |
| 20260830183532 | 91 | 360 | 7.0 | 13.9 | 0.00 | 0.00 | 0.00 | 56 | 1017.2 |
| 20260830183433 | 91 | 360 | 7.8 | 13.9 | 0.00 | 0.00 | 0.00 | 55 | 1017.2 |
| 20260830183334 | 91 | 360 | 7.0 | 13.9 | 0.00 | 0.00 | 0.00 | 56 | 1017.2 |
| 20260830183234 | 92 | 360 | 7.8 | 13.9 | 0.00 | 0.00 | 0.00 | 56 | 1017.2 |
| 20260830183135 | 91 | 360 | 7.0 | 13.9 | 0.00 | 0.00 | 0.00 | 56 | 1017.2 |
| 20260830183035 | 92 | 360 | 7.8 | 13.9 | 0.00 | 0.00 | 0.00 | 55 | 1017.3 |
| 20260830182920 | 92 | 360 | 7.8 | 13.9 | 0.00 | 0.00 | 0.00 | 55 | 1017.3 |
| 20260830182842 | 92 | 360 | 7.0 | 13.9 | 0.00 | 0.00 | 0.00 | 55 | 1017.3 |
| 20260830182720 | 92 | 360 | 7.0 | 13.0 | 0.00 | 0.00 | 0.00 | 56 | 1017.3 |
| 20260830182621 | 92 | 360 | 6.1 | 13.0 | 0.00 | 0.00 | 0.00 | 56 | 1017.3 |
| 20260830182542 | 92 | 139 | 7.8 | 13.9 | 0.00 | 0.00 | 0.00 | 56 | 1017.4 |
| 20260830182421 | 92 | 360 | 7.8 | 13.9 | 0.00 | 0.00 | 0.00 | 56 | 1017.4 |
| 20260830182342 | 92 | 360 | 7.8 | 13.9 | 0.00 | 0.00 | 0.00 | 57 | 1017.5 |
| 20260830182222 | 92 | 360 | 5.2 | 14.8 | 0.00 | 0.00 | 0.00 | 57 | 1017.4 |
| 20260830182121 | 92 | 360 | 4.3 | 14.8 | 0.00 | 0.00 | 0.00 | 56 | 1017.5 |
| 20260830182027 | 92 | 360 | 2.6 | 14.8 | 0.00 | 0.00 | 0.00 | 56 | 1017.5 |
| 20260830181927 | 92 | 360 | 2.6 | 14.8 | 0.00 | 0.00 | 0.00 | 56 | 1017.5 |
| 20260830181828 | 92 | 360 | 2.6 | 14.8 | 0.00 | 0.00 | 0.00 | 55 | 1017.5 |
| 20260830181727 | 93 | 360 | 5.2 | 14.8 | 0.00 | 0.00 | 0.00 | 55 | 1017.4 |
| 20260830181628 | 93 | 360 | 7.0 | 14.8 | 0.00 | 0.00 | 0.00 | 56 | 1017.5 |
| 20260830181549 | 93 | 360 | 7.0 | 14.8 | 0.00 | 0.00 | 0.00 | 54 | 1017.4 |
| 20260830181448 | 94 | 360 | 6.1 | 14.8 | 0.00 | 0.00 | 0.00 | 55 | 1017.4 |
| 20260830181348 | 94 | 360 | 3.5 | 9.6 | 0.00 | 0.00 | 0.00 | 55 | 1017.5 |
| 20260830181230 | 94 | 159 | 3.5 | 11.3 | 0.00 | 0.00 | 0.00 | 55 | 1017.4 |
| 20260830181131 | 93 | 360 | 3.5 | 12.2 | 0.00 | 0.00 | 0.00 | 55 | 1017.5 |
| 20260830181031 | 93 | 360 | 3.5 | 12.2 | 0.00 | 0.00 | 0.00 | 56 | 1017.5 |
| 20260830180931 | 92 | 360 | 4.3 | 12.2 | 0.00 | 0.00 | 0.00 | 56 | 1017.5 |
| 20260830180831 | 92 | 360 | 4.3 | 12.2 | 0.00 | 0.00 | 0.00 | 56 | 1017.6 |
| 20260830180729 | 91 | 360 | 4.3 | 12.2 | 0.00 | 0.00 | 0.00 | 57 | 1017.6 |
| 20260830180649 | 91 | 360 | 5.2 | 12.2 | 0.00 | 0.00 | 0.00 | 56 | 1017.7 |
| 20260830180526 | 91 | 360 | 7.0 | 12.2 | 0.00 | 0.00 | 0.00 | 57 | 1017.8 |
| 20260830180431 | 91 | 360 | 7.0 | 12.2 | 0.00 | 0.00 | 0.00 | 57 | 1017.8 |
| 20260830180352 | 91 | 360 | 7.0 | 12.2 | 0.00 | 0.00 | 0.00 | 56 | 1017.9 |
| 20260830180230 | 91 | 360 | 6.1 | 13.9 | 0.00 | 0.00 | 0.00 | 57 | 1017.9 |
| 20260830180129 | 91 | 360 | 7.0 | 13.9 | 0.00 | 0.00 | 0.00 | 58 | 1017.9 |
| 20260830180030 | 91 | 360 | 7.0 | 13.9 | 0.00 | 0.00 | 0.00 | 57 | 1017.9 |
| 20260830175930 | 91 | 360 | 7.0 | 13.9 | 0.00 | 0.00 | 0.00 | 57 | 1017.9 |
| 20260830175832 | 91 | 360 | 6.1 | 13.9 | 0.00 | 0.00 | 0.00 | 58 | 1018.0 |
| 20260830175735 | 90 | 360 | 4.3 | 13.9 | 0.00 | 0.00 | 0.00 | 56 | 1018.0 |
| 20260830175616 | 90 | 360 | 5.2 | 13.9 | 0.00 | 0.00 | 0.00 | 56 | 1018.0 |
| 20260830175516 | 91 | 196 | 5.2 | 13.9 | 0.00 | 0.00 | 0.00 | 56 | 1018.1 |
| 20260830175437 | 91 | 360 | 6.1 | 13.0 | 0.00 | 0.00 | 0.00 | 56 | 1018.0 |
| 20260830175358 | 91 | 360 | 5.2 | 12.2 | 0.00 | 0.00 | 0.00 | 56 | 1018.1 |
| 20260830175236 | 92 | 360 | 4.3 | 12.2 | 0.00 | 0.00 | 0.00 | 55 | 1018.1 |
| 20260830175156 | 92 | 360 | 3.5 | 7.8 | 0.00 | 0.00 | 0.00 | 57 | 1018.1 |
| 20260830175055 | 92 | 360 | 2.6 | 10.4 | 0.00 | 0.00 | 0.00 | 57 | 1018.1 |
| 20260830174920 | 92 | 360 | 3.5 | 10.4 | 0.00 | 0.00 | 0.00 | 57 | 1018.2 |
| 20260830174840 | 91 | 360 | 2.6 | 11.3 | 0.00 | 0.00 | 0.00 | 57 | 1018.2 |
| 20260830174719 | 91 | 360 | 3.5 | 14.8 | 0.00 | 0.00 | 0.00 | 57 | 1018.2 |
| 20260830174619 | 91 | 360 | 3.5 | 14.8 | 0.00 | 0.00 | 0.00 | 57 | 1018.2 |
| 20260830174519 | 91 | 360 | 2.6 | 14.8 | 0.00 | 0.00 | 0.00 | 58 | 1018.3 |
| 20260830174420 | 91 | 360 | 3.5 | 14.8 | 0.00 | 0.00 | 0.00 | 58 | 1018.2 |
| 20260830174320 | 91 | 360 | 6.1 | 14.8 | 0.00 | 0.00 | 0.00 | 59 | 1018.3 |
| 20260830174219 | 90 | 360 | 7.8 | 14.8 | 0.00 | 0.00 | 0.00 | 59 | 1018.3 |
| 20260830174119 | 90 | 360 | 7.0 | 14.8 | 0.00 | 0.00 | 0.00 | 58 | 1018.3 |
| 20260830174044 | 90 | 360 | 6.1 | 14.8 | 0.00 | 0.00 | 0.00 | 59 | 1018.2 |
| 20260830173923 | 90 | 360 | 7.0 | 14.8 | 0.00 | 0.00 | 0.00 | 58 | 1018.3 |
| 20260830173824 | 90 | 360 | 7.0 | 13.0 | 0.00 | 0.00 | 0.00 | 57 | 1018.3 |
| 20260830173725 | 90 | 360 | 6.1 | 13.0 | 0.00 | 0.00 | 0.00 | 57 | 1018.4 |
| 20260830173645 | 90 | 360 | 3.5 | 11.3 | 0.00 | 0.00 | 0.00 | 59 | 1018.4 |
| 20260830173524 | 91 | 360 | 1.7 | 8.7 | 0.00 | 0.00 | 0.00 | 59 | 1018.4 |
| 20260830173423 | 91 | 360 | 2.6 | 10.4 | 0.00 | 0.00 | 0.00 | 61 | 1018.4 |
| 20260830173343 | 90 | 360 | 4.3 | 10.4 | 0.00 | 0.00 | 0.00 | 60 | 1018.4 |
| 20260830173227 | 90 | 360 | 4.3 | 10.4 | 0.00 | 0.00 | 0.00 | 57 | 1018.4 |
| 20260830173127 | 91 | 180 | 3.5 | 10.4 | 0.00 | 0.00 | 0.00 | 57 | 1018.4 |
| 20260830173029 | 91 | 360 | 2.6 | 10.4 | 0.00 | 0.00 | 0.00 | 58 | 1018.4 |
| 20260830173005 | 91 | 360 | 2.6 | 10.4 | 0.00 | 0.00 | 0.00 | 59 | 1018.5 |
| 20260830172729 | 91 | 360 | 3.5 | 10.4 | 0.00 | 0.00 | 0.00 | 58 | 1018.4 |
| 20260830172634 | 91 | 360 | 2.6 | 10.4 | 0.00 | 0.00 | 0.00 | 58 | 1018.4 |
| 20260830172554 | 92 | 360 | 2.6 | 9.6 | 0.00 | 0.00 | 0.00 | 60 | 1018.4 |
| 20260830172433 | 91 | 360 | 1.7 | 9.6 | 0.00 | 0.00 | 0.00 | 61 | 1018.5 |
| 20260830172353 | 91 | 360 | 2.6 | 9.6 | 0.00 | 0.00 | 0.00 | 61 | 1018.4 |
| 20260830172233 | 91 | 360 | 3.5 | 9.6 | 0.00 | 0.00 | 0.00 | 61 | 1018.5 |
| 20260830172134 | 90 | 360 | 4.3 | 11.3 | 0.00 | 0.00 | 0.00 | 61 | 1018.4 |
| 20260830172034 | 90 | 180 | 5.2 | 11.3 | 0.00 | 0.00 | 0.00 | 61 | 1018.6 |
| 20260830171919 | 90 | 360 | 5.2 | 11.3 | 0.00 | 0.00 | 0.00 | 61 | 1018.5 |
| 20260830171819 | 90 | 360 | 6.1 | 11.3 | 0.00 | 0.00 | 0.00 | 60 | 1018.6 |
| 20260830171720 | 90 | 360 | 6.1 | 11.3 | 0.00 | 0.00 | 0.00 | 61 | 1018.5 |
| 20260830171641 | 90 | 360 | 6.1 | 11.3 | 0.00 | 0.00 | 0.00 | 61 | 1018.6 |
| 20260830171521 | 90 | 360 | 6.1 | 11.3 | 0.00 | 0.00 | 0.00 | 61 | 1018.6 |
| 20260830171421 | 89 | 360 | 7.0 | 11.3 | 0.00 | 0.00 | 0.00 | 62 | 1018.6 |
| 20260830171321 | 90 | 360 | 6.1 | 11.3 | 0.00 | 0.00 | 0.00 | 62 | 1018.6 |
| 20260830171226 | 89 | 360 | 5.2 | 11.3 | 0.00 | 0.00 | 0.00 | 62 | 1018.7 |
| 20260830171127 | 89 | 360 | 4.3 | 10.4 | 0.00 | 0.00 | 0.00 | 62 | 1018.6 |
| 20260830171028 | 89 | 360 | 4.3 | 10.4 | 0.00 | 0.00 | 0.00 | 62 | 1018.6 |
| 20260830170928 | 89 | 360 | 4.3 | 10.4 | 0.00 | 0.00 | 0.00 | 61 | 1018.6 |
| 20260830170828 | 89 | 360 | 2.6 | 10.4 | 0.00 | 0.00 | 0.00 | 62 | 1018.7 |
| 20260830170729 | 89 | 360 | 1.7 | 10.4 | 0.00 | 0.00 | 0.00 | 62 | 1018.7 |
| 20260830170630 | 89 | 360 | 2.6 | 10.4 | 0.00 | 0.00 | 0.00 | 62 | 1018.7 |
| 20260830170534 | 89 | 360 | 4.3 | 10.4 | 0.00 | 0.00 | 0.00 | 63 | 1018.7 |
| 20260830170455 | 89 | 360 | 6.1 | 10.4 | 0.00 | 0.00 | 0.00 | 62 | 1018.7 |
| 20260830170354 | 89 | 360 | 6.1 | 10.4 | 0.00 | 0.00 | 0.00 | 60 | 1018.7 |
| 20260830170254 | 90 | 360 | 4.3 | 9.6 | 0.00 | 0.00 | 0.00 | 60 | 1018.7 |
| 20260830170133 | 90 | 360 | 3.5 | 9.6 | 0.00 | 0.00 | 0.00 | 60 | 1018.8 |
| 20260830170034 | 91 | 360 | 2.6 | 7.8 | 0.00 | 0.00 | 0.00 | 60 | 1018.8 |
| 20260830165934 | 91 | 360 | 1.7 | 7.8 | 0.00 | 0.00 | 0.00 | 60 | 1018.8 |
| 20260830165820 | 90 | 153 | 2.6 | 10.4 | 0.00 | 0.00 | 0.00 | 61 | 1018.7 |
| 20260830165719 | 90 | 360 | 2.6 | 10.4 | 0.00 | 0.00 | 0.00 | 62 | 1018.7 |
| 20260830165619 | 90 | 360 | 2.6 | 10.4 | 0.00 | 0.00 | 0.00 | 62 | 1018.7 |
| 20260830165520 | 90 | 360 | 2.6 | 10.4 | 0.00 | 0.00 | 0.00 | 63 | 1018.8 |
| 20260830165440 | 89 | 360 | 3.5 | 10.4 | 0.00 | 0.00 | 0.00 | 63 | 1018.8 |
| 20260830165320 | 89 | 360 | 3.5 | 10.4 | 0.00 | 0.00 | 0.00 | 63 | 1018.8 |
| 20260830165220 | 89 | 360 | 4.3 | 10.4 | 0.00 | 0.00 | 0.00 | 63 | 1018.8 |
| 20260830165124 | 89 | 360 | 4.3 | 10.4 | 0.00 | 0.00 | 0.00 | 62 | 1018.8 |
| 20260830165024 | 89 | 360 | 5.2 | 10.4 | 0.00 | 0.00 | 0.00 | 62 | 1018.9 |
| 20260830164925 | 89 | 360 | 3.5 | 10.4 | 0.00 | 0.00 | 0.00 | 62 | 1018.8 |
| 20260830164846 | 89 | 360 | 3.5 | 10.4 | 0.00 | 0.00 | 0.00 | 62 | 1019.0 |
| 20260830164725 | 90 | 360 | 3.5 | 10.4 | 0.00 | 0.00 | 0.00 | 62 | 1018.9 |
| 20260830164626 | 90 | 360 | 4.3 | 10.4 | 0.00 | 0.00 | 0.00 | 63 | 1018.8 |
| 20260830164526 | 89 | 360 | 5.2 | 10.4 | 0.00 | 0.00 | 0.00 | 63 | 1018.9 |
| 20260830164430 | 89 | 360 | 5.2 | 9.6 | 0.00 | 0.00 | 0.00 | 62 | 1018.9 |
| 20260830164331 | 90 | 360 | 3.5 | 9.6 | 0.00 | 0.00 | 0.00 | 62 | 1018.9 |
| 20260830164232 | 90 | 360 | 1.7 | 9.6 | 0.00 | 0.00 | 0.00 | 61 | 1018.9 |
| 20260830164132 | 90 | 360 | 1.7 | 9.6 | 0.00 | 0.00 | 0.00 | 62 | 1018.8 |
| 20260830164033 | 90 | 360 | 1.7 | 9.6 | 0.00 | 0.00 | 0.00 | 63 | 1018.9 |
| 20260830163932 | 90 | 360 | 2.6 | 9.6 | 0.00 | 0.00 | 0.00 | 65 | 1018.8 |
| 20260830163833 | 89 | 360 | 2.6 | 9.6 | 0.00 | 0.00 | 0.00 | 65 | 1018.9 |
| 20260830163752 | 89 | 360 | 4.3 | 9.6 | 0.00 | 0.00 | 0.00 | 64 | 1018.9 |